<?xml version="1.0" encoding="UTF-8" standalone="no" ?>
<gpx xmlns="http://www.topografix.com/GPX/1/1" xmlns:xsi="http://www.w3.org/2001/XMLSchema-instance" xsi:schemaLocation="http://www.topografix.com/GPX/1/1 http://www.topografix.com/GPX/1/1/gpx.xsd" version="1.1" creator="VisuGPX - https://www.visugpx.com">
  <metadata>
    <name>Road trip fait P/E</name>
  </metadata>
  <trk>
    <name><![CDATA[Road trip fait P/E_14]]></name>
    <extensions>
      <line xmlns="http://www.topografix.com/GPX/gpx_style/0/2">
        <color>000088</color>
        <width>4</width>
      </line>
    </extensions>
    <trkseg>
      <trkpt lat="40.67304" lon="-0.69758">
        <ele>1111.346</ele>
        <time>2021-07-21T07:42:26Z</time>
      </trkpt>
      <trkpt lat="40.67304" lon="-0.69758">
        <ele>1111.346</ele>
        <time>2021-07-21T07:42:26Z</time>
      </trkpt>
      <trkpt lat="40.67297" lon="-0.6976">
        <ele>1112.4</ele>
        <time>2021-07-21T07:42:50Z</time>
      </trkpt>
      <trkpt lat="40.67296" lon="-0.69761">
        <ele>1112.817</ele>
        <time>2021-07-21T07:43:50Z</time>
      </trkpt>
      <trkpt lat="40.67296" lon="-0.69762">
        <ele>1113.794</ele>
        <time>2021-07-21T07:44:50Z</time>
      </trkpt>
      <trkpt lat="40.67296" lon="-0.69762">
        <ele>1113.794</ele>
        <time>2021-07-21T07:45:50Z</time>
      </trkpt>
      <trkpt lat="40.67296" lon="-0.69762">
        <ele>1113.794</ele>
        <time>2021-07-21T07:46:50Z</time>
      </trkpt>
      <trkpt lat="40.67298" lon="-0.6976">
        <ele>1113.181</ele>
        <time>2021-07-21T07:47:50Z</time>
      </trkpt>
      <trkpt lat="40.673" lon="-0.69763">
        <ele>1112.433</ele>
        <time>2021-07-21T07:48:50Z</time>
      </trkpt>
      <trkpt lat="40.67297" lon="-0.69762">
        <ele>1111.509</ele>
        <time>2021-07-21T07:49:49Z</time>
      </trkpt>
      <trkpt lat="40.67297" lon="-0.69762">
        <ele>1111.509</ele>
        <time>2021-07-21T07:50:48Z</time>
      </trkpt>
      <trkpt lat="40.67298" lon="-0.6976">
        <ele>1112.202</ele>
        <time>2021-07-21T07:51:47Z</time>
      </trkpt>
      <trkpt lat="40.67299" lon="-0.69761">
        <ele>1112.839</ele>
        <time>2021-07-21T07:52:46Z</time>
      </trkpt>
      <trkpt lat="40.67299" lon="-0.6976">
        <ele>1112.494</ele>
        <time>2021-07-21T07:53:45Z</time>
      </trkpt>
      <trkpt lat="40.67299" lon="-0.6976">
        <ele>1112.494</ele>
        <time>2021-07-21T07:54:44Z</time>
      </trkpt>
      <trkpt lat="40.673" lon="-0.69762">
        <ele>1112.547</ele>
        <time>2021-07-21T07:55:43Z</time>
      </trkpt>
      <trkpt lat="40.67304" lon="-0.69806">
        <ele>1111.106</ele>
        <time>2021-07-21T07:55:54Z</time>
      </trkpt>
      <trkpt lat="40.67302" lon="-0.69836">
        <ele>1112.04</ele>
        <time>2021-07-21T07:56:05Z</time>
      </trkpt>
      <trkpt lat="40.67302" lon="-0.69843">
        <ele>1111.984</ele>
        <time>2021-07-21T07:56:24Z</time>
      </trkpt>
      <trkpt lat="40.67278" lon="-0.69846">
        <ele>1109.829</ele>
        <time>2021-07-21T07:56:35Z</time>
      </trkpt>
      <trkpt lat="40.67266" lon="-0.69925">
        <ele>1107.525</ele>
        <time>2021-07-21T07:56:46Z</time>
      </trkpt>
      <trkpt lat="40.6732" lon="-0.69928">
        <ele>1108.902</ele>
        <time>2021-07-21T07:56:57Z</time>
      </trkpt>
      <trkpt lat="40.67326" lon="-0.69991">
        <ele>1106.997</ele>
        <time>2021-07-21T07:57:08Z</time>
      </trkpt>
      <trkpt lat="40.67396" lon="-0.70069">
        <ele>1104.277</ele>
        <time>2021-07-21T07:57:19Z</time>
      </trkpt>
      <trkpt lat="40.6743" lon="-0.70157">
        <ele>1106.327</ele>
        <time>2021-07-21T07:57:30Z</time>
      </trkpt>
      <trkpt lat="40.67453" lon="-0.70236">
        <ele>1108.997</ele>
        <time>2021-07-21T07:57:41Z</time>
      </trkpt>
      <trkpt lat="40.67398" lon="-0.70302">
        <ele>1109.989</ele>
        <time>2021-07-21T07:57:52Z</time>
      </trkpt>
      <trkpt lat="40.67279" lon="-0.70366">
        <ele>1111.202</ele>
        <time>2021-07-21T07:58:03Z</time>
      </trkpt>
      <trkpt lat="40.67168" lon="-0.70422">
        <ele>1111.948</ele>
        <time>2021-07-21T07:58:14Z</time>
      </trkpt>
      <trkpt lat="40.6716" lon="-0.70425">
        <ele>1111.75</ele>
        <time>2021-07-21T07:58:25Z</time>
      </trkpt>
      <trkpt lat="40.67166" lon="-0.70422">
        <ele>1111.643</ele>
        <time>2021-07-21T07:58:36Z</time>
      </trkpt>
      <trkpt lat="40.6717" lon="-0.7042">
        <ele>1111.397</ele>
        <time>2021-07-21T07:58:48Z</time>
      </trkpt>
      <trkpt lat="40.67167" lon="-0.70416">
        <ele>1111.708</ele>
        <time>2021-07-21T07:59:19Z</time>
      </trkpt>
      <trkpt lat="40.67167" lon="-0.70416">
        <ele>1110.941</ele>
        <time>2021-07-21T08:00:19Z</time>
      </trkpt>
      <trkpt lat="40.67167" lon="-0.70416">
        <ele>1110.941</ele>
        <time>2021-07-21T08:01:19Z</time>
      </trkpt>
      <trkpt lat="40.67164" lon="-0.70411">
        <ele>1111.293</ele>
        <time>2021-07-21T08:01:30Z</time>
      </trkpt>
      <trkpt lat="40.6715" lon="-0.70421">
        <ele>1112.005</ele>
        <time>2021-07-21T08:01:41Z</time>
      </trkpt>
      <trkpt lat="40.67151" lon="-0.70424">
        <ele>1111.77</ele>
        <time>2021-07-21T08:02:41Z</time>
      </trkpt>
      <trkpt lat="40.6715" lon="-0.70429">
        <ele>1112.287</ele>
        <time>2021-07-21T08:03:17Z</time>
      </trkpt>
      <trkpt lat="40.6715" lon="-0.7043">
        <ele>1112.36</ele>
        <time>2021-07-21T08:04:17Z</time>
      </trkpt>
      <trkpt lat="40.6715" lon="-0.7043">
        <ele>1112.36</ele>
        <time>2021-07-21T08:05:17Z</time>
      </trkpt>
      <trkpt lat="40.67153" lon="-0.70426">
        <ele>1113.385</ele>
        <time>2021-07-21T08:06:15Z</time>
      </trkpt>
      <trkpt lat="40.67243" lon="-0.70384">
        <ele>1112.94</ele>
        <time>2021-07-21T08:06:26Z</time>
      </trkpt>
      <trkpt lat="40.67348" lon="-0.70323">
        <ele>1110.335</ele>
        <time>2021-07-21T08:06:37Z</time>
      </trkpt>
      <trkpt lat="40.67448" lon="-0.70257">
        <ele>1107.987</ele>
        <time>2021-07-21T08:06:48Z</time>
      </trkpt>
      <trkpt lat="40.67468" lon="-0.70232">
        <ele>1107.699</ele>
        <time>2021-07-21T08:06:59Z</time>
      </trkpt>
      <trkpt lat="40.67561" lon="-0.70086">
        <ele>1109.604</ele>
        <time>2021-07-21T08:07:10Z</time>
      </trkpt>
      <trkpt lat="40.67673" lon="-0.69995">
        <ele>1107.821</ele>
        <time>2021-07-21T08:07:21Z</time>
      </trkpt>
      <trkpt lat="40.67847" lon="-0.69923">
        <ele>1110.296</ele>
        <time>2021-07-21T08:07:32Z</time>
      </trkpt>
      <trkpt lat="40.68015" lon="-0.69828">
        <ele>1110.543</ele>
        <time>2021-07-21T08:07:43Z</time>
      </trkpt>
      <trkpt lat="40.68058" lon="-0.69625">
        <ele>1104.598</ele>
        <time>2021-07-21T08:07:54Z</time>
      </trkpt>
      <trkpt lat="40.68101" lon="-0.69466">
        <ele>1101.206</ele>
        <time>2021-07-21T08:08:05Z</time>
      </trkpt>
      <trkpt lat="40.68022" lon="-0.69319">
        <ele>1108.866</ele>
        <time>2021-07-21T08:08:16Z</time>
      </trkpt>
      <trkpt lat="40.68052" lon="-0.69152">
        <ele>1104.975</ele>
        <time>2021-07-21T08:08:27Z</time>
      </trkpt>
      <trkpt lat="40.68179" lon="-0.69057">
        <ele>1100.261</ele>
        <time>2021-07-21T08:08:38Z</time>
      </trkpt>
      <trkpt lat="40.6817" lon="-0.68906">
        <ele>1102.446</ele>
        <time>2021-07-21T08:08:49Z</time>
      </trkpt>
      <trkpt lat="40.68073" lon="-0.68672">
        <ele>1102.183</ele>
        <time>2021-07-21T08:09:00Z</time>
      </trkpt>
      <trkpt lat="40.68009" lon="-0.6848">
        <ele>1108.002</ele>
        <time>2021-07-21T08:09:11Z</time>
      </trkpt>
      <trkpt lat="40.68119" lon="-0.68482">
        <ele>1105.483</ele>
        <time>2021-07-21T08:09:22Z</time>
      </trkpt>
      <trkpt lat="40.68289" lon="-0.6837">
        <ele>1117.321</ele>
        <time>2021-07-21T08:09:33Z</time>
      </trkpt>
      <trkpt lat="40.68411" lon="-0.68319">
        <ele>1102.997</ele>
        <time>2021-07-21T08:09:44Z</time>
      </trkpt>
      <trkpt lat="40.68484" lon="-0.6815">
        <ele>1103.307</ele>
        <time>2021-07-21T08:09:55Z</time>
      </trkpt>
      <trkpt lat="40.68624" lon="-0.67998">
        <ele>1111.284</ele>
        <time>2021-07-21T08:10:06Z</time>
      </trkpt>
      <trkpt lat="40.68743" lon="-0.678">
        <ele>1118.615</ele>
        <time>2021-07-21T08:10:17Z</time>
      </trkpt>
      <trkpt lat="40.68914" lon="-0.67741">
        <ele>1110.902</ele>
        <time>2021-07-21T08:10:28Z</time>
      </trkpt>
      <trkpt lat="40.69073" lon="-0.67734">
        <ele>1100.624</ele>
        <time>2021-07-21T08:10:39Z</time>
      </trkpt>
      <trkpt lat="40.69247" lon="-0.67753">
        <ele>1092.223</ele>
        <time>2021-07-21T08:10:50Z</time>
      </trkpt>
      <trkpt lat="40.69427" lon="-0.67687">
        <ele>1082.385</ele>
        <time>2021-07-21T08:11:01Z</time>
      </trkpt>
      <trkpt lat="40.69614" lon="-0.67746">
        <ele>1071.005</ele>
        <time>2021-07-21T08:11:12Z</time>
      </trkpt>
      <trkpt lat="40.6977" lon="-0.67608">
        <ele>1059.276</ele>
        <time>2021-07-21T08:11:23Z</time>
      </trkpt>
      <trkpt lat="40.69882" lon="-0.6766">
        <ele>1058.925</ele>
        <time>2021-07-21T08:11:34Z</time>
      </trkpt>
      <trkpt lat="40.69877" lon="-0.6784">
        <ele>1040.677</ele>
        <time>2021-07-21T08:11:45Z</time>
      </trkpt>
      <trkpt lat="40.70069" lon="-0.67817">
        <ele>1032.717</ele>
        <time>2021-07-21T08:11:56Z</time>
      </trkpt>
      <trkpt lat="40.70228" lon="-0.67778">
        <ele>1021.98</ele>
        <time>2021-07-21T08:12:07Z</time>
      </trkpt>
      <trkpt lat="40.70177" lon="-0.67545">
        <ele>1018.08</ele>
        <time>2021-07-21T08:12:18Z</time>
      </trkpt>
      <trkpt lat="40.70142" lon="-0.67204">
        <ele>1008.138</ele>
        <time>2021-07-21T08:12:29Z</time>
      </trkpt>
      <trkpt lat="40.70109" lon="-0.66895">
        <ele>999.8676</ele>
        <time>2021-07-21T08:12:40Z</time>
      </trkpt>
      <trkpt lat="40.70177" lon="-0.66768">
        <ele>989.7452</ele>
        <time>2021-07-21T08:12:51Z</time>
      </trkpt>
      <trkpt lat="40.70269" lon="-0.66729">
        <ele>982.9295</ele>
        <time>2021-07-21T08:13:02Z</time>
      </trkpt>
      <trkpt lat="40.70318" lon="-0.66671">
        <ele>986.2025</ele>
        <time>2021-07-21T08:13:13Z</time>
      </trkpt>
      <trkpt lat="40.70354" lon="-0.66642">
        <ele>991.975</ele>
        <time>2021-07-21T08:13:24Z</time>
      </trkpt>
      <trkpt lat="40.70343" lon="-0.66643">
        <ele>991.0301</ele>
        <time>2021-07-21T08:13:35Z</time>
      </trkpt>
      <trkpt lat="40.703" lon="-0.66727">
        <ele>993.0403</ele>
        <time>2021-07-21T08:13:46Z</time>
      </trkpt>
      <trkpt lat="40.70173" lon="-0.6677">
        <ele>998.2042</ele>
        <time>2021-07-21T08:13:57Z</time>
      </trkpt>
      <trkpt lat="40.70113" lon="-0.66867">
        <ele>996.8813</ele>
        <time>2021-07-21T08:14:08Z</time>
      </trkpt>
      <trkpt lat="40.70097" lon="-0.66888">
        <ele>996.72</ele>
        <time>2021-07-21T08:14:19Z</time>
      </trkpt>
      <trkpt lat="40.70057" lon="-0.66694">
        <ele>987.9934</ele>
        <time>2021-07-21T08:14:30Z</time>
      </trkpt>
      <trkpt lat="40.70067" lon="-0.66507">
        <ele>984.923</ele>
        <time>2021-07-21T08:14:41Z</time>
      </trkpt>
      <trkpt lat="40.7004" lon="-0.66376">
        <ele>975.3848</ele>
        <time>2021-07-21T08:14:52Z</time>
      </trkpt>
      <trkpt lat="40.69913" lon="-0.66234">
        <ele>973.7761</ele>
        <time>2021-07-21T08:15:03Z</time>
      </trkpt>
      <trkpt lat="40.69873" lon="-0.65989">
        <ele>974.343</ele>
        <time>2021-07-21T08:15:14Z</time>
      </trkpt>
      <trkpt lat="40.69823" lon="-0.65831">
        <ele>965.705</ele>
        <time>2021-07-21T08:15:25Z</time>
      </trkpt>
      <trkpt lat="40.6972" lon="-0.65756">
        <ele>964.4965</ele>
        <time>2021-07-21T08:15:36Z</time>
      </trkpt>
      <trkpt lat="40.69652" lon="-0.65583">
        <ele>975.5887</ele>
        <time>2021-07-21T08:15:47Z</time>
      </trkpt>
      <trkpt lat="40.69618" lon="-0.65353">
        <ele>984.6882</ele>
        <time>2021-07-21T08:15:58Z</time>
      </trkpt>
      <trkpt lat="40.69629" lon="-0.65144">
        <ele>998.5188</ele>
        <time>2021-07-21T08:16:10Z</time>
      </trkpt>
      <trkpt lat="40.69565" lon="-0.64991">
        <ele>988.8941</ele>
        <time>2021-07-21T08:16:21Z</time>
      </trkpt>
      <trkpt lat="40.69577" lon="-0.64792">
        <ele>977.6581</ele>
        <time>2021-07-21T08:16:32Z</time>
      </trkpt>
      <trkpt lat="40.69467" lon="-0.64675">
        <ele>957.9381</ele>
        <time>2021-07-21T08:16:43Z</time>
      </trkpt>
      <trkpt lat="40.69438" lon="-0.64515">
        <ele>954.3233</ele>
        <time>2021-07-21T08:16:54Z</time>
      </trkpt>
      <trkpt lat="40.69328" lon="-0.64408">
        <ele>949.747</ele>
        <time>2021-07-21T08:17:05Z</time>
      </trkpt>
      <trkpt lat="40.69244" lon="-0.64321">
        <ele>946.274</ele>
        <time>2021-07-21T08:17:16Z</time>
      </trkpt>
      <trkpt lat="40.69247" lon="-0.64136">
        <ele>948.0144</ele>
        <time>2021-07-21T08:17:27Z</time>
      </trkpt>
      <trkpt lat="40.69147" lon="-0.64017">
        <ele>945.174</ele>
        <time>2021-07-21T08:17:38Z</time>
      </trkpt>
      <trkpt lat="40.69132" lon="-0.63895">
        <ele>951.6095</ele>
        <time>2021-07-21T08:17:49Z</time>
      </trkpt>
      <trkpt lat="40.69162" lon="-0.63643">
        <ele>946.4781</ele>
        <time>2021-07-21T08:18:00Z</time>
      </trkpt>
      <trkpt lat="40.69175" lon="-0.63355">
        <ele>946.072</ele>
        <time>2021-07-21T08:18:11Z</time>
      </trkpt>
      <trkpt lat="40.69126" lon="-0.63168">
        <ele>937.5535</ele>
        <time>2021-07-21T08:18:22Z</time>
      </trkpt>
      <trkpt lat="40.6908" lon="-0.62939">
        <ele>940.7353</ele>
        <time>2021-07-21T08:18:33Z</time>
      </trkpt>
      <trkpt lat="40.69145" lon="-0.62784">
        <ele>938.5932</ele>
        <time>2021-07-21T08:18:44Z</time>
      </trkpt>
      <trkpt lat="40.69216" lon="-0.62687">
        <ele>936.4997</ele>
        <time>2021-07-21T08:18:55Z</time>
      </trkpt>
      <trkpt lat="40.69208" lon="-0.62552">
        <ele>931.0765</ele>
        <time>2021-07-21T08:19:06Z</time>
      </trkpt>
      <trkpt lat="40.69177" lon="-0.6245">
        <ele>927.5464</ele>
        <time>2021-07-21T08:19:17Z</time>
      </trkpt>
      <trkpt lat="40.69178" lon="-0.62404">
        <ele>930.9647</ele>
        <time>2021-07-21T08:19:28Z</time>
      </trkpt>
      <trkpt lat="40.69156" lon="-0.62321">
        <ele>933.7011</ele>
        <time>2021-07-21T08:19:39Z</time>
      </trkpt>
      <trkpt lat="40.69124" lon="-0.62167">
        <ele>932.5252</ele>
        <time>2021-07-21T08:19:50Z</time>
      </trkpt>
      <trkpt lat="40.69089" lon="-0.62075">
        <ele>933.6762</ele>
        <time>2021-07-21T08:20:01Z</time>
      </trkpt>
      <trkpt lat="40.69078" lon="-0.62004">
        <ele>925.12</ele>
        <time>2021-07-21T08:20:12Z</time>
      </trkpt>
      <trkpt lat="40.69052" lon="-0.61951">
        <ele>931.7041</ele>
        <time>2021-07-21T08:20:23Z</time>
      </trkpt>
      <trkpt lat="40.69063" lon="-0.61862">
        <ele>930.0084</ele>
        <time>2021-07-21T08:20:34Z</time>
      </trkpt>
      <trkpt lat="40.69055" lon="-0.61786">
        <ele>926.09</ele>
        <time>2021-07-21T08:20:45Z</time>
      </trkpt>
      <trkpt lat="40.69039" lon="-0.61656">
        <ele>919.5899</ele>
        <time>2021-07-21T08:20:56Z</time>
      </trkpt>
      <trkpt lat="40.69022" lon="-0.61524">
        <ele>916.1665</ele>
        <time>2021-07-21T08:21:07Z</time>
      </trkpt>
      <trkpt lat="40.69037" lon="-0.61434">
        <ele>917.0043</ele>
        <time>2021-07-21T08:21:18Z</time>
      </trkpt>
      <trkpt lat="40.69076" lon="-0.61419">
        <ele>933.6313</ele>
        <time>2021-07-21T08:21:29Z</time>
      </trkpt>
      <trkpt lat="40.69079" lon="-0.61422">
        <ele>944.6528</ele>
        <time>2021-07-21T08:21:41Z</time>
      </trkpt>
      <trkpt lat="40.69142" lon="-0.61462">
        <ele>937.0009</ele>
        <time>2021-07-21T08:21:52Z</time>
      </trkpt>
      <trkpt lat="40.69201" lon="-0.61453">
        <ele>936.1201</ele>
        <time>2021-07-21T08:22:03Z</time>
      </trkpt>
      <trkpt lat="40.69207" lon="-0.61474">
        <ele>953.3808</ele>
        <time>2021-07-21T08:22:14Z</time>
      </trkpt>
      <trkpt lat="40.69217" lon="-0.61462">
        <ele>956.7479</ele>
        <time>2021-07-21T08:22:27Z</time>
      </trkpt>
      <trkpt lat="40.69244" lon="-0.61475">
        <ele>958.7741</ele>
        <time>2021-07-21T08:22:38Z</time>
      </trkpt>
      <trkpt lat="40.6927" lon="-0.61495">
        <ele>958.8184</ele>
        <time>2021-07-21T08:22:49Z</time>
      </trkpt>
      <trkpt lat="40.69274" lon="-0.61495">
        <ele>957.0206</ele>
        <time>2021-07-21T08:23:25Z</time>
      </trkpt>
      <trkpt lat="40.69278" lon="-0.61493">
        <ele>957.3407</ele>
        <time>2021-07-21T08:23:50Z</time>
      </trkpt>
      <trkpt lat="40.69274" lon="-0.61495">
        <ele>956.9172</ele>
        <time>2021-07-21T08:24:15Z</time>
      </trkpt>
      <trkpt lat="40.69269" lon="-0.61492">
        <ele>956.1844</ele>
        <time>2021-07-21T08:24:30Z</time>
      </trkpt>
      <trkpt lat="40.69239" lon="-0.61479">
        <ele>951.2799</ele>
        <time>2021-07-21T08:24:41Z</time>
      </trkpt>
      <trkpt lat="40.69233" lon="-0.61481">
        <ele>950.2162</ele>
        <time>2021-07-21T08:25:34Z</time>
      </trkpt>
      <trkpt lat="40.69231" lon="-0.61477">
        <ele>949.5372</ele>
        <time>2021-07-21T08:25:52Z</time>
      </trkpt>
      <trkpt lat="40.69211" lon="-0.6147">
        <ele>946.2263</ele>
        <time>2021-07-21T08:26:03Z</time>
      </trkpt>
      <trkpt lat="40.69207" lon="-0.61472">
        <ele>944.5031</ele>
        <time>2021-07-21T08:26:14Z</time>
      </trkpt>
      <trkpt lat="40.69207" lon="-0.61472">
        <ele>944.5051</ele>
        <time>2021-07-21T08:27:14Z</time>
      </trkpt>
      <trkpt lat="40.69207" lon="-0.61472">
        <ele>944.5051</ele>
        <time>2021-07-21T08:28:14Z</time>
      </trkpt>
      <trkpt lat="40.69205" lon="-0.61471">
        <ele>943.5802</ele>
        <time>2021-07-21T08:29:14Z</time>
      </trkpt>
      <trkpt lat="40.69205" lon="-0.61471">
        <ele>943.5802</ele>
        <time>2021-07-21T08:30:14Z</time>
      </trkpt>
      <trkpt lat="40.69205" lon="-0.61471">
        <ele>943.5802</ele>
        <time>2021-07-21T08:31:14Z</time>
      </trkpt>
      <trkpt lat="40.69205" lon="-0.61471">
        <ele>943.5802</ele>
        <time>2021-07-21T08:32:14Z</time>
      </trkpt>
      <trkpt lat="40.69205" lon="-0.61471">
        <ele>943.5802</ele>
        <time>2021-07-21T08:33:13Z</time>
      </trkpt>
      <trkpt lat="40.69205" lon="-0.61471">
        <ele>943.5802</ele>
        <time>2021-07-21T08:34:13Z</time>
      </trkpt>
      <trkpt lat="40.69207" lon="-0.61472">
        <ele>943.007</ele>
        <time>2021-07-21T08:35:13Z</time>
      </trkpt>
      <trkpt lat="40.69205" lon="-0.61469">
        <ele>943.7865</ele>
        <time>2021-07-21T08:36:13Z</time>
      </trkpt>
      <trkpt lat="40.69209" lon="-0.61466">
        <ele>943.3623</ele>
        <time>2021-07-21T08:36:48Z</time>
      </trkpt>
      <trkpt lat="40.69202" lon="-0.61454">
        <ele>943.4306</ele>
        <time>2021-07-21T08:36:59Z</time>
      </trkpt>
      <trkpt lat="40.69167" lon="-0.61462">
        <ele>940.2338</ele>
        <time>2021-07-21T08:37:10Z</time>
      </trkpt>
      <trkpt lat="40.69134" lon="-0.61462">
        <ele>938.8115</ele>
        <time>2021-07-21T08:37:21Z</time>
      </trkpt>
      <trkpt lat="40.69103" lon="-0.61443">
        <ele>932.5158</ele>
        <time>2021-07-21T08:37:32Z</time>
      </trkpt>
      <trkpt lat="40.69075" lon="-0.6142">
        <ele>927.5167</ele>
        <time>2021-07-21T08:37:43Z</time>
      </trkpt>
      <trkpt lat="40.69068" lon="-0.61373">
        <ele>926.398</ele>
        <time>2021-07-21T08:37:54Z</time>
      </trkpt>
      <trkpt lat="40.69063" lon="-0.61342">
        <ele>924.4133</ele>
        <time>2021-07-21T08:38:05Z</time>
      </trkpt>
      <trkpt lat="40.69063" lon="-0.61334">
        <ele>923.1134</ele>
        <time>2021-07-21T08:38:29Z</time>
      </trkpt>
      <trkpt lat="40.6912" lon="-0.61227">
        <ele>921.0825</ele>
        <time>2021-07-21T08:38:40Z</time>
      </trkpt>
      <trkpt lat="40.69165" lon="-0.61145">
        <ele>924.5673</ele>
        <time>2021-07-21T08:38:51Z</time>
      </trkpt>
      <trkpt lat="40.69158" lon="-0.61216">
        <ele>930.4091</ele>
        <time>2021-07-21T08:39:02Z</time>
      </trkpt>
      <trkpt lat="40.69137" lon="-0.61301">
        <ele>929.5934</ele>
        <time>2021-07-21T08:39:13Z</time>
      </trkpt>
      <trkpt lat="40.69124" lon="-0.61377">
        <ele>940.3612</ele>
        <time>2021-07-21T08:39:24Z</time>
      </trkpt>
      <trkpt lat="40.69166" lon="-0.61408">
        <ele>954.6003</ele>
        <time>2021-07-21T08:39:35Z</time>
      </trkpt>
      <trkpt lat="40.69208" lon="-0.6142">
        <ele>955.6858</ele>
        <time>2021-07-21T08:39:46Z</time>
      </trkpt>
      <trkpt lat="40.69258" lon="-0.61436">
        <ele>959.0239</ele>
        <time>2021-07-21T08:39:57Z</time>
      </trkpt>
      <trkpt lat="40.69311" lon="-0.61466">
        <ele>962.8268</ele>
        <time>2021-07-21T08:40:08Z</time>
      </trkpt>
      <trkpt lat="40.69345" lon="-0.61453">
        <ele>974.2277</ele>
        <time>2021-07-21T08:40:19Z</time>
      </trkpt>
      <trkpt lat="40.69298" lon="-0.61407">
        <ele>972.6903</ele>
        <time>2021-07-21T08:40:30Z</time>
      </trkpt>
      <trkpt lat="40.69348" lon="-0.61401">
        <ele>981.4519</ele>
        <time>2021-07-21T08:40:41Z</time>
      </trkpt>
      <trkpt lat="40.69312" lon="-0.61355">
        <ele>991.2089</ele>
        <time>2021-07-21T08:40:52Z</time>
      </trkpt>
      <trkpt lat="40.6934" lon="-0.61326">
        <ele>992.5124</ele>
        <time>2021-07-21T08:41:03Z</time>
      </trkpt>
      <trkpt lat="40.69391" lon="-0.61375">
        <ele>1000.088</ele>
        <time>2021-07-21T08:41:14Z</time>
      </trkpt>
      <trkpt lat="40.69467" lon="-0.61385">
        <ele>1014.96</ele>
        <time>2021-07-21T08:41:25Z</time>
      </trkpt>
      <trkpt lat="40.6953" lon="-0.6135">
        <ele>1028.886</ele>
        <time>2021-07-21T08:41:36Z</time>
      </trkpt>
      <trkpt lat="40.69561" lon="-0.61293">
        <ele>1042.489</ele>
        <time>2021-07-21T08:41:47Z</time>
      </trkpt>
      <trkpt lat="40.69591" lon="-0.6123">
        <ele>1054.2</ele>
        <time>2021-07-21T08:41:58Z</time>
      </trkpt>
      <trkpt lat="40.69615" lon="-0.61308">
        <ele>1063.897</ele>
        <time>2021-07-21T08:42:09Z</time>
      </trkpt>
      <trkpt lat="40.69703" lon="-0.61305">
        <ele>1071.9</ele>
        <time>2021-07-21T08:42:20Z</time>
      </trkpt>
      <trkpt lat="40.69752" lon="-0.61335">
        <ele>1086.441</ele>
        <time>2021-07-21T08:42:31Z</time>
      </trkpt>
      <trkpt lat="40.69805" lon="-0.61357">
        <ele>1098.796</ele>
        <time>2021-07-21T08:42:42Z</time>
      </trkpt>
      <trkpt lat="40.69866" lon="-0.61369">
        <ele>1099.834</ele>
        <time>2021-07-21T08:42:53Z</time>
      </trkpt>
      <trkpt lat="40.69924" lon="-0.61367">
        <ele>1111.789</ele>
        <time>2021-07-21T08:43:04Z</time>
      </trkpt>
      <trkpt lat="40.6996" lon="-0.61399">
        <ele>1120.242</ele>
        <time>2021-07-21T08:43:15Z</time>
      </trkpt>
      <trkpt lat="40.70005" lon="-0.6144">
        <ele>1128.264</ele>
        <time>2021-07-21T08:43:26Z</time>
      </trkpt>
      <trkpt lat="40.70015" lon="-0.61464">
        <ele>1132.373</ele>
        <time>2021-07-21T08:43:37Z</time>
      </trkpt>
      <trkpt lat="40.70013" lon="-0.61467">
        <ele>1131.841</ele>
        <time>2021-07-21T08:44:37Z</time>
      </trkpt>
      <trkpt lat="40.70017" lon="-0.61471">
        <ele>1132.919</ele>
        <time>2021-07-21T08:45:27Z</time>
      </trkpt>
      <trkpt lat="40.70016" lon="-0.61539">
        <ele>1140.57</ele>
        <time>2021-07-21T08:45:38Z</time>
      </trkpt>
      <trkpt lat="40.69993" lon="-0.61599">
        <ele>1149.276</ele>
        <time>2021-07-21T08:45:49Z</time>
      </trkpt>
      <trkpt lat="40.69995" lon="-0.61666">
        <ele>1156.23</ele>
        <time>2021-07-21T08:46:00Z</time>
      </trkpt>
      <trkpt lat="40.7004" lon="-0.6173">
        <ele>1169.31</ele>
        <time>2021-07-21T08:46:11Z</time>
      </trkpt>
      <trkpt lat="40.70082" lon="-0.61795">
        <ele>1180.024</ele>
        <time>2021-07-21T08:46:22Z</time>
      </trkpt>
      <trkpt lat="40.70107" lon="-0.6186">
        <ele>1194.16</ele>
        <time>2021-07-21T08:46:33Z</time>
      </trkpt>
      <trkpt lat="40.70151" lon="-0.61914">
        <ele>1209.667</ele>
        <time>2021-07-21T08:46:44Z</time>
      </trkpt>
      <trkpt lat="40.70188" lon="-0.61949">
        <ele>1220.836</ele>
        <time>2021-07-21T08:46:55Z</time>
      </trkpt>
      <trkpt lat="40.70236" lon="-0.61992">
        <ele>1237.571</ele>
        <time>2021-07-21T08:47:06Z</time>
      </trkpt>
      <trkpt lat="40.70272" lon="-0.62039">
        <ele>1252.375</ele>
        <time>2021-07-21T08:47:17Z</time>
      </trkpt>
      <trkpt lat="40.70278" lon="-0.62049">
        <ele>1253.645</ele>
        <time>2021-07-21T08:47:28Z</time>
      </trkpt>
      <trkpt lat="40.7028" lon="-0.62055">
        <ele>1254.005</ele>
        <time>2021-07-21T08:47:40Z</time>
      </trkpt>
      <trkpt lat="40.70285" lon="-0.62053">
        <ele>1254.817</ele>
        <time>2021-07-21T08:48:13Z</time>
      </trkpt>
      <trkpt lat="40.70282" lon="-0.62057">
        <ele>1255.234</ele>
        <time>2021-07-21T08:49:07Z</time>
      </trkpt>
      <trkpt lat="40.70281" lon="-0.62063">
        <ele>1253.618</ele>
        <time>2021-07-21T08:50:05Z</time>
      </trkpt>
      <trkpt lat="40.7028" lon="-0.62056">
        <ele>1253.967</ele>
        <time>2021-07-21T08:50:16Z</time>
      </trkpt>
      <trkpt lat="40.70281" lon="-0.62051">
        <ele>1253.986</ele>
        <time>2021-07-21T08:50:28Z</time>
      </trkpt>
      <trkpt lat="40.7028" lon="-0.62056">
        <ele>1252.18</ele>
        <time>2021-07-21T08:50:59Z</time>
      </trkpt>
      <trkpt lat="40.70278" lon="-0.62054">
        <ele>1253.074</ele>
        <time>2021-07-21T08:51:59Z</time>
      </trkpt>
      <trkpt lat="40.70276" lon="-0.6206">
        <ele>1253.254</ele>
        <time>2021-07-21T08:52:17Z</time>
      </trkpt>
      <trkpt lat="40.70281" lon="-0.62055">
        <ele>1254.41</ele>
        <time>2021-07-21T08:52:29Z</time>
      </trkpt>
      <trkpt lat="40.70282" lon="-0.62059">
        <ele>1254.239</ele>
        <time>2021-07-21T08:53:28Z</time>
      </trkpt>
      <trkpt lat="40.70287" lon="-0.62065">
        <ele>1254.989</ele>
        <time>2021-07-21T08:53:42Z</time>
      </trkpt>
      <trkpt lat="40.70323" lon="-0.62101">
        <ele>1268.754</ele>
        <time>2021-07-21T08:53:53Z</time>
      </trkpt>
      <trkpt lat="40.70364" lon="-0.62111">
        <ele>1280.657</ele>
        <time>2021-07-21T08:54:04Z</time>
      </trkpt>
      <trkpt lat="40.70411" lon="-0.62135">
        <ele>1290.16</ele>
        <time>2021-07-21T08:54:15Z</time>
      </trkpt>
      <trkpt lat="40.70465" lon="-0.62153">
        <ele>1297.644</ele>
        <time>2021-07-21T08:54:26Z</time>
      </trkpt>
      <trkpt lat="40.70505" lon="-0.62163">
        <ele>1301.55</ele>
        <time>2021-07-21T08:54:37Z</time>
      </trkpt>
      <trkpt lat="40.70506" lon="-0.62165">
        <ele>1302.037</ele>
        <time>2021-07-21T08:55:37Z</time>
      </trkpt>
      <trkpt lat="40.70504" lon="-0.62164">
        <ele>1301.879</ele>
        <time>2021-07-21T10:49:47Z</time>
      </trkpt>
      <trkpt lat="40.70503" lon="-0.62164">
        <ele>1301.385</ele>
        <time>2021-07-21T10:50:46Z</time>
      </trkpt>
      <trkpt lat="40.70503" lon="-0.62164">
        <ele>1301.358</ele>
        <time>2021-07-21T10:51:45Z</time>
      </trkpt>
      <trkpt lat="40.70503" lon="-0.62162">
        <ele>1302.03</ele>
        <time>2021-07-21T10:52:44Z</time>
      </trkpt>
      <trkpt lat="40.70503" lon="-0.62162">
        <ele>1302.03</ele>
        <time>2021-07-21T10:53:43Z</time>
      </trkpt>
      <trkpt lat="40.70506" lon="-0.62165">
        <ele>1301.996</ele>
        <time>2021-07-21T10:54:42Z</time>
      </trkpt>
      <trkpt lat="40.70506" lon="-0.62165">
        <ele>1301.996</ele>
        <time>2021-07-21T10:55:42Z</time>
      </trkpt>
      <trkpt lat="40.70505" lon="-0.62163">
        <ele>1301.666</ele>
        <time>2021-07-21T10:56:41Z</time>
      </trkpt>
      <trkpt lat="40.70501" lon="-0.62161">
        <ele>1302.086</ele>
        <time>2021-07-21T10:57:13Z</time>
      </trkpt>
      <trkpt lat="40.70496" lon="-0.62159">
        <ele>1301.834</ele>
        <time>2021-07-21T10:57:24Z</time>
      </trkpt>
      <trkpt lat="40.70501" lon="-0.62162">
        <ele>1301.365</ele>
        <time>2021-07-21T10:57:42Z</time>
      </trkpt>
      <trkpt lat="40.70497" lon="-0.6216">
        <ele>1302.046</ele>
        <time>2021-07-21T10:57:56Z</time>
      </trkpt>
      <trkpt lat="40.705" lon="-0.62162">
        <ele>1302.602</ele>
        <time>2021-07-21T10:58:09Z</time>
      </trkpt>
      <trkpt lat="40.70504" lon="-0.62162">
        <ele>1301.555</ele>
        <time>2021-07-21T10:59:07Z</time>
      </trkpt>
      <trkpt lat="40.70507" lon="-0.62164">
        <ele>1301.04</ele>
        <time>2021-07-21T11:00:01Z</time>
      </trkpt>
      <trkpt lat="40.70504" lon="-0.62162">
        <ele>1301.99</ele>
        <time>2021-07-21T11:00:42Z</time>
      </trkpt>
      <trkpt lat="40.70503" lon="-0.62163">
        <ele>1300.626</ele>
        <time>2021-07-21T11:01:40Z</time>
      </trkpt>
      <trkpt lat="40.70504" lon="-0.62164">
        <ele>1301.69</ele>
        <time>2021-07-21T11:02:39Z</time>
      </trkpt>
      <trkpt lat="40.70503" lon="-0.62164">
        <ele>1301.464</ele>
        <time>2021-07-21T11:03:38Z</time>
      </trkpt>
      <trkpt lat="40.70501" lon="-0.62164">
        <ele>1300.625</ele>
        <time>2021-07-21T11:04:37Z</time>
      </trkpt>
      <trkpt lat="40.70507" lon="-0.62165">
        <ele>1301.647</ele>
        <time>2021-07-21T11:05:32Z</time>
      </trkpt>
      <trkpt lat="40.70556" lon="-0.62172">
        <ele>1304.177</ele>
        <time>2021-07-21T11:05:43Z</time>
      </trkpt>
      <trkpt lat="40.70629" lon="-0.62184">
        <ele>1310.184</ele>
        <time>2021-07-21T11:05:54Z</time>
      </trkpt>
      <trkpt lat="40.70644" lon="-0.6215">
        <ele>1319.047</ele>
        <time>2021-07-21T11:06:05Z</time>
      </trkpt>
      <trkpt lat="40.70587" lon="-0.62083">
        <ele>1325.702</ele>
        <time>2021-07-21T11:06:16Z</time>
      </trkpt>
      <trkpt lat="40.70593" lon="-0.62038">
        <ele>1334.872</ele>
        <time>2021-07-21T11:06:27Z</time>
      </trkpt>
      <trkpt lat="40.70634" lon="-0.62025">
        <ele>1340.396</ele>
        <time>2021-07-21T11:06:38Z</time>
      </trkpt>
      <trkpt lat="40.70597" lon="-0.61979">
        <ele>1347.26</ele>
        <time>2021-07-21T11:06:49Z</time>
      </trkpt>
      <trkpt lat="40.70556" lon="-0.61904">
        <ele>1353.774</ele>
        <time>2021-07-21T11:07:00Z</time>
      </trkpt>
      <trkpt lat="40.7057" lon="-0.61859">
        <ele>1352.365</ele>
        <time>2021-07-21T11:07:11Z</time>
      </trkpt>
      <trkpt lat="40.70621" lon="-0.61828">
        <ele>1349.777</ele>
        <time>2021-07-21T11:07:22Z</time>
      </trkpt>
      <trkpt lat="40.70692" lon="-0.618">
        <ele>1350.24</ele>
        <time>2021-07-21T11:07:33Z</time>
      </trkpt>
      <trkpt lat="40.70753" lon="-0.61771">
        <ele>1358.676</ele>
        <time>2021-07-21T11:07:44Z</time>
      </trkpt>
      <trkpt lat="40.70843" lon="-0.61756">
        <ele>1364.689</ele>
        <time>2021-07-21T11:07:55Z</time>
      </trkpt>
      <trkpt lat="40.70896" lon="-0.61717">
        <ele>1373.381</ele>
        <time>2021-07-21T11:08:06Z</time>
      </trkpt>
      <trkpt lat="40.70945" lon="-0.61773">
        <ele>1386.219</ele>
        <time>2021-07-21T11:08:17Z</time>
      </trkpt>
      <trkpt lat="40.71018" lon="-0.61801">
        <ele>1401.917</ele>
        <time>2021-07-21T11:08:28Z</time>
      </trkpt>
      <trkpt lat="40.71094" lon="-0.61821">
        <ele>1411.409</ele>
        <time>2021-07-21T11:08:39Z</time>
      </trkpt>
      <trkpt lat="40.71181" lon="-0.61835">
        <ele>1413.782</ele>
        <time>2021-07-21T11:08:50Z</time>
      </trkpt>
      <trkpt lat="40.71273" lon="-0.61856">
        <ele>1415.608</ele>
        <time>2021-07-21T11:09:01Z</time>
      </trkpt>
      <trkpt lat="40.71379" lon="-0.61852">
        <ele>1439.58</ele>
        <time>2021-07-21T11:09:12Z</time>
      </trkpt>
      <trkpt lat="40.71451" lon="-0.61818">
        <ele>1443.308</ele>
        <time>2021-07-21T11:09:23Z</time>
      </trkpt>
      <trkpt lat="40.71507" lon="-0.61783">
        <ele>1449.494</ele>
        <time>2021-07-21T11:09:34Z</time>
      </trkpt>
      <trkpt lat="40.71587" lon="-0.61746">
        <ele>1459.092</ele>
        <time>2021-07-21T11:09:45Z</time>
      </trkpt>
      <trkpt lat="40.71631" lon="-0.61723">
        <ele>1452.581</ele>
        <time>2021-07-21T11:09:56Z</time>
      </trkpt>
      <trkpt lat="40.71722" lon="-0.61729">
        <ele>1454.236</ele>
        <time>2021-07-21T11:10:07Z</time>
      </trkpt>
      <trkpt lat="40.71829" lon="-0.61726">
        <ele>1455.349</ele>
        <time>2021-07-21T11:10:18Z</time>
      </trkpt>
      <trkpt lat="40.71904" lon="-0.61705">
        <ele>1448.659</ele>
        <time>2021-07-21T11:10:29Z</time>
      </trkpt>
      <trkpt lat="40.71986" lon="-0.61678">
        <ele>1440.707</ele>
        <time>2021-07-21T11:10:40Z</time>
      </trkpt>
      <trkpt lat="40.72062" lon="-0.61659">
        <ele>1433.325</ele>
        <time>2021-07-21T11:10:51Z</time>
      </trkpt>
      <trkpt lat="40.72122" lon="-0.61644">
        <ele>1425.62</ele>
        <time>2021-07-21T11:11:02Z</time>
      </trkpt>
      <trkpt lat="40.72185" lon="-0.61618">
        <ele>1414.143</ele>
        <time>2021-07-21T11:11:13Z</time>
      </trkpt>
      <trkpt lat="40.72253" lon="-0.61554">
        <ele>1414.459</ele>
        <time>2021-07-21T11:11:24Z</time>
      </trkpt>
      <trkpt lat="40.72321" lon="-0.61503">
        <ele>1412.087</ele>
        <time>2021-07-21T11:11:35Z</time>
      </trkpt>
      <trkpt lat="40.72395" lon="-0.6146">
        <ele>1407.675</ele>
        <time>2021-07-21T11:11:46Z</time>
      </trkpt>
      <trkpt lat="40.72474" lon="-0.614">
        <ele>1401.742</ele>
        <time>2021-07-21T11:11:57Z</time>
      </trkpt>
      <trkpt lat="40.72564" lon="-0.61342">
        <ele>1399.653</ele>
        <time>2021-07-21T11:12:08Z</time>
      </trkpt>
      <trkpt lat="40.7263" lon="-0.61278">
        <ele>1393.995</ele>
        <time>2021-07-21T11:12:19Z</time>
      </trkpt>
      <trkpt lat="40.72705" lon="-0.61222">
        <ele>1401.631</ele>
        <time>2021-07-21T11:12:30Z</time>
      </trkpt>
      <trkpt lat="40.72774" lon="-0.6113">
        <ele>1396.53</ele>
        <time>2021-07-21T11:12:41Z</time>
      </trkpt>
      <trkpt lat="40.72861" lon="-0.61035">
        <ele>1391.51</ele>
        <time>2021-07-21T11:12:52Z</time>
      </trkpt>
      <trkpt lat="40.72981" lon="-0.60925">
        <ele>1402.359</ele>
        <time>2021-07-21T11:13:03Z</time>
      </trkpt>
      <trkpt lat="40.73139" lon="-0.60847">
        <ele>1406.014</ele>
        <time>2021-07-21T11:13:14Z</time>
      </trkpt>
      <trkpt lat="40.73235" lon="-0.60837">
        <ele>1395.084</ele>
        <time>2021-07-21T11:13:25Z</time>
      </trkpt>
      <trkpt lat="40.73286" lon="-0.60764">
        <ele>1400.146</ele>
        <time>2021-07-21T11:13:36Z</time>
      </trkpt>
      <trkpt lat="40.73258" lon="-0.60662">
        <ele>1409.657</ele>
        <time>2021-07-21T11:13:47Z</time>
      </trkpt>
      <trkpt lat="40.73212" lon="-0.60583">
        <ele>1398.031</ele>
        <time>2021-07-21T11:13:58Z</time>
      </trkpt>
      <trkpt lat="40.73192" lon="-0.605">
        <ele>1384.486</ele>
        <time>2021-07-21T11:14:09Z</time>
      </trkpt>
      <trkpt lat="40.73198" lon="-0.60463">
        <ele>1382.355</ele>
        <time>2021-07-21T11:14:20Z</time>
      </trkpt>
      <trkpt lat="40.73222" lon="-0.60453">
        <ele>1384.223</ele>
        <time>2021-07-21T11:14:31Z</time>
      </trkpt>
      <trkpt lat="40.73226" lon="-0.60451">
        <ele>1384.295</ele>
        <time>2021-07-21T11:15:04Z</time>
      </trkpt>
      <trkpt lat="40.73213" lon="-0.60364">
        <ele>1380.152</ele>
        <time>2021-07-21T11:15:15Z</time>
      </trkpt>
      <trkpt lat="40.73288" lon="-0.6033">
        <ele>1383.466</ele>
        <time>2021-07-21T11:15:26Z</time>
      </trkpt>
      <trkpt lat="40.73382" lon="-0.60234">
        <ele>1397</ele>
        <time>2021-07-21T11:15:37Z</time>
      </trkpt>
      <trkpt lat="40.73445" lon="-0.60142">
        <ele>1404.876</ele>
        <time>2021-07-21T11:15:48Z</time>
      </trkpt>
      <trkpt lat="40.73535" lon="-0.60044">
        <ele>1418.002</ele>
        <time>2021-07-21T11:15:59Z</time>
      </trkpt>
      <trkpt lat="40.73601" lon="-0.59974">
        <ele>1412.863</ele>
        <time>2021-07-21T11:16:10Z</time>
      </trkpt>
      <trkpt lat="40.73704" lon="-0.59953">
        <ele>1412.901</ele>
        <time>2021-07-21T11:16:21Z</time>
      </trkpt>
      <trkpt lat="40.73737" lon="-0.59836">
        <ele>1417.224</ele>
        <time>2021-07-21T11:16:32Z</time>
      </trkpt>
      <trkpt lat="40.73826" lon="-0.5987">
        <ele>1418.108</ele>
        <time>2021-07-21T11:16:43Z</time>
      </trkpt>
      <trkpt lat="40.73912" lon="-0.59933">
        <ele>1401.482</ele>
        <time>2021-07-21T11:16:54Z</time>
      </trkpt>
      <trkpt lat="40.74003" lon="-0.59918">
        <ele>1415.678</ele>
        <time>2021-07-21T11:17:05Z</time>
      </trkpt>
      <trkpt lat="40.74073" lon="-0.59855">
        <ele>1436.872</ele>
        <time>2021-07-21T11:17:16Z</time>
      </trkpt>
      <trkpt lat="40.74092" lon="-0.59779">
        <ele>1443.775</ele>
        <time>2021-07-21T11:17:27Z</time>
      </trkpt>
      <trkpt lat="40.74091" lon="-0.59701">
        <ele>1448.557</ele>
        <time>2021-07-21T11:17:38Z</time>
      </trkpt>
      <trkpt lat="40.74181" lon="-0.59664">
        <ele>1457.347</ele>
        <time>2021-07-21T11:17:49Z</time>
      </trkpt>
      <trkpt lat="40.74258" lon="-0.59558">
        <ele>1467.198</ele>
        <time>2021-07-21T11:18:00Z</time>
      </trkpt>
      <trkpt lat="40.74329" lon="-0.59442">
        <ele>1471.247</ele>
        <time>2021-07-21T11:18:11Z</time>
      </trkpt>
      <trkpt lat="40.74384" lon="-0.59331">
        <ele>1468.625</ele>
        <time>2021-07-21T11:18:22Z</time>
      </trkpt>
      <trkpt lat="40.74454" lon="-0.59242">
        <ele>1465.847</ele>
        <time>2021-07-21T11:18:33Z</time>
      </trkpt>
      <trkpt lat="40.74464" lon="-0.5924">
        <ele>1462.637</ele>
        <time>2021-07-21T11:18:44Z</time>
      </trkpt>
      <trkpt lat="40.74468" lon="-0.5924">
        <ele>1463.263</ele>
        <time>2021-07-21T11:19:08Z</time>
      </trkpt>
      <trkpt lat="40.74464" lon="-0.5924">
        <ele>1463.826</ele>
        <time>2021-07-21T11:19:25Z</time>
      </trkpt>
      <trkpt lat="40.74409" lon="-0.59256">
        <ele>1472.352</ele>
        <time>2021-07-21T11:19:36Z</time>
      </trkpt>
      <trkpt lat="40.74368" lon="-0.59233">
        <ele>1475.122</ele>
        <time>2021-07-21T11:19:47Z</time>
      </trkpt>
      <trkpt lat="40.74391" lon="-0.59113">
        <ele>1480.572</ele>
        <time>2021-07-21T11:19:58Z</time>
      </trkpt>
      <trkpt lat="40.74471" lon="-0.59038">
        <ele>1486.032</ele>
        <time>2021-07-21T11:20:09Z</time>
      </trkpt>
      <trkpt lat="40.74448" lon="-0.58998">
        <ele>1495.828</ele>
        <time>2021-07-21T11:20:20Z</time>
      </trkpt>
      <trkpt lat="40.74385" lon="-0.58974">
        <ele>1502.894</ele>
        <time>2021-07-21T11:20:31Z</time>
      </trkpt>
      <trkpt lat="40.74342" lon="-0.58918">
        <ele>1505.008</ele>
        <time>2021-07-21T11:20:42Z</time>
      </trkpt>
      <trkpt lat="40.74328" lon="-0.58822">
        <ele>1497.07</ele>
        <time>2021-07-21T11:20:53Z</time>
      </trkpt>
      <trkpt lat="40.74371" lon="-0.58727">
        <ele>1501.141</ele>
        <time>2021-07-21T11:21:04Z</time>
      </trkpt>
      <trkpt lat="40.74452" lon="-0.5861">
        <ele>1504.315</ele>
        <time>2021-07-21T11:21:15Z</time>
      </trkpt>
      <trkpt lat="40.74535" lon="-0.58509">
        <ele>1509.452</ele>
        <time>2021-07-21T11:21:26Z</time>
      </trkpt>
      <trkpt lat="40.7458" lon="-0.58439">
        <ele>1510.444</ele>
        <time>2021-07-21T11:21:37Z</time>
      </trkpt>
      <trkpt lat="40.74618" lon="-0.58347">
        <ele>1505.519</ele>
        <time>2021-07-21T11:21:48Z</time>
      </trkpt>
      <trkpt lat="40.7465" lon="-0.58232">
        <ele>1495.253</ele>
        <time>2021-07-21T11:21:59Z</time>
      </trkpt>
      <trkpt lat="40.74656" lon="-0.5812">
        <ele>1487.25</ele>
        <time>2021-07-21T11:22:10Z</time>
      </trkpt>
      <trkpt lat="40.74665" lon="-0.57988">
        <ele>1473.466</ele>
        <time>2021-07-21T11:22:21Z</time>
      </trkpt>
      <trkpt lat="40.74683" lon="-0.57827">
        <ele>1464.831</ele>
        <time>2021-07-21T11:22:32Z</time>
      </trkpt>
      <trkpt lat="40.74637" lon="-0.57694">
        <ele>1453.68</ele>
        <time>2021-07-21T11:22:43Z</time>
      </trkpt>
      <trkpt lat="40.74587" lon="-0.57595">
        <ele>1455.051</ele>
        <time>2021-07-21T11:22:54Z</time>
      </trkpt>
      <trkpt lat="40.74536" lon="-0.57494">
        <ele>1462.846</ele>
        <time>2021-07-21T11:23:05Z</time>
      </trkpt>
      <trkpt lat="40.74454" lon="-0.5739">
        <ele>1472.711</ele>
        <time>2021-07-21T11:23:16Z</time>
      </trkpt>
      <trkpt lat="40.74374" lon="-0.57297">
        <ele>1490.174</ele>
        <time>2021-07-21T11:23:27Z</time>
      </trkpt>
      <trkpt lat="40.74325" lon="-0.57182">
        <ele>1490.596</ele>
        <time>2021-07-21T11:23:38Z</time>
      </trkpt>
      <trkpt lat="40.74268" lon="-0.57053">
        <ele>1482.863</ele>
        <time>2021-07-21T11:23:49Z</time>
      </trkpt>
      <trkpt lat="40.74174" lon="-0.56923">
        <ele>1476.231</ele>
        <time>2021-07-21T11:24:00Z</time>
      </trkpt>
      <trkpt lat="40.7413" lon="-0.56792">
        <ele>1471.92</ele>
        <time>2021-07-21T11:24:11Z</time>
      </trkpt>
      <trkpt lat="40.74025" lon="-0.56784">
        <ele>1469.374</ele>
        <time>2021-07-21T11:24:22Z</time>
      </trkpt>
      <trkpt lat="40.7398" lon="-0.56688">
        <ele>1462.253</ele>
        <time>2021-07-21T11:24:33Z</time>
      </trkpt>
      <trkpt lat="40.73957" lon="-0.56687">
        <ele>1461.6</ele>
        <time>2021-07-21T11:24:44Z</time>
      </trkpt>
      <trkpt lat="40.73946" lon="-0.56684">
        <ele>1461.455</ele>
        <time>2021-07-21T11:24:55Z</time>
      </trkpt>
      <trkpt lat="40.73917" lon="-0.56751">
        <ele>1452.247</ele>
        <time>2021-07-21T11:25:06Z</time>
      </trkpt>
      <trkpt lat="40.7391" lon="-0.56897">
        <ele>1437.217</ele>
        <time>2021-07-21T11:25:17Z</time>
      </trkpt>
      <trkpt lat="40.73882" lon="-0.57037">
        <ele>1425.403</ele>
        <time>2021-07-21T11:25:28Z</time>
      </trkpt>
      <trkpt lat="40.73849" lon="-0.57031">
        <ele>1418.54</ele>
        <time>2021-07-21T11:25:39Z</time>
      </trkpt>
      <trkpt lat="40.73819" lon="-0.56926">
        <ele>1410.203</ele>
        <time>2021-07-21T11:25:50Z</time>
      </trkpt>
      <trkpt lat="40.73794" lon="-0.56878">
        <ele>1403.694</ele>
        <time>2021-07-21T11:26:01Z</time>
      </trkpt>
      <trkpt lat="40.73705" lon="-0.56931">
        <ele>1386.731</ele>
        <time>2021-07-21T11:26:12Z</time>
      </trkpt>
      <trkpt lat="40.73578" lon="-0.56939">
        <ele>1386.886</ele>
        <time>2021-07-21T11:26:23Z</time>
      </trkpt>
      <trkpt lat="40.73518" lon="-0.56821">
        <ele>1387.678</ele>
        <time>2021-07-21T11:26:34Z</time>
      </trkpt>
      <trkpt lat="40.73461" lon="-0.56728">
        <ele>1384.922</ele>
        <time>2021-07-21T11:26:45Z</time>
      </trkpt>
      <trkpt lat="40.73469" lon="-0.56636">
        <ele>1377.241</ele>
        <time>2021-07-21T11:26:56Z</time>
      </trkpt>
      <trkpt lat="40.73487" lon="-0.56513">
        <ele>1359.327</ele>
        <time>2021-07-21T11:27:07Z</time>
      </trkpt>
      <trkpt lat="40.73434" lon="-0.56526">
        <ele>1352.557</ele>
        <time>2021-07-21T11:27:18Z</time>
      </trkpt>
      <trkpt lat="40.7338" lon="-0.56507">
        <ele>1349.353</ele>
        <time>2021-07-21T11:27:29Z</time>
      </trkpt>
      <trkpt lat="40.73379" lon="-0.56347">
        <ele>1336.421</ele>
        <time>2021-07-21T11:27:40Z</time>
      </trkpt>
      <trkpt lat="40.7338" lon="-0.5623">
        <ele>1329.196</ele>
        <time>2021-07-21T11:27:51Z</time>
      </trkpt>
      <trkpt lat="40.73442" lon="-0.56178">
        <ele>1334.706</ele>
        <time>2021-07-21T11:28:02Z</time>
      </trkpt>
      <trkpt lat="40.73529" lon="-0.56167">
        <ele>1333.005</ele>
        <time>2021-07-21T11:28:13Z</time>
      </trkpt>
      <trkpt lat="40.73574" lon="-0.56075">
        <ele>1336.287</ele>
        <time>2021-07-21T11:28:24Z</time>
      </trkpt>
      <trkpt lat="40.73645" lon="-0.55944">
        <ele>1341.688</ele>
        <time>2021-07-21T11:28:35Z</time>
      </trkpt>
      <trkpt lat="40.73655" lon="-0.55785">
        <ele>1340.077</ele>
        <time>2021-07-21T11:28:46Z</time>
      </trkpt>
      <trkpt lat="40.73614" lon="-0.55644">
        <ele>1334.346</ele>
        <time>2021-07-21T11:28:57Z</time>
      </trkpt>
      <trkpt lat="40.73683" lon="-0.55549">
        <ele>1322.124</ele>
        <time>2021-07-21T11:29:08Z</time>
      </trkpt>
      <trkpt lat="40.73753" lon="-0.55467">
        <ele>1317.028</ele>
        <time>2021-07-21T11:29:19Z</time>
      </trkpt>
      <trkpt lat="40.73822" lon="-0.55503">
        <ele>1314.613</ele>
        <time>2021-07-21T11:29:30Z</time>
      </trkpt>
      <trkpt lat="40.73804" lon="-0.55368">
        <ele>1325.655</ele>
        <time>2021-07-21T11:29:41Z</time>
      </trkpt>
      <trkpt lat="40.73765" lon="-0.55186">
        <ele>1309.849</ele>
        <time>2021-07-21T11:29:52Z</time>
      </trkpt>
      <trkpt lat="40.73734" lon="-0.54977">
        <ele>1291.729</ele>
        <time>2021-07-21T11:30:03Z</time>
      </trkpt>
      <trkpt lat="40.73703" lon="-0.54783">
        <ele>1286.333</ele>
        <time>2021-07-21T11:30:14Z</time>
      </trkpt>
      <trkpt lat="40.73742" lon="-0.54592">
        <ele>1276.131</ele>
        <time>2021-07-21T11:30:25Z</time>
      </trkpt>
      <trkpt lat="40.7381" lon="-0.54451">
        <ele>1266.829</ele>
        <time>2021-07-21T11:30:36Z</time>
      </trkpt>
      <trkpt lat="40.7389" lon="-0.54373">
        <ele>1256.693</ele>
        <time>2021-07-21T11:30:47Z</time>
      </trkpt>
      <trkpt lat="40.74022" lon="-0.54328">
        <ele>1240.275</ele>
        <time>2021-07-21T11:30:58Z</time>
      </trkpt>
      <trkpt lat="40.74134" lon="-0.54307">
        <ele>1230.151</ele>
        <time>2021-07-21T11:31:09Z</time>
      </trkpt>
      <trkpt lat="40.74236" lon="-0.54294">
        <ele>1220.671</ele>
        <time>2021-07-21T11:31:20Z</time>
      </trkpt>
      <trkpt lat="40.74402" lon="-0.54147">
        <ele>1218.082</ele>
        <time>2021-07-21T11:31:31Z</time>
      </trkpt>
      <trkpt lat="40.74621" lon="-0.54057">
        <ele>1221.916</ele>
        <time>2021-07-21T11:31:42Z</time>
      </trkpt>
      <trkpt lat="40.74824" lon="-0.54063">
        <ele>1228.802</ele>
        <time>2021-07-21T11:31:53Z</time>
      </trkpt>
      <trkpt lat="40.74983" lon="-0.5385">
        <ele>1238.901</ele>
        <time>2021-07-21T11:32:04Z</time>
      </trkpt>
      <trkpt lat="40.75142" lon="-0.53723">
        <ele>1238.179</ele>
        <time>2021-07-21T11:32:15Z</time>
      </trkpt>
      <trkpt lat="40.75357" lon="-0.53803">
        <ele>1231.521</ele>
        <time>2021-07-21T11:32:26Z</time>
      </trkpt>
      <trkpt lat="40.75542" lon="-0.53804">
        <ele>1233.845</ele>
        <time>2021-07-21T11:32:37Z</time>
      </trkpt>
      <trkpt lat="40.7563" lon="-0.53669">
        <ele>1225.721</ele>
        <time>2021-07-21T11:32:48Z</time>
      </trkpt>
      <trkpt lat="40.75804" lon="-0.53688">
        <ele>1212.072</ele>
        <time>2021-07-21T11:32:59Z</time>
      </trkpt>
      <trkpt lat="40.75877" lon="-0.54022">
        <ele>1204.17</ele>
        <time>2021-07-21T11:33:10Z</time>
      </trkpt>
      <trkpt lat="40.75958" lon="-0.54192">
        <ele>1199.02</ele>
        <time>2021-07-21T11:33:21Z</time>
      </trkpt>
      <trkpt lat="40.75972" lon="-0.54179">
        <ele>1201.705</ele>
        <time>2021-07-21T11:33:32Z</time>
      </trkpt>
      <trkpt lat="40.76033" lon="-0.54109">
        <ele>1205.628</ele>
        <time>2021-07-21T11:33:43Z</time>
      </trkpt>
      <trkpt lat="40.76101" lon="-0.5398">
        <ele>1206.308</ele>
        <time>2021-07-21T11:33:54Z</time>
      </trkpt>
      <trkpt lat="40.76198" lon="-0.53872">
        <ele>1213.311</ele>
        <time>2021-07-21T11:34:05Z</time>
      </trkpt>
      <trkpt lat="40.76261" lon="-0.53785">
        <ele>1219.296</ele>
        <time>2021-07-21T11:34:16Z</time>
      </trkpt>
      <trkpt lat="40.7631" lon="-0.53671">
        <ele>1213.17</ele>
        <time>2021-07-21T11:34:27Z</time>
      </trkpt>
      <trkpt lat="40.76353" lon="-0.53606">
        <ele>1201.982</ele>
        <time>2021-07-21T11:34:38Z</time>
      </trkpt>
      <trkpt lat="40.7638" lon="-0.53527">
        <ele>1191.559</ele>
        <time>2021-07-21T11:34:49Z</time>
      </trkpt>
      <trkpt lat="40.76374" lon="-0.53412">
        <ele>1198.566</ele>
        <time>2021-07-21T11:35:00Z</time>
      </trkpt>
      <trkpt lat="40.76363" lon="-0.53238">
        <ele>1199.286</ele>
        <time>2021-07-21T11:35:11Z</time>
      </trkpt>
      <trkpt lat="40.76352" lon="-0.53071">
        <ele>1188.671</ele>
        <time>2021-07-21T11:35:22Z</time>
      </trkpt>
      <trkpt lat="40.76346" lon="-0.52936">
        <ele>1190.926</ele>
        <time>2021-07-21T11:35:33Z</time>
      </trkpt>
      <trkpt lat="40.76353" lon="-0.52831">
        <ele>1182.131</ele>
        <time>2021-07-21T11:35:44Z</time>
      </trkpt>
      <trkpt lat="40.76402" lon="-0.52719">
        <ele>1180.037</ele>
        <time>2021-07-21T11:35:55Z</time>
      </trkpt>
      <trkpt lat="40.76409" lon="-0.52683">
        <ele>1181.462</ele>
        <time>2021-07-21T11:36:06Z</time>
      </trkpt>
      <trkpt lat="40.76399" lon="-0.52659">
        <ele>1183.755</ele>
        <time>2021-07-21T11:36:17Z</time>
      </trkpt>
      <trkpt lat="40.76395" lon="-0.52559">
        <ele>1168.302</ele>
        <time>2021-07-21T11:36:28Z</time>
      </trkpt>
      <trkpt lat="40.76342" lon="-0.5248">
        <ele>1150.95</ele>
        <time>2021-07-21T11:36:39Z</time>
      </trkpt>
      <trkpt lat="40.76273" lon="-0.52517">
        <ele>1129.627</ele>
        <time>2021-07-21T11:36:50Z</time>
      </trkpt>
      <trkpt lat="40.7624" lon="-0.52497">
        <ele>1132.056</ele>
        <time>2021-07-21T11:37:01Z</time>
      </trkpt>
      <trkpt lat="40.76256" lon="-0.52325">
        <ele>1119.477</ele>
        <time>2021-07-21T11:37:12Z</time>
      </trkpt>
      <trkpt lat="40.76278" lon="-0.52178">
        <ele>1117.876</ele>
        <time>2021-07-21T11:37:23Z</time>
      </trkpt>
      <trkpt lat="40.76261" lon="-0.5203">
        <ele>1125.165</ele>
        <time>2021-07-21T11:37:34Z</time>
      </trkpt>
      <trkpt lat="40.76244" lon="-0.51895">
        <ele>1126.613</ele>
        <time>2021-07-21T11:37:45Z</time>
      </trkpt>
      <trkpt lat="40.76225" lon="-0.51825">
        <ele>1134.127</ele>
        <time>2021-07-21T11:37:56Z</time>
      </trkpt>
      <trkpt lat="40.76259" lon="-0.51699">
        <ele>1158.017</ele>
        <time>2021-07-21T11:38:07Z</time>
      </trkpt>
      <trkpt lat="40.76288" lon="-0.51528">
        <ele>1166.743</ele>
        <time>2021-07-21T11:38:18Z</time>
      </trkpt>
      <trkpt lat="40.76327" lon="-0.51393">
        <ele>1165.726</ele>
        <time>2021-07-21T11:38:29Z</time>
      </trkpt>
      <trkpt lat="40.76361" lon="-0.51257">
        <ele>1158.965</ele>
        <time>2021-07-21T11:38:40Z</time>
      </trkpt>
      <trkpt lat="40.76368" lon="-0.51105">
        <ele>1160.868</ele>
        <time>2021-07-21T11:38:51Z</time>
      </trkpt>
      <trkpt lat="40.76419" lon="-0.50986">
        <ele>1156.856</ele>
        <time>2021-07-21T11:39:02Z</time>
      </trkpt>
      <trkpt lat="40.76489" lon="-0.50832">
        <ele>1150.189</ele>
        <time>2021-07-21T11:39:13Z</time>
      </trkpt>
      <trkpt lat="40.76514" lon="-0.50691">
        <ele>1151.779</ele>
        <time>2021-07-21T11:39:24Z</time>
      </trkpt>
      <trkpt lat="40.76571" lon="-0.50533">
        <ele>1161.645</ele>
        <time>2021-07-21T11:39:35Z</time>
      </trkpt>
      <trkpt lat="40.76536" lon="-0.50483">
        <ele>1165.194</ele>
        <time>2021-07-21T11:39:46Z</time>
      </trkpt>
      <trkpt lat="40.76586" lon="-0.50361">
        <ele>1173.143</ele>
        <time>2021-07-21T11:39:57Z</time>
      </trkpt>
      <trkpt lat="40.7662" lon="-0.50298">
        <ele>1177.662</ele>
        <time>2021-07-21T11:40:08Z</time>
      </trkpt>
      <trkpt lat="40.76687" lon="-0.50207">
        <ele>1176.705</ele>
        <time>2021-07-21T11:40:19Z</time>
      </trkpt>
      <trkpt lat="40.76794" lon="-0.50141">
        <ele>1175.987</ele>
        <time>2021-07-21T11:40:30Z</time>
      </trkpt>
      <trkpt lat="40.76893" lon="-0.501">
        <ele>1163.341</ele>
        <time>2021-07-21T11:40:41Z</time>
      </trkpt>
      <trkpt lat="40.76937" lon="-0.50081">
        <ele>1159.626</ele>
        <time>2021-07-21T11:40:52Z</time>
      </trkpt>
      <trkpt lat="40.76941" lon="-0.50081">
        <ele>1164.514</ele>
        <time>2021-07-21T11:41:04Z</time>
      </trkpt>
      <trkpt lat="40.76919" lon="-0.50095">
        <ele>1178.393</ele>
        <time>2021-07-21T11:41:15Z</time>
      </trkpt>
      <trkpt lat="40.7691" lon="-0.50027">
        <ele>1172.855</ele>
        <time>2021-07-21T11:41:26Z</time>
      </trkpt>
      <trkpt lat="40.76994" lon="-0.49983">
        <ele>1156.622</ele>
        <time>2021-07-21T11:41:37Z</time>
      </trkpt>
      <trkpt lat="40.77081" lon="-0.49951">
        <ele>1141.791</ele>
        <time>2021-07-21T11:41:48Z</time>
      </trkpt>
      <trkpt lat="40.77158" lon="-0.49872">
        <ele>1121.714</ele>
        <time>2021-07-21T11:41:59Z</time>
      </trkpt>
      <trkpt lat="40.77213" lon="-0.49782">
        <ele>1103.251</ele>
        <time>2021-07-21T11:42:10Z</time>
      </trkpt>
      <trkpt lat="40.77287" lon="-0.4974">
        <ele>1095.304</ele>
        <time>2021-07-21T11:42:21Z</time>
      </trkpt>
      <trkpt lat="40.77354" lon="-0.49624">
        <ele>1094.948</ele>
        <time>2021-07-21T11:42:32Z</time>
      </trkpt>
      <trkpt lat="40.7741" lon="-0.4952">
        <ele>1092.606</ele>
        <time>2021-07-21T11:42:43Z</time>
      </trkpt>
      <trkpt lat="40.77435" lon="-0.49393">
        <ele>1082.388</ele>
        <time>2021-07-21T11:42:54Z</time>
      </trkpt>
      <trkpt lat="40.77499" lon="-0.4931">
        <ele>1075.101</ele>
        <time>2021-07-21T11:43:05Z</time>
      </trkpt>
      <trkpt lat="40.77653" lon="-0.49295">
        <ele>1066.796</ele>
        <time>2021-07-21T11:43:16Z</time>
      </trkpt>
      <trkpt lat="40.77805" lon="-0.49317">
        <ele>1056.051</ele>
        <time>2021-07-21T11:43:27Z</time>
      </trkpt>
      <trkpt lat="40.77918" lon="-0.49311">
        <ele>1055.886</ele>
        <time>2021-07-21T11:43:38Z</time>
      </trkpt>
      <trkpt lat="40.78049" lon="-0.49221">
        <ele>1049.82</ele>
        <time>2021-07-21T11:43:49Z</time>
      </trkpt>
      <trkpt lat="40.78173" lon="-0.49101">
        <ele>1036.025</ele>
        <time>2021-07-21T11:44:00Z</time>
      </trkpt>
      <trkpt lat="40.78248" lon="-0.48993">
        <ele>1026.904</ele>
        <time>2021-07-21T11:44:11Z</time>
      </trkpt>
      <trkpt lat="40.78305" lon="-0.48907">
        <ele>1017.031</ele>
        <time>2021-07-21T11:44:22Z</time>
      </trkpt>
      <trkpt lat="40.7842" lon="-0.48833">
        <ele>1018.861</ele>
        <time>2021-07-21T11:44:33Z</time>
      </trkpt>
      <trkpt lat="40.78455" lon="-0.4874">
        <ele>1017.296</ele>
        <time>2021-07-21T11:44:44Z</time>
      </trkpt>
      <trkpt lat="40.78438" lon="-0.48635">
        <ele>1023.708</ele>
        <time>2021-07-21T11:44:55Z</time>
      </trkpt>
      <trkpt lat="40.78518" lon="-0.48574">
        <ele>1023.304</ele>
        <time>2021-07-21T11:45:06Z</time>
      </trkpt>
      <trkpt lat="40.78644" lon="-0.48529">
        <ele>1010.494</ele>
        <time>2021-07-21T11:45:17Z</time>
      </trkpt>
      <trkpt lat="40.78717" lon="-0.48405">
        <ele>1007.961</ele>
        <time>2021-07-21T11:45:28Z</time>
      </trkpt>
      <trkpt lat="40.78802" lon="-0.48308">
        <ele>1013.321</ele>
        <time>2021-07-21T11:45:39Z</time>
      </trkpt>
      <trkpt lat="40.78892" lon="-0.48253">
        <ele>1021.411</ele>
        <time>2021-07-21T11:45:50Z</time>
      </trkpt>
      <trkpt lat="40.78993" lon="-0.48175">
        <ele>1037.949</ele>
        <time>2021-07-21T11:46:01Z</time>
      </trkpt>
      <trkpt lat="40.79084" lon="-0.48115">
        <ele>1050.557</ele>
        <time>2021-07-21T11:46:12Z</time>
      </trkpt>
      <trkpt lat="40.79156" lon="-0.48064">
        <ele>1047.697</ele>
        <time>2021-07-21T11:46:23Z</time>
      </trkpt>
      <trkpt lat="40.79254" lon="-0.48051">
        <ele>1035.832</ele>
        <time>2021-07-21T11:46:34Z</time>
      </trkpt>
      <trkpt lat="40.79341" lon="-0.48017">
        <ele>1019.903</ele>
        <time>2021-07-21T11:46:45Z</time>
      </trkpt>
      <trkpt lat="40.79432" lon="-0.4798">
        <ele>1007.678</ele>
        <time>2021-07-21T11:46:56Z</time>
      </trkpt>
      <trkpt lat="40.79516" lon="-0.47946">
        <ele>997.7901</ele>
        <time>2021-07-21T11:47:07Z</time>
      </trkpt>
      <trkpt lat="40.79596" lon="-0.47892">
        <ele>987.6435</ele>
        <time>2021-07-21T11:47:18Z</time>
      </trkpt>
      <trkpt lat="40.79675" lon="-0.47814">
        <ele>978.1592</ele>
        <time>2021-07-21T11:47:29Z</time>
      </trkpt>
      <trkpt lat="40.79764" lon="-0.47735">
        <ele>984.431</ele>
        <time>2021-07-21T11:47:40Z</time>
      </trkpt>
      <trkpt lat="40.79839" lon="-0.47612">
        <ele>980.5097</ele>
        <time>2021-07-21T11:47:51Z</time>
      </trkpt>
      <trkpt lat="40.79871" lon="-0.47479">
        <ele>978.0648</ele>
        <time>2021-07-21T11:48:02Z</time>
      </trkpt>
      <trkpt lat="40.79931" lon="-0.47354">
        <ele>974.1901</ele>
        <time>2021-07-21T11:48:13Z</time>
      </trkpt>
      <trkpt lat="40.7999" lon="-0.47228">
        <ele>957.8928</ele>
        <time>2021-07-21T11:48:24Z</time>
      </trkpt>
      <trkpt lat="40.80073" lon="-0.47134">
        <ele>947.9663</ele>
        <time>2021-07-21T11:48:35Z</time>
      </trkpt>
      <trkpt lat="40.80161" lon="-0.47002">
        <ele>936.4373</ele>
        <time>2021-07-21T11:48:46Z</time>
      </trkpt>
      <trkpt lat="40.80288" lon="-0.46863">
        <ele>930.3576</ele>
        <time>2021-07-21T11:48:57Z</time>
      </trkpt>
      <trkpt lat="40.80373" lon="-0.46774">
        <ele>917.9734</ele>
        <time>2021-07-21T11:49:08Z</time>
      </trkpt>
      <trkpt lat="40.80486" lon="-0.46691">
        <ele>918.2431</ele>
        <time>2021-07-21T11:49:19Z</time>
      </trkpt>
      <trkpt lat="40.80586" lon="-0.46641">
        <ele>917.8935</ele>
        <time>2021-07-21T11:49:30Z</time>
      </trkpt>
      <trkpt lat="40.80649" lon="-0.4655">
        <ele>908.3848</ele>
        <time>2021-07-21T11:49:41Z</time>
      </trkpt>
      <trkpt lat="40.80717" lon="-0.46444">
        <ele>890.8456</ele>
        <time>2021-07-21T11:49:52Z</time>
      </trkpt>
      <trkpt lat="40.80744" lon="-0.46355">
        <ele>882.33</ele>
        <time>2021-07-21T11:50:03Z</time>
      </trkpt>
      <trkpt lat="40.8084" lon="-0.46292">
        <ele>888.6561</ele>
        <time>2021-07-21T11:50:14Z</time>
      </trkpt>
      <trkpt lat="40.80884" lon="-0.46185">
        <ele>894.7475</ele>
        <time>2021-07-21T11:50:25Z</time>
      </trkpt>
      <trkpt lat="40.80998" lon="-0.4611">
        <ele>901.5065</ele>
        <time>2021-07-21T11:50:36Z</time>
      </trkpt>
      <trkpt lat="40.81061" lon="-0.45997">
        <ele>900.9132</ele>
        <time>2021-07-21T11:50:47Z</time>
      </trkpt>
      <trkpt lat="40.81139" lon="-0.45919">
        <ele>899.4431</ele>
        <time>2021-07-21T11:50:58Z</time>
      </trkpt>
      <trkpt lat="40.81218" lon="-0.45784">
        <ele>887.7923</ele>
        <time>2021-07-21T11:51:09Z</time>
      </trkpt>
      <trkpt lat="40.81293" lon="-0.45674">
        <ele>877.0981</ele>
        <time>2021-07-21T11:51:20Z</time>
      </trkpt>
      <trkpt lat="40.81385" lon="-0.45617">
        <ele>867.3945</ele>
        <time>2021-07-21T11:51:31Z</time>
      </trkpt>
      <trkpt lat="40.81481" lon="-0.45569">
        <ele>867.0606</ele>
        <time>2021-07-21T11:51:42Z</time>
      </trkpt>
      <trkpt lat="40.81626" lon="-0.45528">
        <ele>865.3943</ele>
        <time>2021-07-21T11:51:53Z</time>
      </trkpt>
      <trkpt lat="40.81695" lon="-0.45505">
        <ele>860.0644</ele>
        <time>2021-07-21T11:52:04Z</time>
      </trkpt>
      <trkpt lat="40.81751" lon="-0.45401">
        <ele>857.0179</ele>
        <time>2021-07-21T11:52:15Z</time>
      </trkpt>
      <trkpt lat="40.81821" lon="-0.45261">
        <ele>860.8094</ele>
        <time>2021-07-21T11:52:26Z</time>
      </trkpt>
      <trkpt lat="40.81833" lon="-0.45166">
        <ele>859.051</ele>
        <time>2021-07-21T11:52:37Z</time>
      </trkpt>
      <trkpt lat="40.81857" lon="-0.45069">
        <ele>859.1477</ele>
        <time>2021-07-21T11:52:48Z</time>
      </trkpt>
      <trkpt lat="40.81903" lon="-0.45027">
        <ele>852.0278</ele>
        <time>2021-07-21T11:52:59Z</time>
      </trkpt>
      <trkpt lat="40.81942" lon="-0.44979">
        <ele>848.1992</ele>
        <time>2021-07-21T11:53:10Z</time>
      </trkpt>
      <trkpt lat="40.81946" lon="-0.44974">
        <ele>844.482</ele>
        <time>2021-07-21T11:53:21Z</time>
      </trkpt>
      <trkpt lat="40.81956" lon="-0.4497">
        <ele>849.2007</ele>
        <time>2021-07-21T11:53:32Z</time>
      </trkpt>
      <trkpt lat="40.81938" lon="-0.44964">
        <ele>853.7383</ele>
        <time>2021-07-21T11:53:43Z</time>
      </trkpt>
      <trkpt lat="40.81934" lon="-0.44908">
        <ele>853.9842</ele>
        <time>2021-07-21T11:53:54Z</time>
      </trkpt>
      <trkpt lat="40.81922" lon="-0.44836">
        <ele>850.6731</ele>
        <time>2021-07-21T11:54:05Z</time>
      </trkpt>
      <trkpt lat="40.81884" lon="-0.44763">
        <ele>843.2964</ele>
        <time>2021-07-21T11:54:16Z</time>
      </trkpt>
      <trkpt lat="40.81851" lon="-0.4467">
        <ele>839.5727</ele>
        <time>2021-07-21T11:54:27Z</time>
      </trkpt>
      <trkpt lat="40.81858" lon="-0.44558">
        <ele>838.7168</ele>
        <time>2021-07-21T11:54:38Z</time>
      </trkpt>
      <trkpt lat="40.81874" lon="-0.44477">
        <ele>852.9551</ele>
        <time>2021-07-21T11:54:49Z</time>
      </trkpt>
      <trkpt lat="40.81897" lon="-0.44367">
        <ele>862.5405</ele>
        <time>2021-07-21T11:55:00Z</time>
      </trkpt>
      <trkpt lat="40.81939" lon="-0.44269">
        <ele>874.9989</ele>
        <time>2021-07-21T11:55:11Z</time>
      </trkpt>
      <trkpt lat="40.82011" lon="-0.44155">
        <ele>882.2527</ele>
        <time>2021-07-21T11:55:22Z</time>
      </trkpt>
      <trkpt lat="40.82098" lon="-0.44077">
        <ele>892.5933</ele>
        <time>2021-07-21T11:55:33Z</time>
      </trkpt>
      <trkpt lat="40.82185" lon="-0.43932">
        <ele>904.7166</ele>
        <time>2021-07-21T11:55:44Z</time>
      </trkpt>
      <trkpt lat="40.82278" lon="-0.43836">
        <ele>915.8166</ele>
        <time>2021-07-21T11:55:55Z</time>
      </trkpt>
      <trkpt lat="40.82355" lon="-0.43686">
        <ele>917.9544</ele>
        <time>2021-07-21T11:56:06Z</time>
      </trkpt>
      <trkpt lat="40.82414" lon="-0.43516">
        <ele>921.4737</ele>
        <time>2021-07-21T11:56:17Z</time>
      </trkpt>
      <trkpt lat="40.82437" lon="-0.43391">
        <ele>921.8118</ele>
        <time>2021-07-21T11:56:28Z</time>
      </trkpt>
      <trkpt lat="40.82471" lon="-0.43268">
        <ele>929.5564</ele>
        <time>2021-07-21T11:56:39Z</time>
      </trkpt>
      <trkpt lat="40.82534" lon="-0.43194">
        <ele>936.2539</ele>
        <time>2021-07-21T11:56:50Z</time>
      </trkpt>
      <trkpt lat="40.82586" lon="-0.43039">
        <ele>944.2605</ele>
        <time>2021-07-21T11:57:01Z</time>
      </trkpt>
      <trkpt lat="40.82633" lon="-0.4289">
        <ele>935.8851</ele>
        <time>2021-07-21T11:57:12Z</time>
      </trkpt>
      <trkpt lat="40.82638" lon="-0.42784">
        <ele>936.0432</ele>
        <time>2021-07-21T11:57:23Z</time>
      </trkpt>
      <trkpt lat="40.8263" lon="-0.42631">
        <ele>928.2293</ele>
        <time>2021-07-21T11:57:34Z</time>
      </trkpt>
      <trkpt lat="40.82649" lon="-0.42492">
        <ele>976.5602</ele>
        <time>2021-07-21T11:57:45Z</time>
      </trkpt>
      <trkpt lat="40.82691" lon="-0.42413">
        <ele>977.6703</ele>
        <time>2021-07-21T11:57:56Z</time>
      </trkpt>
      <trkpt lat="40.82695" lon="-0.42377">
        <ele>981.9299</ele>
        <time>2021-07-21T11:58:07Z</time>
      </trkpt>
      <trkpt lat="40.82716" lon="-0.42402">
        <ele>984.9346</ele>
        <time>2021-07-21T11:58:18Z</time>
      </trkpt>
      <trkpt lat="40.82782" lon="-0.42355">
        <ele>989.247</ele>
        <time>2021-07-21T11:58:29Z</time>
      </trkpt>
      <trkpt lat="40.82874" lon="-0.42329">
        <ele>987.1431</ele>
        <time>2021-07-21T11:58:40Z</time>
      </trkpt>
      <trkpt lat="40.82938" lon="-0.42258">
        <ele>981.2316</ele>
        <time>2021-07-21T11:58:51Z</time>
      </trkpt>
      <trkpt lat="40.83019" lon="-0.42165">
        <ele>990.997</ele>
        <time>2021-07-21T11:59:02Z</time>
      </trkpt>
      <trkpt lat="40.83065" lon="-0.42045">
        <ele>1006.011</ele>
        <time>2021-07-21T11:59:13Z</time>
      </trkpt>
      <trkpt lat="40.83096" lon="-0.41922">
        <ele>997.611</ele>
        <time>2021-07-21T11:59:24Z</time>
      </trkpt>
      <trkpt lat="40.83172" lon="-0.41809">
        <ele>996.4227</ele>
        <time>2021-07-21T11:59:35Z</time>
      </trkpt>
      <trkpt lat="40.83221" lon="-0.41646">
        <ele>989.8363</ele>
        <time>2021-07-21T11:59:46Z</time>
      </trkpt>
      <trkpt lat="40.8327" lon="-0.41555">
        <ele>976.6286</ele>
        <time>2021-07-21T11:59:57Z</time>
      </trkpt>
      <trkpt lat="40.83257" lon="-0.41458">
        <ele>977.42</ele>
        <time>2021-07-21T12:00:08Z</time>
      </trkpt>
      <trkpt lat="40.83328" lon="-0.41313">
        <ele>985.6381</ele>
        <time>2021-07-21T12:00:19Z</time>
      </trkpt>
      <trkpt lat="40.83372" lon="-0.41169">
        <ele>994.1735</ele>
        <time>2021-07-21T12:00:30Z</time>
      </trkpt>
      <trkpt lat="40.8345" lon="-0.41019">
        <ele>999.0665</ele>
        <time>2021-07-21T12:00:41Z</time>
      </trkpt>
      <trkpt lat="40.83521" lon="-0.40927">
        <ele>996.6447</ele>
        <time>2021-07-21T12:00:52Z</time>
      </trkpt>
      <trkpt lat="40.83596" lon="-0.40832">
        <ele>963.2072</ele>
        <time>2021-07-21T12:01:03Z</time>
      </trkpt>
      <trkpt lat="40.83643" lon="-0.40756">
        <ele>998.4947</ele>
        <time>2021-07-21T12:01:14Z</time>
      </trkpt>
      <trkpt lat="40.83728" lon="-0.40683">
        <ele>992.1594</ele>
        <time>2021-07-21T12:01:25Z</time>
      </trkpt>
      <trkpt lat="40.83779" lon="-0.40617">
        <ele>982.1421</ele>
        <time>2021-07-21T12:01:36Z</time>
      </trkpt>
      <trkpt lat="40.8383" lon="-0.40459">
        <ele>977.8501</ele>
        <time>2021-07-21T12:01:47Z</time>
      </trkpt>
      <trkpt lat="40.83868" lon="-0.40353">
        <ele>971.0677</ele>
        <time>2021-07-21T12:01:58Z</time>
      </trkpt>
      <trkpt lat="40.83891" lon="-0.40213">
        <ele>968.971</ele>
        <time>2021-07-21T12:02:09Z</time>
      </trkpt>
      <trkpt lat="40.83909" lon="-0.40107">
        <ele>960.35</ele>
        <time>2021-07-21T12:02:20Z</time>
      </trkpt>
      <trkpt lat="40.83887" lon="-0.40054">
        <ele>956.0984</ele>
        <time>2021-07-21T12:02:31Z</time>
      </trkpt>
      <trkpt lat="40.8393" lon="-0.40039">
        <ele>954.4273</ele>
        <time>2021-07-21T12:02:42Z</time>
      </trkpt>
      <trkpt lat="40.83954" lon="-0.39973">
        <ele>949.1126</ele>
        <time>2021-07-21T12:02:53Z</time>
      </trkpt>
      <trkpt lat="40.84014" lon="-0.39884">
        <ele>938.992</ele>
        <time>2021-07-21T12:03:04Z</time>
      </trkpt>
      <trkpt lat="40.84084" lon="-0.39777">
        <ele>925.4021</ele>
        <time>2021-07-21T12:03:15Z</time>
      </trkpt>
      <trkpt lat="40.84132" lon="-0.39793">
        <ele>918.0241</ele>
        <time>2021-07-21T12:03:26Z</time>
      </trkpt>
      <trkpt lat="40.84121" lon="-0.39867">
        <ele>915.2497</ele>
        <time>2021-07-21T12:03:37Z</time>
      </trkpt>
      <trkpt lat="40.84178" lon="-0.39794">
        <ele>908.9508</ele>
        <time>2021-07-21T12:03:48Z</time>
      </trkpt>
      <trkpt lat="40.84186" lon="-0.39645">
        <ele>896.7196</ele>
        <time>2021-07-21T12:03:59Z</time>
      </trkpt>
      <trkpt lat="40.84264" lon="-0.39566">
        <ele>888.2921</ele>
        <time>2021-07-21T12:04:10Z</time>
      </trkpt>
      <trkpt lat="40.84324" lon="-0.39495">
        <ele>882.1364</ele>
        <time>2021-07-21T12:04:21Z</time>
      </trkpt>
      <trkpt lat="40.84417" lon="-0.39536">
        <ele>876.378</ele>
        <time>2021-07-21T12:04:32Z</time>
      </trkpt>
      <trkpt lat="40.84468" lon="-0.39686">
        <ele>873.21</ele>
        <time>2021-07-21T12:04:43Z</time>
      </trkpt>
      <trkpt lat="40.84495" lon="-0.39786">
        <ele>871.6134</ele>
        <time>2021-07-21T12:04:54Z</time>
      </trkpt>
      <trkpt lat="40.84538" lon="-0.39895">
        <ele>861.9048</ele>
        <time>2021-07-21T12:05:05Z</time>
      </trkpt>
      <trkpt lat="40.84597" lon="-0.39943">
        <ele>850.2186</ele>
        <time>2021-07-21T12:05:16Z</time>
      </trkpt>
      <trkpt lat="40.84605" lon="-0.39908">
        <ele>855.0139</ele>
        <time>2021-07-21T12:05:27Z</time>
      </trkpt>
      <trkpt lat="40.84619" lon="-0.39764">
        <ele>862.9384</ele>
        <time>2021-07-21T12:05:38Z</time>
      </trkpt>
      <trkpt lat="40.846" lon="-0.39624">
        <ele>866.2364</ele>
        <time>2021-07-21T12:05:49Z</time>
      </trkpt>
      <trkpt lat="40.84597" lon="-0.39541">
        <ele>869.4153</ele>
        <time>2021-07-21T12:06:00Z</time>
      </trkpt>
      <trkpt lat="40.84711" lon="-0.39538">
        <ele>870.2338</ele>
        <time>2021-07-21T12:06:11Z</time>
      </trkpt>
      <trkpt lat="40.84796" lon="-0.39533">
        <ele>870.8152</ele>
        <time>2021-07-21T12:06:22Z</time>
      </trkpt>
      <trkpt lat="40.8489" lon="-0.39463">
        <ele>871.5805</ele>
        <time>2021-07-21T12:06:33Z</time>
      </trkpt>
      <trkpt lat="40.84981" lon="-0.39403">
        <ele>873.6333</ele>
        <time>2021-07-21T12:06:44Z</time>
      </trkpt>
      <trkpt lat="40.85066" lon="-0.39282">
        <ele>871.6659</ele>
        <time>2021-07-21T12:06:55Z</time>
      </trkpt>
      <trkpt lat="40.85184" lon="-0.39187">
        <ele>869.2126</ele>
        <time>2021-07-21T12:07:06Z</time>
      </trkpt>
      <trkpt lat="40.85269" lon="-0.39068">
        <ele>858.4388</ele>
        <time>2021-07-21T12:07:17Z</time>
      </trkpt>
      <trkpt lat="40.85336" lon="-0.38928">
        <ele>847.0825</ele>
        <time>2021-07-21T12:07:28Z</time>
      </trkpt>
      <trkpt lat="40.85447" lon="-0.38886">
        <ele>844.1353</ele>
        <time>2021-07-21T12:07:39Z</time>
      </trkpt>
      <trkpt lat="40.85566" lon="-0.38735">
        <ele>835.7478</ele>
        <time>2021-07-21T12:07:50Z</time>
      </trkpt>
      <trkpt lat="40.85691" lon="-0.38549">
        <ele>822.998</ele>
        <time>2021-07-21T12:08:01Z</time>
      </trkpt>
      <trkpt lat="40.85775" lon="-0.38389">
        <ele>819.1579</ele>
        <time>2021-07-21T12:08:12Z</time>
      </trkpt>
      <trkpt lat="40.8583" lon="-0.38309">
        <ele>816.4902</ele>
        <time>2021-07-21T12:08:23Z</time>
      </trkpt>
      <trkpt lat="40.85931" lon="-0.38337">
        <ele>820.8128</ele>
        <time>2021-07-21T12:08:34Z</time>
      </trkpt>
      <trkpt lat="40.86051" lon="-0.38268">
        <ele>819.6407</ele>
        <time>2021-07-21T12:08:45Z</time>
      </trkpt>
      <trkpt lat="40.86141" lon="-0.38148">
        <ele>822.0553</ele>
        <time>2021-07-21T12:08:56Z</time>
      </trkpt>
      <trkpt lat="40.86209" lon="-0.3797">
        <ele>826.7713</ele>
        <time>2021-07-21T12:09:07Z</time>
      </trkpt>
      <trkpt lat="40.8629" lon="-0.37855">
        <ele>833.6229</ele>
        <time>2021-07-21T12:09:18Z</time>
      </trkpt>
      <trkpt lat="40.86329" lon="-0.37962">
        <ele>832.1994</ele>
        <time>2021-07-21T12:09:29Z</time>
      </trkpt>
      <trkpt lat="40.86363" lon="-0.38053">
        <ele>825.3619</ele>
        <time>2021-07-21T12:09:40Z</time>
      </trkpt>
      <trkpt lat="40.86459" lon="-0.38019">
        <ele>816.3547</ele>
        <time>2021-07-21T12:09:51Z</time>
      </trkpt>
      <trkpt lat="40.86522" lon="-0.37873">
        <ele>810.6909</ele>
        <time>2021-07-21T12:10:02Z</time>
      </trkpt>
      <trkpt lat="40.86641" lon="-0.37747">
        <ele>800.8533</ele>
        <time>2021-07-21T12:10:13Z</time>
      </trkpt>
      <trkpt lat="40.86679" lon="-0.376">
        <ele>790.9831</ele>
        <time>2021-07-21T12:10:24Z</time>
      </trkpt>
      <trkpt lat="40.86779" lon="-0.37452">
        <ele>797.4904</ele>
        <time>2021-07-21T12:10:35Z</time>
      </trkpt>
      <trkpt lat="40.86822" lon="-0.3727">
        <ele>823.2854</ele>
        <time>2021-07-21T12:10:46Z</time>
      </trkpt>
      <trkpt lat="40.86883" lon="-0.3717">
        <ele>831.8589</ele>
        <time>2021-07-21T12:10:57Z</time>
      </trkpt>
      <trkpt lat="40.87001" lon="-0.37182">
        <ele>835.1608</ele>
        <time>2021-07-21T12:11:08Z</time>
      </trkpt>
      <trkpt lat="40.87094" lon="-0.37086">
        <ele>829.2371</ele>
        <time>2021-07-21T12:11:19Z</time>
      </trkpt>
      <trkpt lat="40.87235" lon="-0.37069">
        <ele>835.029</ele>
        <time>2021-07-21T12:11:30Z</time>
      </trkpt>
      <trkpt lat="40.87319" lon="-0.36962">
        <ele>834.107</ele>
        <time>2021-07-21T12:11:41Z</time>
      </trkpt>
      <trkpt lat="40.87369" lon="-0.36813">
        <ele>821.0422</ele>
        <time>2021-07-21T12:11:52Z</time>
      </trkpt>
      <trkpt lat="40.87435" lon="-0.36721">
        <ele>799.0138</ele>
        <time>2021-07-21T12:12:03Z</time>
      </trkpt>
      <trkpt lat="40.87445" lon="-0.36578">
        <ele>794.3287</ele>
        <time>2021-07-21T12:12:14Z</time>
      </trkpt>
      <trkpt lat="40.87438" lon="-0.36406">
        <ele>794.9478</ele>
        <time>2021-07-21T12:12:25Z</time>
      </trkpt>
      <trkpt lat="40.87473" lon="-0.36267">
        <ele>798.097</ele>
        <time>2021-07-21T12:12:36Z</time>
      </trkpt>
      <trkpt lat="40.87531" lon="-0.3618">
        <ele>803.596</ele>
        <time>2021-07-21T12:12:47Z</time>
      </trkpt>
      <trkpt lat="40.87565" lon="-0.36128">
        <ele>801.4295</ele>
        <time>2021-07-21T12:12:58Z</time>
      </trkpt>
      <trkpt lat="40.87659" lon="-0.36095">
        <ele>797.5321</ele>
        <time>2021-07-21T12:13:09Z</time>
      </trkpt>
      <trkpt lat="40.8777" lon="-0.36014">
        <ele>787.4945</ele>
        <time>2021-07-21T12:13:20Z</time>
      </trkpt>
      <trkpt lat="40.87889" lon="-0.35857">
        <ele>778.8977</ele>
        <time>2021-07-21T12:13:31Z</time>
      </trkpt>
      <trkpt lat="40.87995" lon="-0.3571">
        <ele>766.772</ele>
        <time>2021-07-21T12:13:42Z</time>
      </trkpt>
      <trkpt lat="40.88101" lon="-0.35609">
        <ele>749.9757</ele>
        <time>2021-07-21T12:13:53Z</time>
      </trkpt>
      <trkpt lat="40.88212" lon="-0.35634">
        <ele>738.9451</ele>
        <time>2021-07-21T12:14:04Z</time>
      </trkpt>
      <trkpt lat="40.88299" lon="-0.35721">
        <ele>728.6583</ele>
        <time>2021-07-21T12:14:15Z</time>
      </trkpt>
      <trkpt lat="40.88366" lon="-0.35924">
        <ele>711.9516</ele>
        <time>2021-07-21T12:14:26Z</time>
      </trkpt>
      <trkpt lat="40.88401" lon="-0.36019">
        <ele>703.1877</ele>
        <time>2021-07-21T12:14:37Z</time>
      </trkpt>
      <trkpt lat="40.88504" lon="-0.36032">
        <ele>705.6053</ele>
        <time>2021-07-21T12:14:48Z</time>
      </trkpt>
      <trkpt lat="40.88624" lon="-0.36032">
        <ele>710.094</ele>
        <time>2021-07-21T12:14:59Z</time>
      </trkpt>
      <trkpt lat="40.88668" lon="-0.3615">
        <ele>705.2311</ele>
        <time>2021-07-21T12:15:10Z</time>
      </trkpt>
      <trkpt lat="40.8868" lon="-0.36076">
        <ele>696.5558</ele>
        <time>2021-07-21T12:15:21Z</time>
      </trkpt>
      <trkpt lat="40.88697" lon="-0.35931">
        <ele>680.2015</ele>
        <time>2021-07-21T12:15:32Z</time>
      </trkpt>
      <trkpt lat="40.88721" lon="-0.3584">
        <ele>661.0486</ele>
        <time>2021-07-21T12:15:43Z</time>
      </trkpt>
      <trkpt lat="40.88714" lon="-0.35733">
        <ele>656.4917</ele>
        <time>2021-07-21T12:15:54Z</time>
      </trkpt>
      <trkpt lat="40.88727" lon="-0.35613">
        <ele>669.9049</ele>
        <time>2021-07-21T12:16:05Z</time>
      </trkpt>
      <trkpt lat="40.88735" lon="-0.35448">
        <ele>679.192</ele>
        <time>2021-07-21T12:16:16Z</time>
      </trkpt>
      <trkpt lat="40.88692" lon="-0.35285">
        <ele>693.9034</ele>
        <time>2021-07-21T12:16:27Z</time>
      </trkpt>
      <trkpt lat="40.88645" lon="-0.35092">
        <ele>699.1737</ele>
        <time>2021-07-21T12:16:38Z</time>
      </trkpt>
      <trkpt lat="40.8856" lon="-0.34987">
        <ele>709.2784</ele>
        <time>2021-07-21T12:16:49Z</time>
      </trkpt>
      <trkpt lat="40.88519" lon="-0.34816">
        <ele>702.3732</ele>
        <time>2021-07-21T12:17:00Z</time>
      </trkpt>
      <trkpt lat="40.88564" lon="-0.34721">
        <ele>717.9056</ele>
        <time>2021-07-21T12:17:11Z</time>
      </trkpt>
      <trkpt lat="40.88639" lon="-0.3484">
        <ele>721.8088</ele>
        <time>2021-07-21T12:17:22Z</time>
      </trkpt>
      <trkpt lat="40.8873" lon="-0.3494">
        <ele>714.3561</ele>
        <time>2021-07-21T12:17:33Z</time>
      </trkpt>
      <trkpt lat="40.88867" lon="-0.35029">
        <ele>714.5907</ele>
        <time>2021-07-21T12:17:44Z</time>
      </trkpt>
      <trkpt lat="40.88979" lon="-0.35068">
        <ele>712.1653</ele>
        <time>2021-07-21T12:17:55Z</time>
      </trkpt>
      <trkpt lat="40.89083" lon="-0.35092">
        <ele>705.0284</ele>
        <time>2021-07-21T12:18:06Z</time>
      </trkpt>
      <trkpt lat="40.8916" lon="-0.35031">
        <ele>691.2797</ele>
        <time>2021-07-21T12:18:17Z</time>
      </trkpt>
      <trkpt lat="40.89254" lon="-0.35094">
        <ele>675.3269</ele>
        <time>2021-07-21T12:18:28Z</time>
      </trkpt>
      <trkpt lat="40.89291" lon="-0.3502">
        <ele>666.8611</ele>
        <time>2021-07-21T12:18:39Z</time>
      </trkpt>
      <trkpt lat="40.89364" lon="-0.35045">
        <ele>668.0026</ele>
        <time>2021-07-21T12:18:50Z</time>
      </trkpt>
      <trkpt lat="40.89416" lon="-0.35001">
        <ele>665.5157</ele>
        <time>2021-07-21T12:19:01Z</time>
      </trkpt>
      <trkpt lat="40.89517" lon="-0.34995">
        <ele>640.1892</ele>
        <time>2021-07-21T12:19:12Z</time>
      </trkpt>
      <trkpt lat="40.89628" lon="-0.34959">
        <ele>565.8356</ele>
        <time>2021-07-21T12:19:23Z</time>
      </trkpt>
      <trkpt lat="40.89676" lon="-0.34939">
        <ele>644.5508</ele>
        <time>2021-07-21T12:19:34Z</time>
      </trkpt>
      <trkpt lat="40.89698" lon="-0.34984">
        <ele>644.4303</ele>
        <time>2021-07-21T12:19:45Z</time>
      </trkpt>
      <trkpt lat="40.89745" lon="-0.35146">
        <ele>640.9207</ele>
        <time>2021-07-21T12:19:56Z</time>
      </trkpt>
      <trkpt lat="40.89766" lon="-0.35093">
        <ele>637.4992</ele>
        <time>2021-07-21T12:20:07Z</time>
      </trkpt>
      <trkpt lat="40.89751" lon="-0.34933">
        <ele>634.677</ele>
        <time>2021-07-21T12:20:18Z</time>
      </trkpt>
      <trkpt lat="40.89795" lon="-0.34783">
        <ele>630.0508</ele>
        <time>2021-07-21T12:20:29Z</time>
      </trkpt>
      <trkpt lat="40.89844" lon="-0.34645">
        <ele>629.3102</ele>
        <time>2021-07-21T12:20:40Z</time>
      </trkpt>
      <trkpt lat="40.89936" lon="-0.34464">
        <ele>627.9083</ele>
        <time>2021-07-21T12:20:51Z</time>
      </trkpt>
      <trkpt lat="40.89955" lon="-0.34303">
        <ele>623.0804</ele>
        <time>2021-07-21T12:21:02Z</time>
      </trkpt>
      <trkpt lat="40.90005" lon="-0.34148">
        <ele>615.8081</ele>
        <time>2021-07-21T12:21:13Z</time>
      </trkpt>
      <trkpt lat="40.90049" lon="-0.34015">
        <ele>611.2865</ele>
        <time>2021-07-21T12:21:24Z</time>
      </trkpt>
      <trkpt lat="40.90123" lon="-0.33911">
        <ele>605.2754</ele>
        <time>2021-07-21T12:21:35Z</time>
      </trkpt>
      <trkpt lat="40.90182" lon="-0.33817">
        <ele>602.3106</ele>
        <time>2021-07-21T12:21:46Z</time>
      </trkpt>
      <trkpt lat="40.9024" lon="-0.33765">
        <ele>599.0695</ele>
        <time>2021-07-21T12:21:57Z</time>
      </trkpt>
      <trkpt lat="40.90278" lon="-0.33689">
        <ele>595.4289</ele>
        <time>2021-07-21T12:22:08Z</time>
      </trkpt>
      <trkpt lat="40.90295" lon="-0.33571">
        <ele>588.0565</ele>
        <time>2021-07-21T12:22:19Z</time>
      </trkpt>
      <trkpt lat="40.90328" lon="-0.33498">
        <ele>587.5682</ele>
        <time>2021-07-21T12:22:30Z</time>
      </trkpt>
      <trkpt lat="40.9032" lon="-0.33409">
        <ele>588.8093</ele>
        <time>2021-07-21T12:22:41Z</time>
      </trkpt>
      <trkpt lat="40.90347" lon="-0.33334">
        <ele>579.052</ele>
        <time>2021-07-21T12:22:52Z</time>
      </trkpt>
      <trkpt lat="40.90383" lon="-0.33256">
        <ele>565.7159</ele>
        <time>2021-07-21T12:23:03Z</time>
      </trkpt>
      <trkpt lat="40.90447" lon="-0.33202">
        <ele>569.9636</ele>
        <time>2021-07-21T12:23:14Z</time>
      </trkpt>
      <trkpt lat="40.90461" lon="-0.33083">
        <ele>569.2349</ele>
        <time>2021-07-21T12:23:25Z</time>
      </trkpt>
      <trkpt lat="40.90478" lon="-0.33025">
        <ele>564.3046</ele>
        <time>2021-07-21T12:23:36Z</time>
      </trkpt>
      <trkpt lat="40.90492" lon="-0.33018">
        <ele>570.329</ele>
        <time>2021-07-21T12:23:47Z</time>
      </trkpt>
      <trkpt lat="40.90587" lon="-0.3302">
        <ele>579.7117</ele>
        <time>2021-07-21T12:23:58Z</time>
      </trkpt>
      <trkpt lat="40.90669" lon="-0.33022">
        <ele>578.0283</ele>
        <time>2021-07-21T12:24:09Z</time>
      </trkpt>
      <trkpt lat="40.90776" lon="-0.32986">
        <ele>575.2294</ele>
        <time>2021-07-21T12:24:20Z</time>
      </trkpt>
      <trkpt lat="40.90896" lon="-0.32913">
        <ele>567.6238</ele>
        <time>2021-07-21T12:24:31Z</time>
      </trkpt>
      <trkpt lat="40.91017" lon="-0.32768">
        <ele>555.3812</ele>
        <time>2021-07-21T12:24:42Z</time>
      </trkpt>
      <trkpt lat="40.90994" lon="-0.3276">
        <ele>553.5055</ele>
        <time>2021-07-21T12:24:53Z</time>
      </trkpt>
      <trkpt lat="40.90958" lon="-0.32695">
        <ele>549.9734</ele>
        <time>2021-07-21T12:25:04Z</time>
      </trkpt>
      <trkpt lat="40.90947" lon="-0.32524">
        <ele>549.7591</ele>
        <time>2021-07-21T12:25:15Z</time>
      </trkpt>
      <trkpt lat="40.90922" lon="-0.32351">
        <ele>540.1886</ele>
        <time>2021-07-21T12:25:26Z</time>
      </trkpt>
      <trkpt lat="40.90885" lon="-0.32188">
        <ele>552.0263</ele>
        <time>2021-07-21T12:25:37Z</time>
      </trkpt>
      <trkpt lat="40.90852" lon="-0.31993">
        <ele>564.3547</ele>
        <time>2021-07-21T12:25:48Z</time>
      </trkpt>
      <trkpt lat="40.90739" lon="-0.31896">
        <ele>578.6581</ele>
        <time>2021-07-21T12:25:59Z</time>
      </trkpt>
      <trkpt lat="40.90672" lon="-0.3177">
        <ele>593.6346</ele>
        <time>2021-07-21T12:26:10Z</time>
      </trkpt>
      <trkpt lat="40.90614" lon="-0.31664">
        <ele>600.0307</ele>
        <time>2021-07-21T12:26:21Z</time>
      </trkpt>
      <trkpt lat="40.90577" lon="-0.31589">
        <ele>610.2622</ele>
        <time>2021-07-21T12:26:32Z</time>
      </trkpt>
      <trkpt lat="40.9056" lon="-0.31433">
        <ele>618.3848</ele>
        <time>2021-07-21T12:26:43Z</time>
      </trkpt>
      <trkpt lat="40.90612" lon="-0.31326">
        <ele>619.8986</ele>
        <time>2021-07-21T12:26:54Z</time>
      </trkpt>
      <trkpt lat="40.90689" lon="-0.31166">
        <ele>620.9207</ele>
        <time>2021-07-21T12:27:05Z</time>
      </trkpt>
      <trkpt lat="40.90726" lon="-0.31035">
        <ele>596.9985</ele>
        <time>2021-07-21T12:27:16Z</time>
      </trkpt>
      <trkpt lat="40.90794" lon="-0.30889">
        <ele>587.3501</ele>
        <time>2021-07-21T12:27:27Z</time>
      </trkpt>
      <trkpt lat="40.90878" lon="-0.30717">
        <ele>584.1409</ele>
        <time>2021-07-21T12:27:38Z</time>
      </trkpt>
      <trkpt lat="40.90951" lon="-0.30543">
        <ele>577.1953</ele>
        <time>2021-07-21T12:27:49Z</time>
      </trkpt>
      <trkpt lat="40.90952" lon="-0.30438">
        <ele>586.4873</ele>
        <time>2021-07-21T12:28:00Z</time>
      </trkpt>
      <trkpt lat="40.90878" lon="-0.30366">
        <ele>596.9478</ele>
        <time>2021-07-21T12:28:11Z</time>
      </trkpt>
      <trkpt lat="40.90941" lon="-0.30298">
        <ele>604.4681</ele>
        <time>2021-07-21T12:28:22Z</time>
      </trkpt>
      <trkpt lat="40.91055" lon="-0.30249">
        <ele>605.5572</ele>
        <time>2021-07-21T12:28:33Z</time>
      </trkpt>
      <trkpt lat="40.91137" lon="-0.30135">
        <ele>598.3429</ele>
        <time>2021-07-21T12:28:44Z</time>
      </trkpt>
      <trkpt lat="40.911" lon="-0.3003">
        <ele>598.0882</ele>
        <time>2021-07-21T12:28:55Z</time>
      </trkpt>
      <trkpt lat="40.9119" lon="-0.2997">
        <ele>597.0645</ele>
        <time>2021-07-21T12:29:06Z</time>
      </trkpt>
      <trkpt lat="40.91225" lon="-0.29835">
        <ele>590.8144</ele>
        <time>2021-07-21T12:29:17Z</time>
      </trkpt>
      <trkpt lat="40.91264" lon="-0.29615">
        <ele>588.8967</ele>
        <time>2021-07-21T12:29:28Z</time>
      </trkpt>
      <trkpt lat="40.91263" lon="-0.29463">
        <ele>590.8009</ele>
        <time>2021-07-21T12:29:39Z</time>
      </trkpt>
      <trkpt lat="40.91345" lon="-0.29357">
        <ele>595.9651</ele>
        <time>2021-07-21T12:29:50Z</time>
      </trkpt>
      <trkpt lat="40.91398" lon="-0.292">
        <ele>604.1277</ele>
        <time>2021-07-21T12:30:01Z</time>
      </trkpt>
      <trkpt lat="40.91419" lon="-0.29048">
        <ele>606.9314</ele>
        <time>2021-07-21T12:30:12Z</time>
      </trkpt>
      <trkpt lat="40.91387" lon="-0.28913">
        <ele>605.2095</ele>
        <time>2021-07-21T12:30:23Z</time>
      </trkpt>
      <trkpt lat="40.91402" lon="-0.28773">
        <ele>601.1298</ele>
        <time>2021-07-21T12:30:34Z</time>
      </trkpt>
      <trkpt lat="40.91407" lon="-0.28652">
        <ele>598.9713</ele>
        <time>2021-07-21T12:30:45Z</time>
      </trkpt>
      <trkpt lat="40.91405" lon="-0.28639">
        <ele>604.3504</ele>
        <time>2021-07-21T12:30:56Z</time>
      </trkpt>
      <trkpt lat="40.91418" lon="-0.28552">
        <ele>603.9082</ele>
        <time>2021-07-21T12:31:07Z</time>
      </trkpt>
      <trkpt lat="40.91404" lon="-0.28429">
        <ele>589.2604</ele>
        <time>2021-07-21T12:31:18Z</time>
      </trkpt>
      <trkpt lat="40.91416" lon="-0.28332">
        <ele>573.9956</ele>
        <time>2021-07-21T12:31:29Z</time>
      </trkpt>
      <trkpt lat="40.91447" lon="-0.28253">
        <ele>559.4438</ele>
        <time>2021-07-21T12:31:40Z</time>
      </trkpt>
      <trkpt lat="40.91506" lon="-0.2814">
        <ele>548.0259</ele>
        <time>2021-07-21T12:31:51Z</time>
      </trkpt>
      <trkpt lat="40.91576" lon="-0.2813">
        <ele>551.2575</ele>
        <time>2021-07-21T12:32:02Z</time>
      </trkpt>
      <trkpt lat="40.91648" lon="-0.28117">
        <ele>544.6241</ele>
        <time>2021-07-21T12:32:13Z</time>
      </trkpt>
      <trkpt lat="40.91691" lon="-0.28024">
        <ele>535.4366</ele>
        <time>2021-07-21T12:32:24Z</time>
      </trkpt>
      <trkpt lat="40.91735" lon="-0.27955">
        <ele>532.5696</ele>
        <time>2021-07-21T12:32:35Z</time>
      </trkpt>
      <trkpt lat="40.91781" lon="-0.27845">
        <ele>525.1832</ele>
        <time>2021-07-21T12:32:46Z</time>
      </trkpt>
      <trkpt lat="40.91846" lon="-0.27755">
        <ele>520.0513</ele>
        <time>2021-07-21T12:32:57Z</time>
      </trkpt>
      <trkpt lat="40.91929" lon="-0.27661">
        <ele>505.2916</ele>
        <time>2021-07-21T12:33:08Z</time>
      </trkpt>
      <trkpt lat="40.91978" lon="-0.27542">
        <ele>500.8316</ele>
        <time>2021-07-21T12:33:19Z</time>
      </trkpt>
      <trkpt lat="40.9195" lon="-0.27368">
        <ele>502.4685</ele>
        <time>2021-07-21T12:33:30Z</time>
      </trkpt>
      <trkpt lat="40.91954" lon="-0.27206">
        <ele>498.625</ele>
        <time>2021-07-21T12:33:41Z</time>
      </trkpt>
      <trkpt lat="40.91965" lon="-0.27043">
        <ele>497.8631</ele>
        <time>2021-07-21T12:33:52Z</time>
      </trkpt>
      <trkpt lat="40.91937" lon="-0.26884">
        <ele>501.8403</ele>
        <time>2021-07-21T12:34:03Z</time>
      </trkpt>
      <trkpt lat="40.91919" lon="-0.26758">
        <ele>504.3035</ele>
        <time>2021-07-21T12:34:14Z</time>
      </trkpt>
      <trkpt lat="40.91974" lon="-0.26671">
        <ele>502.907</ele>
        <time>2021-07-21T12:34:25Z</time>
      </trkpt>
      <trkpt lat="40.92064" lon="-0.26616">
        <ele>504.5307</ele>
        <time>2021-07-21T12:34:36Z</time>
      </trkpt>
      <trkpt lat="40.92126" lon="-0.26594">
        <ele>499.3967</ele>
        <time>2021-07-21T12:34:47Z</time>
      </trkpt>
      <trkpt lat="40.92116" lon="-0.26525">
        <ele>495.678</ele>
        <time>2021-07-21T12:34:58Z</time>
      </trkpt>
      <trkpt lat="40.92111" lon="-0.26455">
        <ele>498.3696</ele>
        <time>2021-07-21T12:35:09Z</time>
      </trkpt>
      <trkpt lat="40.92142" lon="-0.26493">
        <ele>500.035</ele>
        <time>2021-07-21T12:35:20Z</time>
      </trkpt>
      <trkpt lat="40.9217" lon="-0.26533">
        <ele>502.4725</ele>
        <time>2021-07-21T12:35:31Z</time>
      </trkpt>
      <trkpt lat="40.92168" lon="-0.26528">
        <ele>497.1019</ele>
        <time>2021-07-21T12:36:01Z</time>
      </trkpt>
      <trkpt lat="40.92169" lon="-0.26528">
        <ele>497.36</ele>
        <time>2021-07-21T12:37:00Z</time>
      </trkpt>
      <trkpt lat="40.92169" lon="-0.2653">
        <ele>495.8448</ele>
        <time>2021-07-21T12:37:59Z</time>
      </trkpt>
      <trkpt lat="40.92172" lon="-0.26528">
        <ele>495.3903</ele>
        <time>2021-07-21T12:38:42Z</time>
      </trkpt>
      <trkpt lat="40.9217" lon="-0.26532">
        <ele>497.7496</ele>
        <time>2021-07-21T12:39:33Z</time>
      </trkpt>
      <trkpt lat="40.92171" lon="-0.2653">
        <ele>497.8497</ele>
        <time>2021-07-21T12:40:33Z</time>
      </trkpt>
      <trkpt lat="40.9217" lon="-0.26529">
        <ele>498.0166</ele>
        <time>2021-07-21T12:41:33Z</time>
      </trkpt>
      <trkpt lat="40.92167" lon="-0.26532">
        <ele>498.2715</ele>
        <time>2021-07-21T12:42:28Z</time>
      </trkpt>
      <trkpt lat="40.92164" lon="-0.26535">
        <ele>498.2938</ele>
        <time>2021-07-21T12:42:52Z</time>
      </trkpt>
      <trkpt lat="40.92167" lon="-0.26532">
        <ele>497.6822</ele>
        <time>2021-07-21T12:43:40Z</time>
      </trkpt>
      <trkpt lat="40.92171" lon="-0.2653">
        <ele>498.3605</ele>
        <time>2021-07-21T12:43:53Z</time>
      </trkpt>
      <trkpt lat="40.92177" lon="-0.26527">
        <ele>498.1947</ele>
        <time>2021-07-21T12:44:04Z</time>
      </trkpt>
      <trkpt lat="40.92173" lon="-0.26528">
        <ele>499.2064</ele>
        <time>2021-07-21T12:44:47Z</time>
      </trkpt>
      <trkpt lat="40.92172" lon="-0.26533">
        <ele>497.2447</ele>
        <time>2021-07-21T12:45:02Z</time>
      </trkpt>
      <trkpt lat="40.92192" lon="-0.26564">
        <ele>495.7454</ele>
        <time>2021-07-21T12:45:13Z</time>
      </trkpt>
      <trkpt lat="40.92202" lon="-0.26622">
        <ele>493.163</ele>
        <time>2021-07-21T12:45:24Z</time>
      </trkpt>
      <trkpt lat="40.92201" lon="-0.26668">
        <ele>492.5475</ele>
        <time>2021-07-21T12:45:35Z</time>
      </trkpt>
      <trkpt lat="40.92163" lon="-0.26716">
        <ele>493.2487</ele>
        <time>2021-07-21T12:45:46Z</time>
      </trkpt>
      <trkpt lat="40.92254" lon="-0.26863">
        <ele>483.5889</ele>
        <time>2021-07-21T12:45:57Z</time>
      </trkpt>
      <trkpt lat="40.9236" lon="-0.26864">
        <ele>478.1948</ele>
        <time>2021-07-21T12:46:09Z</time>
      </trkpt>
      <trkpt lat="40.92431" lon="-0.26876">
        <ele>485.6434</ele>
        <time>2021-07-21T12:46:20Z</time>
      </trkpt>
      <trkpt lat="40.92527" lon="-0.26894">
        <ele>476.6704</ele>
        <time>2021-07-21T12:46:31Z</time>
      </trkpt>
      <trkpt lat="40.92619" lon="-0.26929">
        <ele>476.67</ele>
        <time>2021-07-21T12:46:42Z</time>
      </trkpt>
      <trkpt lat="40.92677" lon="-0.26805">
        <ele>483.8662</ele>
        <time>2021-07-21T12:46:53Z</time>
      </trkpt>
      <trkpt lat="40.92746" lon="-0.26711">
        <ele>483.2231</ele>
        <time>2021-07-21T12:47:04Z</time>
      </trkpt>
      <trkpt lat="40.92798" lon="-0.26603">
        <ele>486.8436</ele>
        <time>2021-07-21T12:47:15Z</time>
      </trkpt>
      <trkpt lat="40.92886" lon="-0.26519">
        <ele>480.2533</ele>
        <time>2021-07-21T12:47:26Z</time>
      </trkpt>
      <trkpt lat="40.93002" lon="-0.26446">
        <ele>473.3766</ele>
        <time>2021-07-21T12:47:37Z</time>
      </trkpt>
      <trkpt lat="40.93089" lon="-0.26339">
        <ele>467.8666</ele>
        <time>2021-07-21T12:47:48Z</time>
      </trkpt>
      <trkpt lat="40.93148" lon="-0.26201">
        <ele>461.6102</ele>
        <time>2021-07-21T12:47:59Z</time>
      </trkpt>
      <trkpt lat="40.9317" lon="-0.26081">
        <ele>459.1771</ele>
        <time>2021-07-21T12:48:10Z</time>
      </trkpt>
      <trkpt lat="40.93244" lon="-0.25972">
        <ele>459.6368</ele>
        <time>2021-07-21T12:48:21Z</time>
      </trkpt>
      <trkpt lat="40.93234" lon="-0.2577">
        <ele>465.9956</ele>
        <time>2021-07-21T12:48:32Z</time>
      </trkpt>
      <trkpt lat="40.93215" lon="-0.25578">
        <ele>461.4568</ele>
        <time>2021-07-21T12:48:43Z</time>
      </trkpt>
      <trkpt lat="40.9319" lon="-0.25388">
        <ele>459.9849</ele>
        <time>2021-07-21T12:48:54Z</time>
      </trkpt>
      <trkpt lat="40.93173" lon="-0.25187">
        <ele>459.8477</ele>
        <time>2021-07-21T12:49:05Z</time>
      </trkpt>
      <trkpt lat="40.93172" lon="-0.25026">
        <ele>456.6131</ele>
        <time>2021-07-21T12:49:16Z</time>
      </trkpt>
      <trkpt lat="40.93251" lon="-0.24919">
        <ele>456.0543</ele>
        <time>2021-07-21T12:49:27Z</time>
      </trkpt>
      <trkpt lat="40.93352" lon="-0.25">
        <ele>460.3535</ele>
        <time>2021-07-21T12:49:38Z</time>
      </trkpt>
      <trkpt lat="40.9347" lon="-0.25042">
        <ele>455.908</ele>
        <time>2021-07-21T12:49:49Z</time>
      </trkpt>
      <trkpt lat="40.93587" lon="-0.24944">
        <ele>461.7449</ele>
        <time>2021-07-21T12:50:00Z</time>
      </trkpt>
      <trkpt lat="40.93649" lon="-0.2478">
        <ele>461.9992</ele>
        <time>2021-07-21T12:50:11Z</time>
      </trkpt>
      <trkpt lat="40.93723" lon="-0.246">
        <ele>461.5996</ele>
        <time>2021-07-21T12:50:22Z</time>
      </trkpt>
      <trkpt lat="40.93799" lon="-0.24423">
        <ele>447.1233</ele>
        <time>2021-07-21T12:50:33Z</time>
      </trkpt>
      <trkpt lat="40.93839" lon="-0.24327">
        <ele>453.6804</ele>
        <time>2021-07-21T12:50:44Z</time>
      </trkpt>
      <trkpt lat="40.9391" lon="-0.24378">
        <ele>467.3438</ele>
        <time>2021-07-21T12:50:55Z</time>
      </trkpt>
      <trkpt lat="40.94043" lon="-0.24486">
        <ele>473.7579</ele>
        <time>2021-07-21T12:51:06Z</time>
      </trkpt>
      <trkpt lat="40.94156" lon="-0.24588">
        <ele>469.5462</ele>
        <time>2021-07-21T12:51:17Z</time>
      </trkpt>
      <trkpt lat="40.94208" lon="-0.24611">
        <ele>484.1253</ele>
        <time>2021-07-21T12:51:28Z</time>
      </trkpt>
      <trkpt lat="40.94188" lon="-0.24461">
        <ele>486.0141</ele>
        <time>2021-07-21T12:51:39Z</time>
      </trkpt>
      <trkpt lat="40.94099" lon="-0.24196">
        <ele>480.6341</ele>
        <time>2021-07-21T12:51:50Z</time>
      </trkpt>
      <trkpt lat="40.9405" lon="-0.23936">
        <ele>464.1628</ele>
        <time>2021-07-21T12:52:01Z</time>
      </trkpt>
      <trkpt lat="40.94043" lon="-0.23692">
        <ele>456.3819</ele>
        <time>2021-07-21T12:52:12Z</time>
      </trkpt>
      <trkpt lat="40.94094" lon="-0.23528">
        <ele>457.4623</ele>
        <time>2021-07-21T12:52:23Z</time>
      </trkpt>
      <trkpt lat="40.94178" lon="-0.23412">
        <ele>458.5554</ele>
        <time>2021-07-21T12:52:34Z</time>
      </trkpt>
      <trkpt lat="40.94249" lon="-0.23306">
        <ele>462.5145</ele>
        <time>2021-07-21T12:52:45Z</time>
      </trkpt>
      <trkpt lat="40.94265" lon="-0.23286">
        <ele>461.6483</ele>
        <time>2021-07-21T12:52:56Z</time>
      </trkpt>
      <trkpt lat="40.94267" lon="-0.23289">
        <ele>461.7291</ele>
        <time>2021-07-21T12:53:14Z</time>
      </trkpt>
      <trkpt lat="40.94271" lon="-0.23287">
        <ele>460.4113</ele>
        <time>2021-07-21T12:53:28Z</time>
      </trkpt>
      <trkpt lat="40.94274" lon="-0.23285">
        <ele>460.6866</ele>
        <time>2021-07-21T12:53:39Z</time>
      </trkpt>
      <trkpt lat="40.94272" lon="-0.23277">
        <ele>461.306</ele>
        <time>2021-07-21T12:53:50Z</time>
      </trkpt>
      <trkpt lat="40.94268" lon="-0.23283">
        <ele>461.6172</ele>
        <time>2021-07-21T12:54:01Z</time>
      </trkpt>
      <trkpt lat="40.94272" lon="-0.23282">
        <ele>460.5083</ele>
        <time>2021-07-21T12:54:41Z</time>
      </trkpt>
      <trkpt lat="40.94267" lon="-0.23282">
        <ele>461.7449</ele>
        <time>2021-07-21T12:55:35Z</time>
      </trkpt>
      <trkpt lat="40.94266" lon="-0.23286">
        <ele>461.5246</ele>
        <time>2021-07-21T12:56:06Z</time>
      </trkpt>
      <trkpt lat="40.94271" lon="-0.23282">
        <ele>461.744</ele>
        <time>2021-07-21T12:56:17Z</time>
      </trkpt>
      <trkpt lat="40.94312" lon="-0.23232">
        <ele>463.773</ele>
        <time>2021-07-21T12:56:28Z</time>
      </trkpt>
      <trkpt lat="40.94456" lon="-0.23148">
        <ele>462.5982</ele>
        <time>2021-07-21T12:56:39Z</time>
      </trkpt>
      <trkpt lat="40.94604" lon="-0.23079">
        <ele>459.311</ele>
        <time>2021-07-21T12:56:50Z</time>
      </trkpt>
      <trkpt lat="40.94658" lon="-0.23034">
        <ele>457.2209</ele>
        <time>2021-07-21T12:57:01Z</time>
      </trkpt>
      <trkpt lat="40.94677" lon="-0.23024">
        <ele>456.242</ele>
        <time>2021-07-21T12:57:12Z</time>
      </trkpt>
      <trkpt lat="40.94675" lon="-0.23023">
        <ele>456.5426</ele>
        <time>2021-07-21T12:58:12Z</time>
      </trkpt>
      <trkpt lat="40.94675" lon="-0.23023">
        <ele>456.5426</ele>
        <time>2021-07-21T12:59:12Z</time>
      </trkpt>
      <trkpt lat="40.94675" lon="-0.23023">
        <ele>456.5426</ele>
        <time>2021-07-21T13:00:12Z</time>
      </trkpt>
      <trkpt lat="40.94675" lon="-0.23023">
        <ele>456.5426</ele>
        <time>2021-07-21T13:01:12Z</time>
      </trkpt>
      <trkpt lat="40.94675" lon="-0.23023">
        <ele>456.5426</ele>
        <time>2021-07-21T13:02:12Z</time>
      </trkpt>
      <trkpt lat="40.94679" lon="-0.23024">
        <ele>456.0051</ele>
        <time>2021-07-21T13:03:12Z</time>
      </trkpt>
      <trkpt lat="40.94678" lon="-0.23024">
        <ele>456.0883</ele>
        <time>2021-07-21T13:04:12Z</time>
      </trkpt>
      <trkpt lat="40.94677" lon="-0.23026">
        <ele>456.0941</ele>
        <time>2021-07-21T13:05:12Z</time>
      </trkpt>
      <trkpt lat="40.94677" lon="-0.23026">
        <ele>456.0941</ele>
        <time>2021-07-21T13:06:12Z</time>
      </trkpt>
      <trkpt lat="40.94677" lon="-0.23026">
        <ele>456.0941</ele>
        <time>2021-07-21T13:07:12Z</time>
      </trkpt>
      <trkpt lat="40.94677" lon="-0.23026">
        <ele>456.0941</ele>
        <time>2021-07-21T13:08:12Z</time>
      </trkpt>
      <trkpt lat="40.94677" lon="-0.23026">
        <ele>456.0941</ele>
        <time>2021-07-21T13:09:12Z</time>
      </trkpt>
      <trkpt lat="40.94678" lon="-0.23024">
        <ele>456.7294</ele>
        <time>2021-07-21T13:10:12Z</time>
      </trkpt>
      <trkpt lat="40.94678" lon="-0.23025">
        <ele>456.7453</ele>
        <time>2021-07-21T13:11:12Z</time>
      </trkpt>
      <trkpt lat="40.94678" lon="-0.23026">
        <ele>456.3376</ele>
        <time>2021-07-21T13:12:12Z</time>
      </trkpt>
      <trkpt lat="40.94682" lon="-0.23037">
        <ele>458.8435</ele>
        <time>2021-07-21T13:12:23Z</time>
      </trkpt>
      <trkpt lat="40.94664" lon="-0.23055">
        <ele>456.8777</ele>
        <time>2021-07-21T13:12:34Z</time>
      </trkpt>
      <trkpt lat="40.94521" lon="-0.23122">
        <ele>462.3873</ele>
        <time>2021-07-21T13:12:45Z</time>
      </trkpt>
      <trkpt lat="40.94374" lon="-0.23191">
        <ele>462.845</ele>
        <time>2021-07-21T13:12:56Z</time>
      </trkpt>
      <trkpt lat="40.94309" lon="-0.23172">
        <ele>464.2746</ele>
        <time>2021-07-21T13:13:07Z</time>
      </trkpt>
      <trkpt lat="40.94242" lon="-0.23028">
        <ele>465.8351</ele>
        <time>2021-07-21T13:13:18Z</time>
      </trkpt>
      <trkpt lat="40.94155" lon="-0.22841">
        <ele>466.5513</ele>
        <time>2021-07-21T13:13:29Z</time>
      </trkpt>
      <trkpt lat="40.94066" lon="-0.22655">
        <ele>455.7894</ele>
        <time>2021-07-21T13:13:40Z</time>
      </trkpt>
      <trkpt lat="40.93988" lon="-0.22489">
        <ele>447.0435</ele>
        <time>2021-07-21T13:13:51Z</time>
      </trkpt>
      <trkpt lat="40.94011" lon="-0.22346">
        <ele>449.1105</ele>
        <time>2021-07-21T13:14:02Z</time>
      </trkpt>
      <trkpt lat="40.94106" lon="-0.22159">
        <ele>448.4839</ele>
        <time>2021-07-21T13:14:13Z</time>
      </trkpt>
      <trkpt lat="40.94166" lon="-0.21907">
        <ele>443.2567</ele>
        <time>2021-07-21T13:14:24Z</time>
      </trkpt>
      <trkpt lat="40.9416" lon="-0.21605">
        <ele>446.5586</ele>
        <time>2021-07-21T13:14:35Z</time>
      </trkpt>
      <trkpt lat="40.94167" lon="-0.21308">
        <ele>435.6522</ele>
        <time>2021-07-21T13:14:46Z</time>
      </trkpt>
      <trkpt lat="40.94314" lon="-0.21089">
        <ele>430.7479</ele>
        <time>2021-07-21T13:14:57Z</time>
      </trkpt>
      <trkpt lat="40.9448" lon="-0.20882">
        <ele>424.7562</ele>
        <time>2021-07-21T13:15:08Z</time>
      </trkpt>
      <trkpt lat="40.9464" lon="-0.20594">
        <ele>422.5133</ele>
        <time>2021-07-21T13:15:19Z</time>
      </trkpt>
      <trkpt lat="40.94809" lon="-0.20443">
        <ele>421.1101</ele>
        <time>2021-07-21T13:15:30Z</time>
      </trkpt>
      <trkpt lat="40.94965" lon="-0.20229">
        <ele>424.2529</ele>
        <time>2021-07-21T13:15:41Z</time>
      </trkpt>
      <trkpt lat="40.95098" lon="-0.19973">
        <ele>422.7065</ele>
        <time>2021-07-21T13:15:52Z</time>
      </trkpt>
      <trkpt lat="40.95246" lon="-0.19785">
        <ele>416.8829</ele>
        <time>2021-07-21T13:16:03Z</time>
      </trkpt>
      <trkpt lat="40.95359" lon="-0.1952">
        <ele>411.2745</ele>
        <time>2021-07-21T13:16:14Z</time>
      </trkpt>
      <trkpt lat="40.95495" lon="-0.19255">
        <ele>406.7625</ele>
        <time>2021-07-21T13:16:25Z</time>
      </trkpt>
      <trkpt lat="40.95649" lon="-0.18988">
        <ele>406.7685</ele>
        <time>2021-07-21T13:16:36Z</time>
      </trkpt>
      <trkpt lat="40.95738" lon="-0.18747">
        <ele>402.367</ele>
        <time>2021-07-21T13:16:47Z</time>
      </trkpt>
      <trkpt lat="40.95941" lon="-0.18582">
        <ele>395.6486</ele>
        <time>2021-07-21T13:16:58Z</time>
      </trkpt>
      <trkpt lat="40.96103" lon="-0.18344">
        <ele>391.8523</ele>
        <time>2021-07-21T13:17:09Z</time>
      </trkpt>
      <trkpt lat="40.96218" lon="-0.18094">
        <ele>389.2013</ele>
        <time>2021-07-21T13:17:20Z</time>
      </trkpt>
      <trkpt lat="40.96323" lon="-0.17827">
        <ele>380.0191</ele>
        <time>2021-07-21T13:17:31Z</time>
      </trkpt>
      <trkpt lat="40.96499" lon="-0.17741">
        <ele>377.2627</ele>
        <time>2021-07-21T13:17:42Z</time>
      </trkpt>
      <trkpt lat="40.96675" lon="-0.17556">
        <ele>378.1794</ele>
        <time>2021-07-21T13:17:53Z</time>
      </trkpt>
      <trkpt lat="40.9686" lon="-0.17401">
        <ele>376.9274</ele>
        <time>2021-07-21T13:18:04Z</time>
      </trkpt>
      <trkpt lat="40.9699" lon="-0.17212">
        <ele>372.0926</ele>
        <time>2021-07-21T13:18:15Z</time>
      </trkpt>
      <trkpt lat="40.97145" lon="-0.17102">
        <ele>367.7533</ele>
        <time>2021-07-21T13:18:26Z</time>
      </trkpt>
      <trkpt lat="40.97261" lon="-0.17056">
        <ele>363.4413</ele>
        <time>2021-07-21T13:18:37Z</time>
      </trkpt>
      <trkpt lat="40.97368" lon="-0.17033">
        <ele>360.5215</ele>
        <time>2021-07-21T13:18:48Z</time>
      </trkpt>
      <trkpt lat="40.97437" lon="-0.16934">
        <ele>364.5935</ele>
        <time>2021-07-21T13:18:59Z</time>
      </trkpt>
      <trkpt lat="40.97517" lon="-0.16815">
        <ele>366.284</ele>
        <time>2021-07-21T13:19:10Z</time>
      </trkpt>
      <trkpt lat="40.97556" lon="-0.16725">
        <ele>368.529</ele>
        <time>2021-07-21T13:19:21Z</time>
      </trkpt>
      <trkpt lat="40.97596" lon="-0.16459">
        <ele>367.4006</ele>
        <time>2021-07-21T13:19:32Z</time>
      </trkpt>
      <trkpt lat="40.97618" lon="-0.16171">
        <ele>363.0215</ele>
        <time>2021-07-21T13:19:43Z</time>
      </trkpt>
      <trkpt lat="40.97694" lon="-0.15982">
        <ele>367.0178</ele>
        <time>2021-07-21T13:19:54Z</time>
      </trkpt>
      <trkpt lat="40.97821" lon="-0.15769">
        <ele>372.3515</ele>
        <time>2021-07-21T13:20:05Z</time>
      </trkpt>
      <trkpt lat="40.97932" lon="-0.15604">
        <ele>369.1634</ele>
        <time>2021-07-21T13:20:16Z</time>
      </trkpt>
      <trkpt lat="40.98073" lon="-0.15542">
        <ele>364.0317</ele>
        <time>2021-07-21T13:20:27Z</time>
      </trkpt>
      <trkpt lat="40.98032" lon="-0.15425">
        <ele>359.7526</ele>
        <time>2021-07-21T13:20:38Z</time>
      </trkpt>
      <trkpt lat="40.97925" lon="-0.1517">
        <ele>355.6516</ele>
        <time>2021-07-21T13:20:49Z</time>
      </trkpt>
      <trkpt lat="40.97803" lon="-0.14887">
        <ele>363.6837</ele>
        <time>2021-07-21T13:21:00Z</time>
      </trkpt>
      <trkpt lat="40.97666" lon="-0.146">
        <ele>384.0781</ele>
        <time>2021-07-21T13:21:11Z</time>
      </trkpt>
      <trkpt lat="40.97685" lon="-0.14365">
        <ele>383.7954</ele>
        <time>2021-07-21T13:21:22Z</time>
      </trkpt>
      <trkpt lat="40.97745" lon="-0.14248">
        <ele>382.2898</ele>
        <time>2021-07-21T13:21:33Z</time>
      </trkpt>
      <trkpt lat="40.97815" lon="-0.14216">
        <ele>379.8321</ele>
        <time>2021-07-21T13:21:44Z</time>
      </trkpt>
      <trkpt lat="40.98007" lon="-0.14246">
        <ele>376.2743</ele>
        <time>2021-07-21T13:21:55Z</time>
      </trkpt>
      <trkpt lat="40.9821" lon="-0.14121">
        <ele>364.3123</ele>
        <time>2021-07-21T13:22:06Z</time>
      </trkpt>
      <trkpt lat="40.98361" lon="-0.1401">
        <ele>359.9811</ele>
        <time>2021-07-21T13:22:17Z</time>
      </trkpt>
      <trkpt lat="40.98423" lon="-0.13896">
        <ele>361.9082</ele>
        <time>2021-07-21T13:22:28Z</time>
      </trkpt>
      <trkpt lat="40.98444" lon="-0.13789">
        <ele>364.7855</ele>
        <time>2021-07-21T13:22:39Z</time>
      </trkpt>
      <trkpt lat="40.98414" lon="-0.13664">
        <ele>365.2821</ele>
        <time>2021-07-21T13:22:50Z</time>
      </trkpt>
      <trkpt lat="40.98336" lon="-0.13545">
        <ele>364.4404</ele>
        <time>2021-07-21T13:23:01Z</time>
      </trkpt>
      <trkpt lat="40.98305" lon="-0.13385">
        <ele>366.5577</ele>
        <time>2021-07-21T13:23:12Z</time>
      </trkpt>
      <trkpt lat="40.98327" lon="-0.13168">
        <ele>379.5489</ele>
        <time>2021-07-21T13:23:23Z</time>
      </trkpt>
      <trkpt lat="40.98314" lon="-0.13036">
        <ele>385.0427</ele>
        <time>2021-07-21T13:23:34Z</time>
      </trkpt>
      <trkpt lat="40.98313" lon="-0.12862">
        <ele>392.1344</ele>
        <time>2021-07-21T13:23:45Z</time>
      </trkpt>
      <trkpt lat="40.98302" lon="-0.12714">
        <ele>390.4353</ele>
        <time>2021-07-21T13:23:56Z</time>
      </trkpt>
      <trkpt lat="40.98289" lon="-0.12542">
        <ele>391.0229</ele>
        <time>2021-07-21T13:24:07Z</time>
      </trkpt>
      <trkpt lat="40.98206" lon="-0.12387">
        <ele>395.7627</ele>
        <time>2021-07-21T13:24:18Z</time>
      </trkpt>
      <trkpt lat="40.9817" lon="-0.12204">
        <ele>399.5896</ele>
        <time>2021-07-21T13:24:29Z</time>
      </trkpt>
      <trkpt lat="40.98109" lon="-0.12029">
        <ele>397.1266</ele>
        <time>2021-07-21T13:24:40Z</time>
      </trkpt>
      <trkpt lat="40.98058" lon="-0.11853">
        <ele>396.4129</ele>
        <time>2021-07-21T13:24:51Z</time>
      </trkpt>
      <trkpt lat="40.98006" lon="-0.11696">
        <ele>396.9888</ele>
        <time>2021-07-21T13:25:02Z</time>
      </trkpt>
      <trkpt lat="40.97987" lon="-0.11521">
        <ele>403.0084</ele>
        <time>2021-07-21T13:25:13Z</time>
      </trkpt>
      <trkpt lat="40.98053" lon="-0.11447">
        <ele>409.2585</ele>
        <time>2021-07-21T13:25:24Z</time>
      </trkpt>
      <trkpt lat="40.98065" lon="-0.11335">
        <ele>412.2667</ele>
        <time>2021-07-21T13:25:35Z</time>
      </trkpt>
      <trkpt lat="40.98033" lon="-0.11226">
        <ele>422.8548</ele>
        <time>2021-07-21T13:25:46Z</time>
      </trkpt>
      <trkpt lat="40.98058" lon="-0.11094">
        <ele>426.8646</ele>
        <time>2021-07-21T13:25:57Z</time>
      </trkpt>
      <trkpt lat="40.98048" lon="-0.11025">
        <ele>427.6207</ele>
        <time>2021-07-21T13:26:08Z</time>
      </trkpt>
      <trkpt lat="40.97967" lon="-0.10941">
        <ele>421.0635</ele>
        <time>2021-07-21T13:26:19Z</time>
      </trkpt>
      <trkpt lat="40.97886" lon="-0.10862">
        <ele>414.1984</ele>
        <time>2021-07-21T13:26:30Z</time>
      </trkpt>
      <trkpt lat="40.97796" lon="-0.10834">
        <ele>407.8809</ele>
        <time>2021-07-21T13:26:41Z</time>
      </trkpt>
      <trkpt lat="40.97789" lon="-0.10696">
        <ele>406.9538</ele>
        <time>2021-07-21T13:26:52Z</time>
      </trkpt>
      <trkpt lat="40.9776" lon="-0.1062">
        <ele>407.7776</ele>
        <time>2021-07-21T13:27:03Z</time>
      </trkpt>
      <trkpt lat="40.97683" lon="-0.10576">
        <ele>416.3542</ele>
        <time>2021-07-21T13:27:14Z</time>
      </trkpt>
      <trkpt lat="40.97587" lon="-0.10491">
        <ele>424.5419</ele>
        <time>2021-07-21T13:27:25Z</time>
      </trkpt>
      <trkpt lat="40.97464" lon="-0.10396">
        <ele>429.4272</ele>
        <time>2021-07-21T13:27:36Z</time>
      </trkpt>
      <trkpt lat="40.9736" lon="-0.10314">
        <ele>441.6376</ele>
        <time>2021-07-21T13:27:47Z</time>
      </trkpt>
      <trkpt lat="40.9725" lon="-0.10253">
        <ele>443.7182</ele>
        <time>2021-07-21T13:27:58Z</time>
      </trkpt>
      <trkpt lat="40.97181" lon="-0.10154">
        <ele>447.3289</ele>
        <time>2021-07-21T13:28:09Z</time>
      </trkpt>
      <trkpt lat="40.97084" lon="-0.10096">
        <ele>446.4193</ele>
        <time>2021-07-21T13:28:20Z</time>
      </trkpt>
      <trkpt lat="40.97006" lon="-0.10066">
        <ele>447.5811</ele>
        <time>2021-07-21T13:28:31Z</time>
      </trkpt>
      <trkpt lat="40.96957" lon="-0.0995">
        <ele>452.5495</ele>
        <time>2021-07-21T13:28:42Z</time>
      </trkpt>
      <trkpt lat="40.96907" lon="-0.0978">
        <ele>455.3653</ele>
        <time>2021-07-21T13:28:53Z</time>
      </trkpt>
      <trkpt lat="40.96792" lon="-0.09714">
        <ele>460.5052</ele>
        <time>2021-07-21T13:29:04Z</time>
      </trkpt>
      <trkpt lat="40.96746" lon="-0.09624">
        <ele>462.898</ele>
        <time>2021-07-21T13:29:15Z</time>
      </trkpt>
      <trkpt lat="40.96673" lon="-0.09622">
        <ele>469.9876</ele>
        <time>2021-07-21T13:29:26Z</time>
      </trkpt>
      <trkpt lat="40.96586" lon="-0.09532">
        <ele>477.4462</ele>
        <time>2021-07-21T13:29:37Z</time>
      </trkpt>
      <trkpt lat="40.96507" lon="-0.09463">
        <ele>470.9105</ele>
        <time>2021-07-21T13:29:48Z</time>
      </trkpt>
      <trkpt lat="40.96408" lon="-0.0943">
        <ele>467.9279</ele>
        <time>2021-07-21T13:29:59Z</time>
      </trkpt>
      <trkpt lat="40.96357" lon="-0.09388">
        <ele>465.2625</ele>
        <time>2021-07-21T13:30:10Z</time>
      </trkpt>
      <trkpt lat="40.96346" lon="-0.09347">
        <ele>464.5737</ele>
        <time>2021-07-21T13:30:21Z</time>
      </trkpt>
      <trkpt lat="40.96349" lon="-0.09345">
        <ele>464.0383</ele>
        <time>2021-07-21T13:30:39Z</time>
      </trkpt>
      <trkpt lat="40.96345" lon="-0.09336">
        <ele>460.0007</ele>
        <time>2021-07-21T13:31:06Z</time>
      </trkpt>
      <trkpt lat="40.96316" lon="-0.09223">
        <ele>456.1431</ele>
        <time>2021-07-21T13:31:17Z</time>
      </trkpt>
      <trkpt lat="40.96282" lon="-0.09176">
        <ele>451.7402</ele>
        <time>2021-07-21T13:31:28Z</time>
      </trkpt>
      <trkpt lat="40.96179" lon="-0.09143">
        <ele>445.283</ele>
        <time>2021-07-21T13:31:39Z</time>
      </trkpt>
      <trkpt lat="40.96081" lon="-0.09165">
        <ele>442.2505</ele>
        <time>2021-07-21T13:31:50Z</time>
      </trkpt>
      <trkpt lat="40.95971" lon="-0.09298">
        <ele>441.3956</ele>
        <time>2021-07-21T13:32:01Z</time>
      </trkpt>
      <trkpt lat="40.95841" lon="-0.09223">
        <ele>434.2907</ele>
        <time>2021-07-21T13:32:12Z</time>
      </trkpt>
      <trkpt lat="40.9569" lon="-0.09131">
        <ele>434.6516</ele>
        <time>2021-07-21T13:32:23Z</time>
      </trkpt>
      <trkpt lat="40.95464" lon="-0.08949">
        <ele>443.8289</ele>
        <time>2021-07-21T13:32:34Z</time>
      </trkpt>
      <trkpt lat="40.95247" lon="-0.08783">
        <ele>448.0921</ele>
        <time>2021-07-21T13:32:45Z</time>
      </trkpt>
      <trkpt lat="40.94986" lon="-0.08735">
        <ele>450.1511</ele>
        <time>2021-07-21T13:32:56Z</time>
      </trkpt>
      <trkpt lat="40.94723" lon="-0.08704">
        <ele>456.4116</ele>
        <time>2021-07-21T13:33:07Z</time>
      </trkpt>
      <trkpt lat="40.94469" lon="-0.08675">
        <ele>469.5789</ele>
        <time>2021-07-21T13:33:18Z</time>
      </trkpt>
      <trkpt lat="40.94211" lon="-0.08646">
        <ele>481.6729</ele>
        <time>2021-07-21T13:33:29Z</time>
      </trkpt>
      <trkpt lat="40.93953" lon="-0.08667">
        <ele>488.4343</ele>
        <time>2021-07-21T13:33:40Z</time>
      </trkpt>
      <trkpt lat="40.93752" lon="-0.08692">
        <ele>481.6073</ele>
        <time>2021-07-21T13:33:51Z</time>
      </trkpt>
      <trkpt lat="40.93648" lon="-0.08658">
        <ele>481.0447</ele>
        <time>2021-07-21T13:34:02Z</time>
      </trkpt>
      <trkpt lat="40.93648" lon="-0.08577">
        <ele>486.6143</ele>
        <time>2021-07-21T13:34:13Z</time>
      </trkpt>
      <trkpt lat="40.9364" lon="-0.08545">
        <ele>488.6259</ele>
        <time>2021-07-21T13:34:24Z</time>
      </trkpt>
      <trkpt lat="40.93628" lon="-0.08505">
        <ele>492.3779</ele>
        <time>2021-07-21T13:34:35Z</time>
      </trkpt>
      <trkpt lat="40.93531" lon="-0.08555">
        <ele>488.1241</ele>
        <time>2021-07-21T13:34:46Z</time>
      </trkpt>
      <trkpt lat="40.9345" lon="-0.08602">
        <ele>491.8996</ele>
        <time>2021-07-21T13:34:57Z</time>
      </trkpt>
      <trkpt lat="40.93432" lon="-0.08581">
        <ele>498.8064</ele>
        <time>2021-07-21T13:35:08Z</time>
      </trkpt>
      <trkpt lat="40.93394" lon="-0.08514">
        <ele>498.6803</ele>
        <time>2021-07-21T13:35:19Z</time>
      </trkpt>
      <trkpt lat="40.93363" lon="-0.08471">
        <ele>501.0722</ele>
        <time>2021-07-21T13:35:30Z</time>
      </trkpt>
      <trkpt lat="40.93394" lon="-0.08442">
        <ele>502.2784</ele>
        <time>2021-07-21T13:35:41Z</time>
      </trkpt>
      <trkpt lat="40.93461" lon="-0.08425">
        <ele>497.1982</ele>
        <time>2021-07-21T13:35:52Z</time>
      </trkpt>
      <trkpt lat="40.93537" lon="-0.08349">
        <ele>495.7649</ele>
        <time>2021-07-21T13:36:03Z</time>
      </trkpt>
      <trkpt lat="40.93609" lon="-0.08228">
        <ele>508.4832</ele>
        <time>2021-07-21T13:36:14Z</time>
      </trkpt>
      <trkpt lat="40.93595" lon="-0.08103">
        <ele>517.3861</ele>
        <time>2021-07-21T13:36:25Z</time>
      </trkpt>
      <trkpt lat="40.93557" lon="-0.0795">
        <ele>526.0375</ele>
        <time>2021-07-21T13:36:36Z</time>
      </trkpt>
      <trkpt lat="40.93559" lon="-0.07812">
        <ele>539.11</ele>
        <time>2021-07-21T13:36:47Z</time>
      </trkpt>
      <trkpt lat="40.93547" lon="-0.07707">
        <ele>548.7141</ele>
        <time>2021-07-21T13:36:58Z</time>
      </trkpt>
      <trkpt lat="40.93501" lon="-0.0762">
        <ele>549.4596</ele>
        <time>2021-07-21T13:37:09Z</time>
      </trkpt>
      <trkpt lat="40.9344" lon="-0.07575">
        <ele>552.99</ele>
        <time>2021-07-21T13:37:20Z</time>
      </trkpt>
      <trkpt lat="40.93374" lon="-0.07465">
        <ele>559.3302</ele>
        <time>2021-07-21T13:37:31Z</time>
      </trkpt>
      <trkpt lat="40.93373" lon="-0.07357">
        <ele>563.778</ele>
        <time>2021-07-21T13:37:42Z</time>
      </trkpt>
      <trkpt lat="40.93331" lon="-0.07241">
        <ele>570.449</ele>
        <time>2021-07-21T13:37:53Z</time>
      </trkpt>
      <trkpt lat="40.93365" lon="-0.07139">
        <ele>572.098</ele>
        <time>2021-07-21T13:38:04Z</time>
      </trkpt>
      <trkpt lat="40.93351" lon="-0.07018">
        <ele>577.8785</ele>
        <time>2021-07-21T13:38:15Z</time>
      </trkpt>
      <trkpt lat="40.93331" lon="-0.06884">
        <ele>584.176</ele>
        <time>2021-07-21T13:38:26Z</time>
      </trkpt>
      <trkpt lat="40.93292" lon="-0.06788">
        <ele>595.6312</ele>
        <time>2021-07-21T13:38:37Z</time>
      </trkpt>
      <trkpt lat="40.93222" lon="-0.06666">
        <ele>602.7185</ele>
        <time>2021-07-21T13:38:48Z</time>
      </trkpt>
      <trkpt lat="40.93155" lon="-0.06572">
        <ele>610.7844</ele>
        <time>2021-07-21T13:38:59Z</time>
      </trkpt>
      <trkpt lat="40.93061" lon="-0.06473">
        <ele>620.7463</ele>
        <time>2021-07-21T13:39:10Z</time>
      </trkpt>
      <trkpt lat="40.92965" lon="-0.06348">
        <ele>635.0597</ele>
        <time>2021-07-21T13:39:21Z</time>
      </trkpt>
      <trkpt lat="40.92951" lon="-0.06236">
        <ele>632.8122</ele>
        <time>2021-07-21T13:39:32Z</time>
      </trkpt>
      <trkpt lat="40.92952" lon="-0.06106">
        <ele>635.3472</ele>
        <time>2021-07-21T13:39:43Z</time>
      </trkpt>
      <trkpt lat="40.9293" lon="-0.0596">
        <ele>644.2747</ele>
        <time>2021-07-21T13:39:54Z</time>
      </trkpt>
      <trkpt lat="40.92932" lon="-0.05873">
        <ele>645.9867</ele>
        <time>2021-07-21T13:40:05Z</time>
      </trkpt>
      <trkpt lat="40.92872" lon="-0.05883">
        <ele>632.8954</ele>
        <time>2021-07-21T13:40:16Z</time>
      </trkpt>
      <trkpt lat="40.92844" lon="-0.05774">
        <ele>618.6666</ele>
        <time>2021-07-21T13:40:27Z</time>
      </trkpt>
      <trkpt lat="40.92812" lon="-0.05658">
        <ele>616.0606</ele>
        <time>2021-07-21T13:40:38Z</time>
      </trkpt>
      <trkpt lat="40.92714" lon="-0.05595">
        <ele>625.362</ele>
        <time>2021-07-21T13:40:49Z</time>
      </trkpt>
      <trkpt lat="40.92637" lon="-0.0552">
        <ele>626.7241</ele>
        <time>2021-07-21T13:41:00Z</time>
      </trkpt>
      <trkpt lat="40.92636" lon="-0.05427">
        <ele>638.4076</ele>
        <time>2021-07-21T13:41:11Z</time>
      </trkpt>
      <trkpt lat="40.92587" lon="-0.0533">
        <ele>653.2396</ele>
        <time>2021-07-21T13:41:22Z</time>
      </trkpt>
      <trkpt lat="40.9258" lon="-0.05259">
        <ele>661.9024</ele>
        <time>2021-07-21T13:41:33Z</time>
      </trkpt>
      <trkpt lat="40.92571" lon="-0.05152">
        <ele>661.6689</ele>
        <time>2021-07-21T13:41:44Z</time>
      </trkpt>
      <trkpt lat="40.92641" lon="-0.05029">
        <ele>655.108</ele>
        <time>2021-07-21T13:41:55Z</time>
      </trkpt>
      <trkpt lat="40.92668" lon="-0.04969">
        <ele>648.4435</ele>
        <time>2021-07-21T13:42:06Z</time>
      </trkpt>
      <trkpt lat="40.92672" lon="-0.04994">
        <ele>661.0848</ele>
        <time>2021-07-21T13:42:17Z</time>
      </trkpt>
      <trkpt lat="40.92624" lon="-0.0495">
        <ele>669.3193</ele>
        <time>2021-07-21T13:42:28Z</time>
      </trkpt>
      <trkpt lat="40.92639" lon="-0.04889">
        <ele>658.1983</ele>
        <time>2021-07-21T13:42:39Z</time>
      </trkpt>
      <trkpt lat="40.92661" lon="-0.04809">
        <ele>646.5738</ele>
        <time>2021-07-21T13:42:50Z</time>
      </trkpt>
      <trkpt lat="40.92616" lon="-0.0471">
        <ele>651.8082</ele>
        <time>2021-07-21T13:43:01Z</time>
      </trkpt>
      <trkpt lat="40.92563" lon="-0.04655">
        <ele>663.1467</ele>
        <time>2021-07-21T13:43:12Z</time>
      </trkpt>
      <trkpt lat="40.92459" lon="-0.04529">
        <ele>666.4867</ele>
        <time>2021-07-21T13:43:23Z</time>
      </trkpt>
      <trkpt lat="40.92365" lon="-0.04397">
        <ele>666.2193</ele>
        <time>2021-07-21T13:43:34Z</time>
      </trkpt>
      <trkpt lat="40.92283" lon="-0.0424">
        <ele>668.3564</ele>
        <time>2021-07-21T13:43:45Z</time>
      </trkpt>
      <trkpt lat="40.92187" lon="-0.04106">
        <ele>670.6288</ele>
        <time>2021-07-21T13:43:56Z</time>
      </trkpt>
      <trkpt lat="40.92096" lon="-0.03952">
        <ele>675.4362</ele>
        <time>2021-07-21T13:44:07Z</time>
      </trkpt>
      <trkpt lat="40.91993" lon="-0.0385">
        <ele>659.3417</ele>
        <time>2021-07-21T13:44:18Z</time>
      </trkpt>
      <trkpt lat="40.91934" lon="-0.03739">
        <ele>655.2544</ele>
        <time>2021-07-21T13:44:29Z</time>
      </trkpt>
      <trkpt lat="40.91844" lon="-0.03683">
        <ele>652.2794</ele>
        <time>2021-07-21T13:44:40Z</time>
      </trkpt>
      <trkpt lat="40.91795" lon="-0.03745">
        <ele>656.3289</ele>
        <time>2021-07-21T13:44:51Z</time>
      </trkpt>
      <trkpt lat="40.91732" lon="-0.0378">
        <ele>652.369</ele>
        <time>2021-07-21T13:45:02Z</time>
      </trkpt>
      <trkpt lat="40.917" lon="-0.03786">
        <ele>646.7367</ele>
        <time>2021-07-21T13:45:13Z</time>
      </trkpt>
      <trkpt lat="40.91656" lon="-0.03594">
        <ele>657.9882</ele>
        <time>2021-07-21T13:45:24Z</time>
      </trkpt>
      <trkpt lat="40.91588" lon="-0.03304">
        <ele>671.7479</ele>
        <time>2021-07-21T13:45:35Z</time>
      </trkpt>
      <trkpt lat="40.91477" lon="-0.03056">
        <ele>685.8755</ele>
        <time>2021-07-21T13:45:46Z</time>
      </trkpt>
      <trkpt lat="40.91434" lon="-0.02773">
        <ele>698.7179</ele>
        <time>2021-07-21T13:45:57Z</time>
      </trkpt>
      <trkpt lat="40.913" lon="-0.02523">
        <ele>706.1448</ele>
        <time>2021-07-21T13:46:08Z</time>
      </trkpt>
      <trkpt lat="40.91279" lon="-0.02348">
        <ele>715.7594</ele>
        <time>2021-07-21T13:46:19Z</time>
      </trkpt>
      <trkpt lat="40.91262" lon="-0.02335">
        <ele>714.5932</ele>
        <time>2021-07-21T13:46:30Z</time>
      </trkpt>
      <trkpt lat="40.91355" lon="-0.02183">
        <ele>708.1965</ele>
        <time>2021-07-21T13:46:41Z</time>
      </trkpt>
      <trkpt lat="40.91536" lon="-0.0203">
        <ele>707.3006</ele>
        <time>2021-07-21T13:46:52Z</time>
      </trkpt>
      <trkpt lat="40.91774" lon="-0.01888">
        <ele>703.5571</ele>
        <time>2021-07-21T13:47:03Z</time>
      </trkpt>
      <trkpt lat="40.9201" lon="-0.01867">
        <ele>698.7048</ele>
        <time>2021-07-21T13:47:14Z</time>
      </trkpt>
      <trkpt lat="40.92269" lon="-0.01934">
        <ele>693.5769</ele>
        <time>2021-07-21T13:47:25Z</time>
      </trkpt>
      <trkpt lat="40.92513" lon="-0.0184">
        <ele>690.8716</ele>
        <time>2021-07-21T13:47:36Z</time>
      </trkpt>
      <trkpt lat="40.9267" lon="-0.01618">
        <ele>688.7591</ele>
        <time>2021-07-21T13:47:47Z</time>
      </trkpt>
      <trkpt lat="40.9271" lon="-0.01503">
        <ele>690.0952</ele>
        <time>2021-07-21T13:47:58Z</time>
      </trkpt>
      <trkpt lat="40.92783" lon="-0.01367">
        <ele>692.8434</ele>
        <time>2021-07-21T13:48:09Z</time>
      </trkpt>
      <trkpt lat="40.92871" lon="-0.0124">
        <ele>693.8939</ele>
        <time>2021-07-21T13:48:20Z</time>
      </trkpt>
      <trkpt lat="40.92908" lon="-0.01146">
        <ele>688.5177</ele>
        <time>2021-07-21T13:48:31Z</time>
      </trkpt>
      <trkpt lat="40.92917" lon="-0.01009">
        <ele>675.7554</ele>
        <time>2021-07-21T13:48:42Z</time>
      </trkpt>
      <trkpt lat="40.9291" lon="-0.00883">
        <ele>664.539</ele>
        <time>2021-07-21T13:48:53Z</time>
      </trkpt>
      <trkpt lat="40.92948" lon="-0.00783">
        <ele>666.8993</ele>
        <time>2021-07-21T13:49:04Z</time>
      </trkpt>
      <trkpt lat="40.9302" lon="-0.00777">
        <ele>652.781</ele>
        <time>2021-07-21T13:49:15Z</time>
      </trkpt>
      <trkpt lat="40.93118" lon="-0.00721">
        <ele>643.915</ele>
        <time>2021-07-21T13:49:26Z</time>
      </trkpt>
      <trkpt lat="40.93167" lon="-0.00651">
        <ele>641.4106</ele>
        <time>2021-07-21T13:49:37Z</time>
      </trkpt>
      <trkpt lat="40.93242" lon="-0.00598">
        <ele>642.284</ele>
        <time>2021-07-21T13:49:48Z</time>
      </trkpt>
      <trkpt lat="40.93324" lon="-0.00599">
        <ele>632.591</ele>
        <time>2021-07-21T13:49:59Z</time>
      </trkpt>
      <trkpt lat="40.93341" lon="-0.0049">
        <ele>625.592</ele>
        <time>2021-07-21T13:50:10Z</time>
      </trkpt>
      <trkpt lat="40.93373" lon="-0.00395">
        <ele>622.3752</ele>
        <time>2021-07-21T13:50:21Z</time>
      </trkpt>
      <trkpt lat="40.93418" lon="-0.00319">
        <ele>613.0594</ele>
        <time>2021-07-21T13:50:32Z</time>
      </trkpt>
      <trkpt lat="40.93488" lon="-0.0027">
        <ele>613.6687</ele>
        <time>2021-07-21T13:50:43Z</time>
      </trkpt>
      <trkpt lat="40.93572" lon="-0.00178">
        <ele>615.6314</ele>
        <time>2021-07-21T13:50:54Z</time>
      </trkpt>
      <trkpt lat="40.93566" lon="-0.00085">
        <ele>610.5441</ele>
        <time>2021-07-21T13:51:05Z</time>
      </trkpt>
      <trkpt lat="40.93622" lon="0.00015">
        <ele>606.0011</ele>
        <time>2021-07-21T13:51:16Z</time>
      </trkpt>
      <trkpt lat="40.93643" lon="0.00156">
        <ele>599.1714</ele>
        <time>2021-07-21T13:51:27Z</time>
      </trkpt>
      <trkpt lat="40.93663" lon="0.00289">
        <ele>592.0077</ele>
        <time>2021-07-21T13:51:38Z</time>
      </trkpt>
      <trkpt lat="40.93688" lon="0.00423">
        <ele>586.1653</ele>
        <time>2021-07-21T13:51:49Z</time>
      </trkpt>
      <trkpt lat="40.93774" lon="0.00493">
        <ele>578.5691</ele>
        <time>2021-07-21T13:52:00Z</time>
      </trkpt>
      <trkpt lat="40.93852" lon="0.00569">
        <ele>577.535</ele>
        <time>2021-07-21T13:52:11Z</time>
      </trkpt>
      <trkpt lat="40.93949" lon="0.00686">
        <ele>578.7607</ele>
        <time>2021-07-21T13:52:22Z</time>
      </trkpt>
      <trkpt lat="40.93981" lon="0.00765">
        <ele>582.1107</ele>
        <time>2021-07-21T13:52:33Z</time>
      </trkpt>
      <trkpt lat="40.94014" lon="0.0086">
        <ele>576.9237</ele>
        <time>2021-07-21T13:52:44Z</time>
      </trkpt>
      <trkpt lat="40.94016" lon="0.00868">
        <ele>573.3113</ele>
        <time>2021-07-21T13:53:30Z</time>
      </trkpt>
      <trkpt lat="40.94042" lon="0.00978">
        <ele>566.5125</ele>
        <time>2021-07-21T13:53:41Z</time>
      </trkpt>
      <trkpt lat="40.94103" lon="0.01055">
        <ele>561.4682</ele>
        <time>2021-07-21T13:53:52Z</time>
      </trkpt>
      <trkpt lat="40.94178" lon="0.0111">
        <ele>563.3244</ele>
        <time>2021-07-21T13:54:03Z</time>
      </trkpt>
      <trkpt lat="40.94177" lon="0.01221">
        <ele>564.1105</ele>
        <time>2021-07-21T13:54:14Z</time>
      </trkpt>
      <trkpt lat="40.94211" lon="0.01333">
        <ele>562.1747</ele>
        <time>2021-07-21T13:54:25Z</time>
      </trkpt>
      <trkpt lat="40.94284" lon="0.01423">
        <ele>560.4695</ele>
        <time>2021-07-21T13:54:36Z</time>
      </trkpt>
      <trkpt lat="40.94359" lon="0.01523">
        <ele>551.9648</ele>
        <time>2021-07-21T13:54:47Z</time>
      </trkpt>
      <trkpt lat="40.9441" lon="0.01653">
        <ele>550.977</ele>
        <time>2021-07-21T13:54:58Z</time>
      </trkpt>
      <trkpt lat="40.94468" lon="0.01765">
        <ele>544.4075</ele>
        <time>2021-07-21T13:55:09Z</time>
      </trkpt>
      <trkpt lat="40.94557" lon="0.01805">
        <ele>540.461</ele>
        <time>2021-07-21T13:55:20Z</time>
      </trkpt>
      <trkpt lat="40.94673" lon="0.01845">
        <ele>551.472</ele>
        <time>2021-07-21T13:55:31Z</time>
      </trkpt>
      <trkpt lat="40.94829" lon="0.01896">
        <ele>552.9129</ele>
        <time>2021-07-21T13:55:42Z</time>
      </trkpt>
      <trkpt lat="40.94857" lon="0.01972">
        <ele>558.0123</ele>
        <time>2021-07-21T13:55:53Z</time>
      </trkpt>
      <trkpt lat="40.94946" lon="0.02004">
        <ele>550.3591</ele>
        <time>2021-07-21T13:56:04Z</time>
      </trkpt>
      <trkpt lat="40.95067" lon="0.02024">
        <ele>548.5565</ele>
        <time>2021-07-21T13:56:15Z</time>
      </trkpt>
      <trkpt lat="40.95126" lon="0.0202">
        <ele>537.7955</ele>
        <time>2021-07-21T13:56:26Z</time>
      </trkpt>
      <trkpt lat="40.95149" lon="0.02061">
        <ele>524.2183</ele>
        <time>2021-07-21T13:56:37Z</time>
      </trkpt>
      <trkpt lat="40.95179" lon="0.02171">
        <ele>519.8555</ele>
        <time>2021-07-21T13:56:48Z</time>
      </trkpt>
      <trkpt lat="40.95153" lon="0.02298">
        <ele>525.1637</ele>
        <time>2021-07-21T13:56:59Z</time>
      </trkpt>
      <trkpt lat="40.95162" lon="0.02386">
        <ele>529.2785</ele>
        <time>2021-07-21T13:57:10Z</time>
      </trkpt>
      <trkpt lat="40.95088" lon="0.02609">
        <ele>530.6472</ele>
        <time>2021-07-21T13:57:21Z</time>
      </trkpt>
      <trkpt lat="40.95099" lon="0.02909">
        <ele>517.6822</ele>
        <time>2021-07-21T13:57:32Z</time>
      </trkpt>
      <trkpt lat="40.94975" lon="0.03144">
        <ele>519.5185</ele>
        <time>2021-07-21T13:57:43Z</time>
      </trkpt>
      <trkpt lat="40.94983" lon="0.03414">
        <ele>511.42</ele>
        <time>2021-07-21T13:57:54Z</time>
      </trkpt>
      <trkpt lat="40.94947" lon="0.03705">
        <ele>501.8629</ele>
        <time>2021-07-21T13:58:05Z</time>
      </trkpt>
      <trkpt lat="40.94894" lon="0.04">
        <ele>493.1431</ele>
        <time>2021-07-21T13:58:16Z</time>
      </trkpt>
      <trkpt lat="40.94796" lon="0.04306">
        <ele>488.2046</ele>
        <time>2021-07-21T13:58:27Z</time>
      </trkpt>
      <trkpt lat="40.94784" lon="0.04642">
        <ele>486.5256</ele>
        <time>2021-07-21T13:58:38Z</time>
      </trkpt>
      <trkpt lat="40.94649" lon="0.04936">
        <ele>486.8076</ele>
        <time>2021-07-21T13:58:49Z</time>
      </trkpt>
      <trkpt lat="40.94583" lon="0.05281">
        <ele>479.4532</ele>
        <time>2021-07-21T13:59:00Z</time>
      </trkpt>
      <trkpt lat="40.94415" lon="0.05522">
        <ele>479.31</ele>
        <time>2021-07-21T13:59:11Z</time>
      </trkpt>
      <trkpt lat="40.94345" lon="0.05837">
        <ele>472.5594</ele>
        <time>2021-07-21T13:59:22Z</time>
      </trkpt>
      <trkpt lat="40.94295" lon="0.06152">
        <ele>466.3591</ele>
        <time>2021-07-21T13:59:33Z</time>
      </trkpt>
      <trkpt lat="40.94289" lon="0.06357">
        <ele>464.6209</ele>
        <time>2021-07-21T13:59:44Z</time>
      </trkpt>
      <trkpt lat="40.94323" lon="0.06421">
        <ele>464.1093</ele>
        <time>2021-07-21T13:59:55Z</time>
      </trkpt>
      <trkpt lat="40.94301" lon="0.06327">
        <ele>467.0718</ele>
        <time>2021-07-21T14:00:06Z</time>
      </trkpt>
      <trkpt lat="40.94322" lon="0.06267">
        <ele>472.1413</ele>
        <time>2021-07-21T14:00:17Z</time>
      </trkpt>
      <trkpt lat="40.94349" lon="0.06241">
        <ele>475.471</ele>
        <time>2021-07-21T14:00:28Z</time>
      </trkpt>
      <trkpt lat="40.94418" lon="0.063">
        <ele>481.2845</ele>
        <time>2021-07-21T14:00:39Z</time>
      </trkpt>
      <trkpt lat="40.94465" lon="0.06407">
        <ele>486.7398</ele>
        <time>2021-07-21T14:00:50Z</time>
      </trkpt>
      <trkpt lat="40.94517" lon="0.06528">
        <ele>490.5011</ele>
        <time>2021-07-21T14:01:01Z</time>
      </trkpt>
      <trkpt lat="40.94536" lon="0.06672">
        <ele>492.3735</ele>
        <time>2021-07-21T14:01:12Z</time>
      </trkpt>
      <trkpt lat="40.94583" lon="0.06766">
        <ele>495.4805</ele>
        <time>2021-07-21T14:01:23Z</time>
      </trkpt>
      <trkpt lat="40.947" lon="0.06794">
        <ele>492.6166</ele>
        <time>2021-07-21T14:01:34Z</time>
      </trkpt>
      <trkpt lat="40.94789" lon="0.06815">
        <ele>496.235</ele>
        <time>2021-07-21T14:01:45Z</time>
      </trkpt>
      <trkpt lat="40.9488" lon="0.06867">
        <ele>497.3919</ele>
        <time>2021-07-21T14:01:56Z</time>
      </trkpt>
      <trkpt lat="40.94992" lon="0.06805">
        <ele>502.8764</ele>
        <time>2021-07-21T14:02:07Z</time>
      </trkpt>
      <trkpt lat="40.95095" lon="0.06768">
        <ele>505.7207</ele>
        <time>2021-07-21T14:02:19Z</time>
      </trkpt>
      <trkpt lat="40.95128" lon="0.06759">
        <ele>509.9865</ele>
        <time>2021-07-21T14:02:30Z</time>
      </trkpt>
      <trkpt lat="40.95199" lon="0.06725">
        <ele>517.8189</ele>
        <time>2021-07-21T14:02:41Z</time>
      </trkpt>
      <trkpt lat="40.95168" lon="0.06644">
        <ele>530.9882</ele>
        <time>2021-07-21T14:02:52Z</time>
      </trkpt>
      <trkpt lat="40.95168" lon="0.06605">
        <ele>538.7362</ele>
        <time>2021-07-21T14:03:03Z</time>
      </trkpt>
      <trkpt lat="40.95241" lon="0.06534">
        <ele>544.9766</ele>
        <time>2021-07-21T14:03:14Z</time>
      </trkpt>
      <trkpt lat="40.95293" lon="0.06481">
        <ele>550.2667</ele>
        <time>2021-07-21T14:03:25Z</time>
      </trkpt>
      <trkpt lat="40.9533" lon="0.06414">
        <ele>557.4095</ele>
        <time>2021-07-21T14:03:36Z</time>
      </trkpt>
      <trkpt lat="40.95359" lon="0.06328">
        <ele>557.9137</ele>
        <time>2021-07-21T14:03:47Z</time>
      </trkpt>
      <trkpt lat="40.9541" lon="0.06286">
        <ele>561.1108</ele>
        <time>2021-07-21T14:03:58Z</time>
      </trkpt>
      <trkpt lat="40.95462" lon="0.06248">
        <ele>556.8286</ele>
        <time>2021-07-21T14:04:09Z</time>
      </trkpt>
      <trkpt lat="40.95551" lon="0.06238">
        <ele>562.5622</ele>
        <time>2021-07-21T14:04:20Z</time>
      </trkpt>
      <trkpt lat="40.9559" lon="0.06196">
        <ele>554.7193</ele>
        <time>2021-07-21T14:04:31Z</time>
      </trkpt>
      <trkpt lat="40.95592" lon="0.0614">
        <ele>560.3966</ele>
        <time>2021-07-21T14:04:42Z</time>
      </trkpt>
      <trkpt lat="40.95636" lon="0.06125">
        <ele>566.1888</ele>
        <time>2021-07-21T14:04:53Z</time>
      </trkpt>
      <trkpt lat="40.95639" lon="0.06124">
        <ele>567.8408</ele>
        <time>2021-07-21T14:05:11Z</time>
      </trkpt>
      <trkpt lat="40.95654" lon="0.06107">
        <ele>572.9991</ele>
        <time>2021-07-21T14:05:22Z</time>
      </trkpt>
      <trkpt lat="40.95691" lon="0.06087">
        <ele>580.1471</ele>
        <time>2021-07-21T14:05:33Z</time>
      </trkpt>
      <trkpt lat="40.95743" lon="0.06026">
        <ele>577.9534</ele>
        <time>2021-07-21T14:05:44Z</time>
      </trkpt>
      <trkpt lat="40.95793" lon="0.05989">
        <ele>579.1343</ele>
        <time>2021-07-21T14:05:55Z</time>
      </trkpt>
      <trkpt lat="40.95858" lon="0.06019">
        <ele>581.6551</ele>
        <time>2021-07-21T14:06:06Z</time>
      </trkpt>
      <trkpt lat="40.95923" lon="0.06032">
        <ele>586.5344</ele>
        <time>2021-07-21T14:06:17Z</time>
      </trkpt>
      <trkpt lat="40.95995" lon="0.05994">
        <ele>591.0171</ele>
        <time>2021-07-21T14:06:28Z</time>
      </trkpt>
      <trkpt lat="40.96066" lon="0.05892">
        <ele>589.4205</ele>
        <time>2021-07-21T14:06:39Z</time>
      </trkpt>
      <trkpt lat="40.96106" lon="0.05879">
        <ele>591.6304</ele>
        <time>2021-07-21T14:06:50Z</time>
      </trkpt>
      <trkpt lat="40.96164" lon="0.05877">
        <ele>587.721</ele>
        <time>2021-07-21T14:07:01Z</time>
      </trkpt>
      <trkpt lat="40.96227" lon="0.05939">
        <ele>578.1002</ele>
        <time>2021-07-21T14:07:12Z</time>
      </trkpt>
      <trkpt lat="40.96236" lon="0.0604">
        <ele>564.5125</ele>
        <time>2021-07-21T14:07:23Z</time>
      </trkpt>
      <trkpt lat="40.96251" lon="0.06153">
        <ele>552.3222</ele>
        <time>2021-07-21T14:07:34Z</time>
      </trkpt>
      <trkpt lat="40.96314" lon="0.06172">
        <ele>549.7987</ele>
        <time>2021-07-21T14:07:45Z</time>
      </trkpt>
      <trkpt lat="40.96395" lon="0.06162">
        <ele>536.0632</ele>
        <time>2021-07-21T14:07:56Z</time>
      </trkpt>
      <trkpt lat="40.96508" lon="0.06169">
        <ele>539.1512</ele>
        <time>2021-07-21T14:08:07Z</time>
      </trkpt>
      <trkpt lat="40.96603" lon="0.0621">
        <ele>538.8517</ele>
        <time>2021-07-21T14:08:18Z</time>
      </trkpt>
      <trkpt lat="40.96676" lon="0.06176">
        <ele>527.7882</ele>
        <time>2021-07-21T14:08:29Z</time>
      </trkpt>
      <trkpt lat="40.9678" lon="0.06093">
        <ele>527.9178</ele>
        <time>2021-07-21T14:08:40Z</time>
      </trkpt>
      <trkpt lat="40.96873" lon="0.06037">
        <ele>534.862</ele>
        <time>2021-07-21T14:08:51Z</time>
      </trkpt>
      <trkpt lat="40.9697" lon="0.06016">
        <ele>538.5823</ele>
        <time>2021-07-21T14:09:02Z</time>
      </trkpt>
      <trkpt lat="40.97028" lon="0.05979">
        <ele>547.1899</ele>
        <time>2021-07-21T14:09:13Z</time>
      </trkpt>
      <trkpt lat="40.97045" lon="0.05926">
        <ele>548.7775</ele>
        <time>2021-07-21T14:09:24Z</time>
      </trkpt>
      <trkpt lat="40.97063" lon="0.06039">
        <ele>551.1436</ele>
        <time>2021-07-21T14:09:35Z</time>
      </trkpt>
      <trkpt lat="40.9713" lon="0.06081">
        <ele>548.4658</ele>
        <time>2021-07-21T14:09:46Z</time>
      </trkpt>
      <trkpt lat="40.97203" lon="0.06013">
        <ele>544.2229</ele>
        <time>2021-07-21T14:09:57Z</time>
      </trkpt>
      <trkpt lat="40.97244" lon="0.06032">
        <ele>532.601</ele>
        <time>2021-07-21T14:10:08Z</time>
      </trkpt>
      <trkpt lat="40.97306" lon="0.0604">
        <ele>518.3355</ele>
        <time>2021-07-21T14:10:19Z</time>
      </trkpt>
      <trkpt lat="40.97311" lon="0.06102">
        <ele>515.9701</ele>
        <time>2021-07-21T14:10:30Z</time>
      </trkpt>
      <trkpt lat="40.97364" lon="0.06152">
        <ele>511.5542</ele>
        <time>2021-07-21T14:10:41Z</time>
      </trkpt>
      <trkpt lat="40.9745" lon="0.06171">
        <ele>505.7188</ele>
        <time>2021-07-21T14:10:52Z</time>
      </trkpt>
      <trkpt lat="40.97506" lon="0.06124">
        <ele>509.0065</ele>
        <time>2021-07-21T14:11:03Z</time>
      </trkpt>
      <trkpt lat="40.97581" lon="0.06186">
        <ele>501.4794</ele>
        <time>2021-07-21T14:11:14Z</time>
      </trkpt>
      <trkpt lat="40.97606" lon="0.06247">
        <ele>485.2999</ele>
        <time>2021-07-21T14:11:25Z</time>
      </trkpt>
      <trkpt lat="40.97655" lon="0.06225">
        <ele>481.4836</ele>
        <time>2021-07-21T14:11:36Z</time>
      </trkpt>
      <trkpt lat="40.97763" lon="0.06243">
        <ele>489.7424</ele>
        <time>2021-07-21T14:11:47Z</time>
      </trkpt>
      <trkpt lat="40.97818" lon="0.06256">
        <ele>487.5445</ele>
        <time>2021-07-21T14:11:58Z</time>
      </trkpt>
      <trkpt lat="40.97906" lon="0.06246">
        <ele>474.4709</ele>
        <time>2021-07-21T14:12:09Z</time>
      </trkpt>
      <trkpt lat="40.97991" lon="0.06253">
        <ele>467.9895</ele>
        <time>2021-07-21T14:12:20Z</time>
      </trkpt>
      <trkpt lat="40.98059" lon="0.06195">
        <ele>466.7236</ele>
        <time>2021-07-21T14:12:31Z</time>
      </trkpt>
      <trkpt lat="40.98109" lon="0.06141">
        <ele>458.6555</ele>
        <time>2021-07-21T14:12:42Z</time>
      </trkpt>
      <trkpt lat="40.98144" lon="0.06229">
        <ele>459.914</ele>
        <time>2021-07-21T14:12:53Z</time>
      </trkpt>
      <trkpt lat="40.98202" lon="0.06248">
        <ele>464.236</ele>
        <time>2021-07-21T14:13:04Z</time>
      </trkpt>
      <trkpt lat="40.98206" lon="0.06225">
        <ele>466.3424</ele>
        <time>2021-07-21T14:13:15Z</time>
      </trkpt>
      <trkpt lat="40.98112" lon="0.06082">
        <ele>473.836</ele>
        <time>2021-07-21T14:13:26Z</time>
      </trkpt>
      <trkpt lat="40.98089" lon="0.05966">
        <ele>470.7332</ele>
        <time>2021-07-21T14:13:37Z</time>
      </trkpt>
      <trkpt lat="40.98093" lon="0.0586">
        <ele>467.9874</ele>
        <time>2021-07-21T14:13:48Z</time>
      </trkpt>
      <trkpt lat="40.98122" lon="0.05681">
        <ele>473.2622</ele>
        <time>2021-07-21T14:13:59Z</time>
      </trkpt>
      <trkpt lat="40.9812" lon="0.05563">
        <ele>478.63</ele>
        <time>2021-07-21T14:14:10Z</time>
      </trkpt>
      <trkpt lat="40.98137" lon="0.05577">
        <ele>485.3879</ele>
        <time>2021-07-21T14:14:21Z</time>
      </trkpt>
      <trkpt lat="40.98148" lon="0.05555">
        <ele>486.5271</ele>
        <time>2021-07-21T14:14:32Z</time>
      </trkpt>
      <trkpt lat="40.98182" lon="0.05434">
        <ele>487.7949</ele>
        <time>2021-07-21T14:14:43Z</time>
      </trkpt>
      <trkpt lat="40.98205" lon="0.05384">
        <ele>492.5124</ele>
        <time>2021-07-21T14:14:54Z</time>
      </trkpt>
      <trkpt lat="40.98207" lon="0.05355">
        <ele>493.1202</ele>
        <time>2021-07-21T14:15:05Z</time>
      </trkpt>
      <trkpt lat="40.98232" lon="0.05414">
        <ele>497.3333</ele>
        <time>2021-07-21T14:15:16Z</time>
      </trkpt>
      <trkpt lat="40.98291" lon="0.05429">
        <ele>499.3756</ele>
        <time>2021-07-21T14:15:27Z</time>
      </trkpt>
      <trkpt lat="40.98315" lon="0.0542">
        <ele>505.8698</ele>
        <time>2021-07-21T14:15:38Z</time>
      </trkpt>
      <trkpt lat="40.98319" lon="0.05422">
        <ele>510.2382</ele>
        <time>2021-07-21T14:15:51Z</time>
      </trkpt>
      <trkpt lat="40.98406" lon="0.05383">
        <ele>514.383</ele>
        <time>2021-07-21T14:16:02Z</time>
      </trkpt>
      <trkpt lat="40.98497" lon="0.05325">
        <ele>516.6418</ele>
        <time>2021-07-21T14:16:13Z</time>
      </trkpt>
      <trkpt lat="40.98594" lon="0.05293">
        <ele>524.7422</ele>
        <time>2021-07-21T14:16:24Z</time>
      </trkpt>
      <trkpt lat="40.98678" lon="0.05379">
        <ele>519.3599</ele>
        <time>2021-07-21T14:16:35Z</time>
      </trkpt>
      <trkpt lat="40.98729" lon="0.05473">
        <ele>520.2885</ele>
        <time>2021-07-21T14:16:46Z</time>
      </trkpt>
      <trkpt lat="40.98777" lon="0.05529">
        <ele>526.3869</ele>
        <time>2021-07-21T14:16:57Z</time>
      </trkpt>
      <trkpt lat="40.98887" lon="0.05602">
        <ele>532.3919</ele>
        <time>2021-07-21T14:17:08Z</time>
      </trkpt>
      <trkpt lat="40.98918" lon="0.05583">
        <ele>532.5118</ele>
        <time>2021-07-21T14:17:19Z</time>
      </trkpt>
      <trkpt lat="40.99017" lon="0.05584">
        <ele>530.5289</ele>
        <time>2021-07-21T14:17:30Z</time>
      </trkpt>
      <trkpt lat="40.9909" lon="0.05569">
        <ele>528.2951</ele>
        <time>2021-07-21T14:17:41Z</time>
      </trkpt>
      <trkpt lat="40.99151" lon="0.05435">
        <ele>527.9062</ele>
        <time>2021-07-21T14:17:52Z</time>
      </trkpt>
      <trkpt lat="40.99193" lon="0.0538">
        <ele>518.1279</ele>
        <time>2021-07-21T14:18:03Z</time>
      </trkpt>
      <trkpt lat="40.99301" lon="0.05366">
        <ele>517.688</ele>
        <time>2021-07-21T14:18:14Z</time>
      </trkpt>
      <trkpt lat="40.99381" lon="0.05362">
        <ele>522.9975</ele>
        <time>2021-07-21T14:18:25Z</time>
      </trkpt>
      <trkpt lat="40.99447" lon="0.05369">
        <ele>523.4447</ele>
        <time>2021-07-21T14:18:36Z</time>
      </trkpt>
      <trkpt lat="40.99438" lon="0.05433">
        <ele>525.7219</ele>
        <time>2021-07-21T14:18:47Z</time>
      </trkpt>
      <trkpt lat="40.99483" lon="0.05534">
        <ele>533.7167</ele>
        <time>2021-07-21T14:18:58Z</time>
      </trkpt>
      <trkpt lat="40.99556" lon="0.05599">
        <ele>538.4582</ele>
        <time>2021-07-21T14:19:09Z</time>
      </trkpt>
      <trkpt lat="40.99632" lon="0.05615">
        <ele>542.1803</ele>
        <time>2021-07-21T14:19:20Z</time>
      </trkpt>
      <trkpt lat="40.99702" lon="0.05708">
        <ele>542.7874</ele>
        <time>2021-07-21T14:19:31Z</time>
      </trkpt>
      <trkpt lat="40.99725" lon="0.05782">
        <ele>549.993</ele>
        <time>2021-07-21T14:19:42Z</time>
      </trkpt>
      <trkpt lat="40.99706" lon="0.05889">
        <ele>545.2817</ele>
        <time>2021-07-21T14:19:53Z</time>
      </trkpt>
      <trkpt lat="40.99813" lon="0.05863">
        <ele>544.2042</ele>
        <time>2021-07-21T14:20:04Z</time>
      </trkpt>
      <trkpt lat="40.99973" lon="0.05833">
        <ele>547.3467</ele>
        <time>2021-07-21T14:20:15Z</time>
      </trkpt>
      <trkpt lat="41.00097" lon="0.05894">
        <ele>537.8833</ele>
        <time>2021-07-21T14:20:26Z</time>
      </trkpt>
      <trkpt lat="41.00225" lon="0.05859">
        <ele>540.1975</ele>
        <time>2021-07-21T14:20:37Z</time>
      </trkpt>
      <trkpt lat="41.00319" lon="0.05835">
        <ele>538.8329</ele>
        <time>2021-07-21T14:20:48Z</time>
      </trkpt>
      <trkpt lat="41.00405" lon="0.0581">
        <ele>527.8106</ele>
        <time>2021-07-21T14:20:59Z</time>
      </trkpt>
      <trkpt lat="41.0047" lon="0.05709">
        <ele>522.1289</ele>
        <time>2021-07-21T14:21:10Z</time>
      </trkpt>
      <trkpt lat="41.00587" lon="0.05709">
        <ele>519.7144</ele>
        <time>2021-07-21T14:21:21Z</time>
      </trkpt>
      <trkpt lat="41.00702" lon="0.05698">
        <ele>502.9787</ele>
        <time>2021-07-21T14:21:32Z</time>
      </trkpt>
      <trkpt lat="41.00807" lon="0.05679">
        <ele>493.5499</ele>
        <time>2021-07-21T14:21:43Z</time>
      </trkpt>
      <trkpt lat="41.00871" lon="0.05734">
        <ele>487.3004</ele>
        <time>2021-07-21T14:21:54Z</time>
      </trkpt>
      <trkpt lat="41.00896" lon="0.05812">
        <ele>483.7831</ele>
        <time>2021-07-21T14:22:05Z</time>
      </trkpt>
      <trkpt lat="41.00942" lon="0.05763">
        <ele>488.4082</ele>
        <time>2021-07-21T14:22:16Z</time>
      </trkpt>
      <trkpt lat="41.01053" lon="0.05618">
        <ele>478.193</ele>
        <time>2021-07-21T14:22:27Z</time>
      </trkpt>
      <trkpt lat="41.01138" lon="0.05495">
        <ele>474.3228</ele>
        <time>2021-07-21T14:22:38Z</time>
      </trkpt>
      <trkpt lat="41.0115" lon="0.05476">
        <ele>475.5617</ele>
        <time>2021-07-21T14:22:49Z</time>
      </trkpt>
      <trkpt lat="41.01152" lon="0.05473">
        <ele>476.3862</ele>
        <time>2021-07-21T14:23:00Z</time>
      </trkpt>
      <trkpt lat="41.0115" lon="0.05472">
        <ele>475.1864</ele>
        <time>2021-07-21T14:24:00Z</time>
      </trkpt>
      <trkpt lat="41.0115" lon="0.05476">
        <ele>477.1021</ele>
        <time>2021-07-21T14:24:25Z</time>
      </trkpt>
      <trkpt lat="41.01149" lon="0.05471">
        <ele>478.0462</ele>
        <time>2021-07-21T14:25:05Z</time>
      </trkpt>
      <trkpt lat="41.0115" lon="0.05472">
        <ele>477.0303</ele>
        <time>2021-07-21T14:26:05Z</time>
      </trkpt>
      <trkpt lat="41.01149" lon="0.05477">
        <ele>475.7601</ele>
        <time>2021-07-21T14:26:32Z</time>
      </trkpt>
      <trkpt lat="41.01146" lon="0.05474">
        <ele>476.1207</ele>
        <time>2021-07-21T14:26:54Z</time>
      </trkpt>
      <trkpt lat="41.0115" lon="0.05466">
        <ele>476.1448</ele>
        <time>2021-07-21T14:27:26Z</time>
      </trkpt>
      <trkpt lat="41.01209" lon="0.05377">
        <ele>468.8269</ele>
        <time>2021-07-21T14:27:37Z</time>
      </trkpt>
      <trkpt lat="41.01285" lon="0.05369">
        <ele>464.0571</ele>
        <time>2021-07-21T14:27:48Z</time>
      </trkpt>
      <trkpt lat="41.0138" lon="0.0528">
        <ele>457.6122</ele>
        <time>2021-07-21T14:27:59Z</time>
      </trkpt>
      <trkpt lat="41.01473" lon="0.05225">
        <ele>444.2112</ele>
        <time>2021-07-21T14:28:10Z</time>
      </trkpt>
      <trkpt lat="41.01564" lon="0.05259">
        <ele>445.2177</ele>
        <time>2021-07-21T14:28:21Z</time>
      </trkpt>
      <trkpt lat="41.01685" lon="0.05293">
        <ele>445.9374</ele>
        <time>2021-07-21T14:28:32Z</time>
      </trkpt>
      <trkpt lat="41.01745" lon="0.05455">
        <ele>443.8028</ele>
        <time>2021-07-21T14:28:43Z</time>
      </trkpt>
      <trkpt lat="41.018" lon="0.0562">
        <ele>437.6309</ele>
        <time>2021-07-21T14:28:54Z</time>
      </trkpt>
      <trkpt lat="41.01858" lon="0.0572">
        <ele>436.1472</ele>
        <time>2021-07-21T14:29:05Z</time>
      </trkpt>
      <trkpt lat="41.01917" lon="0.05671">
        <ele>438.766</ele>
        <time>2021-07-21T14:29:16Z</time>
      </trkpt>
      <trkpt lat="41.02002" lon="0.05669">
        <ele>437.3357</ele>
        <time>2021-07-21T14:29:27Z</time>
      </trkpt>
      <trkpt lat="41.02054" lon="0.0561">
        <ele>443.6381</ele>
        <time>2021-07-21T14:29:38Z</time>
      </trkpt>
      <trkpt lat="41.02116" lon="0.05625">
        <ele>437.6606</ele>
        <time>2021-07-21T14:29:49Z</time>
      </trkpt>
      <trkpt lat="41.02141" lon="0.05682">
        <ele>423.2027</ele>
        <time>2021-07-21T14:30:00Z</time>
      </trkpt>
      <trkpt lat="41.02132" lon="0.05784">
        <ele>414.1689</ele>
        <time>2021-07-21T14:30:11Z</time>
      </trkpt>
      <trkpt lat="41.0219" lon="0.05786">
        <ele>414.6698</ele>
        <time>2021-07-21T14:30:22Z</time>
      </trkpt>
      <trkpt lat="41.02288" lon="0.05842">
        <ele>415.4155</ele>
        <time>2021-07-21T14:30:33Z</time>
      </trkpt>
      <trkpt lat="41.02337" lon="0.058">
        <ele>426.34</ele>
        <time>2021-07-21T14:30:44Z</time>
      </trkpt>
      <trkpt lat="41.02348" lon="0.0587">
        <ele>440.0922</ele>
        <time>2021-07-21T14:30:55Z</time>
      </trkpt>
      <trkpt lat="41.02408" lon="0.05888">
        <ele>455.4138</ele>
        <time>2021-07-21T14:31:06Z</time>
      </trkpt>
      <trkpt lat="41.02473" lon="0.05853">
        <ele>467.1789</ele>
        <time>2021-07-21T14:31:17Z</time>
      </trkpt>
      <trkpt lat="41.02521" lon="0.05899">
        <ele>469.291</ele>
        <time>2021-07-21T14:31:28Z</time>
      </trkpt>
      <trkpt lat="41.02543" lon="0.0589">
        <ele>468.6159</ele>
        <time>2021-07-21T14:31:39Z</time>
      </trkpt>
      <trkpt lat="41.02525" lon="0.05974">
        <ele>461.5926</ele>
        <time>2021-07-21T14:31:50Z</time>
      </trkpt>
      <trkpt lat="41.02449" lon="0.06025">
        <ele>465.089</ele>
        <time>2021-07-21T14:32:01Z</time>
      </trkpt>
      <trkpt lat="41.02459" lon="0.06155">
        <ele>462.9757</ele>
        <time>2021-07-21T14:32:12Z</time>
      </trkpt>
      <trkpt lat="41.02512" lon="0.06233">
        <ele>460.4205</ele>
        <time>2021-07-21T14:32:23Z</time>
      </trkpt>
      <trkpt lat="41.02495" lon="0.06334">
        <ele>455.5641</ele>
        <time>2021-07-21T14:32:34Z</time>
      </trkpt>
      <trkpt lat="41.02535" lon="0.06463">
        <ele>442.161</ele>
        <time>2021-07-21T14:32:45Z</time>
      </trkpt>
      <trkpt lat="41.02614" lon="0.06543">
        <ele>422.3091</ele>
        <time>2021-07-21T14:32:56Z</time>
      </trkpt>
      <trkpt lat="41.02648" lon="0.0659">
        <ele>417.0939</ele>
        <time>2021-07-21T14:33:07Z</time>
      </trkpt>
      <trkpt lat="41.02685" lon="0.06645">
        <ele>417.6021</ele>
        <time>2021-07-21T14:33:18Z</time>
      </trkpt>
      <trkpt lat="41.0276" lon="0.06684">
        <ele>420.4663</ele>
        <time>2021-07-21T14:33:29Z</time>
      </trkpt>
      <trkpt lat="41.02845" lon="0.06728">
        <ele>422.7395</ele>
        <time>2021-07-21T14:33:40Z</time>
      </trkpt>
      <trkpt lat="41.0295" lon="0.06839">
        <ele>419.7306</ele>
        <time>2021-07-21T14:33:51Z</time>
      </trkpt>
      <trkpt lat="41.02993" lon="0.06904">
        <ele>418.9029</ele>
        <time>2021-07-21T14:34:02Z</time>
      </trkpt>
      <trkpt lat="41.03068" lon="0.06915">
        <ele>418.8277</ele>
        <time>2021-07-21T14:34:13Z</time>
      </trkpt>
      <trkpt lat="41.03175" lon="0.07002">
        <ele>409.2548</ele>
        <time>2021-07-21T14:34:24Z</time>
      </trkpt>
      <trkpt lat="41.03265" lon="0.07016">
        <ele>404.836</ele>
        <time>2021-07-21T14:34:35Z</time>
      </trkpt>
      <trkpt lat="41.03294" lon="0.07129">
        <ele>397.6844</ele>
        <time>2021-07-21T14:34:46Z</time>
      </trkpt>
      <trkpt lat="41.03239" lon="0.07145">
        <ele>398.6083</ele>
        <time>2021-07-21T14:34:57Z</time>
      </trkpt>
      <trkpt lat="41.03286" lon="0.07208">
        <ele>396.8303</ele>
        <time>2021-07-21T14:35:08Z</time>
      </trkpt>
      <trkpt lat="41.03376" lon="0.07266">
        <ele>388.0283</ele>
        <time>2021-07-21T14:35:19Z</time>
      </trkpt>
      <trkpt lat="41.03399" lon="0.07356">
        <ele>382.3194</ele>
        <time>2021-07-21T14:35:30Z</time>
      </trkpt>
      <trkpt lat="41.03508" lon="0.07373">
        <ele>380.7305</ele>
        <time>2021-07-21T14:35:41Z</time>
      </trkpt>
      <trkpt lat="41.03598" lon="0.07387">
        <ele>378.6092</ele>
        <time>2021-07-21T14:35:52Z</time>
      </trkpt>
      <trkpt lat="41.03616" lon="0.07558">
        <ele>377.3914</ele>
        <time>2021-07-21T14:36:03Z</time>
      </trkpt>
      <trkpt lat="41.0364" lon="0.07717">
        <ele>379.4905</ele>
        <time>2021-07-21T14:36:14Z</time>
      </trkpt>
      <trkpt lat="41.03604" lon="0.0783">
        <ele>381.9091</ele>
        <time>2021-07-21T14:36:25Z</time>
      </trkpt>
      <trkpt lat="41.03586" lon="0.07975">
        <ele>373.4539</ele>
        <time>2021-07-21T14:36:36Z</time>
      </trkpt>
      <trkpt lat="41.0366" lon="0.08088">
        <ele>370.6108</ele>
        <time>2021-07-21T14:36:47Z</time>
      </trkpt>
      <trkpt lat="41.03779" lon="0.08219">
        <ele>372.9215</ele>
        <time>2021-07-21T14:36:58Z</time>
      </trkpt>
      <trkpt lat="41.03817" lon="0.08366">
        <ele>374.1311</ele>
        <time>2021-07-21T14:37:09Z</time>
      </trkpt>
      <trkpt lat="41.03897" lon="0.08512">
        <ele>370.0953</ele>
        <time>2021-07-21T14:37:20Z</time>
      </trkpt>
      <trkpt lat="41.03931" lon="0.08703">
        <ele>366.1186</ele>
        <time>2021-07-21T14:37:31Z</time>
      </trkpt>
      <trkpt lat="41.03953" lon="0.08833">
        <ele>364.1975</ele>
        <time>2021-07-21T14:37:42Z</time>
      </trkpt>
      <trkpt lat="41.04086" lon="0.08933">
        <ele>362.8602</ele>
        <time>2021-07-21T14:37:53Z</time>
      </trkpt>
      <trkpt lat="41.04131" lon="0.09036">
        <ele>358.9513</ele>
        <time>2021-07-21T14:38:04Z</time>
      </trkpt>
      <trkpt lat="41.04166" lon="0.09075">
        <ele>361.527</ele>
        <time>2021-07-21T14:38:15Z</time>
      </trkpt>
      <trkpt lat="41.04213" lon="0.0912">
        <ele>361.111</ele>
        <time>2021-07-21T14:38:26Z</time>
      </trkpt>
      <trkpt lat="41.0428" lon="0.09228">
        <ele>364.5377</ele>
        <time>2021-07-21T14:38:37Z</time>
      </trkpt>
      <trkpt lat="41.04311" lon="0.09307">
        <ele>364.3628</ele>
        <time>2021-07-21T14:38:48Z</time>
      </trkpt>
      <trkpt lat="41.04366" lon="0.09432">
        <ele>361.1245</ele>
        <time>2021-07-21T14:38:59Z</time>
      </trkpt>
      <trkpt lat="41.04448" lon="0.09591">
        <ele>354.384</ele>
        <time>2021-07-21T14:39:10Z</time>
      </trkpt>
      <trkpt lat="41.045" lon="0.0972">
        <ele>356.8805</ele>
        <time>2021-07-21T14:39:21Z</time>
      </trkpt>
      <trkpt lat="41.04571" lon="0.09874">
        <ele>361.0946</ele>
        <time>2021-07-21T14:39:32Z</time>
      </trkpt>
      <trkpt lat="41.04609" lon="0.10016">
        <ele>363.5841</ele>
        <time>2021-07-21T14:39:43Z</time>
      </trkpt>
      <trkpt lat="41.047" lon="0.10018">
        <ele>367.7872</ele>
        <time>2021-07-21T14:39:54Z</time>
      </trkpt>
      <trkpt lat="41.04778" lon="0.1001">
        <ele>367.1013</ele>
        <time>2021-07-21T14:40:05Z</time>
      </trkpt>
      <trkpt lat="41.04825" lon="0.10071">
        <ele>362.9967</ele>
        <time>2021-07-21T14:40:16Z</time>
      </trkpt>
      <trkpt lat="41.04852" lon="0.10134">
        <ele>355.2788</ele>
        <time>2021-07-21T14:40:27Z</time>
      </trkpt>
      <trkpt lat="41.04862" lon="0.10148">
        <ele>351.1091</ele>
        <time>2021-07-21T14:40:38Z</time>
      </trkpt>
      <trkpt lat="41.04925" lon="0.10215">
        <ele>350.9327</ele>
        <time>2021-07-21T14:40:49Z</time>
      </trkpt>
      <trkpt lat="41.04985" lon="0.10243">
        <ele>357.3337</ele>
        <time>2021-07-21T14:41:00Z</time>
      </trkpt>
      <trkpt lat="41.05025" lon="0.10273">
        <ele>359.3934</ele>
        <time>2021-07-21T14:41:11Z</time>
      </trkpt>
      <trkpt lat="41.05026" lon="0.10304">
        <ele>365.7738</ele>
        <time>2021-07-21T14:41:22Z</time>
      </trkpt>
      <trkpt lat="41.05004" lon="0.10356">
        <ele>364.6139</ele>
        <time>2021-07-21T14:41:33Z</time>
      </trkpt>
      <trkpt lat="41.04994" lon="0.10392">
        <ele>367.1449</ele>
        <time>2021-07-21T14:41:44Z</time>
      </trkpt>
      <trkpt lat="41.04999" lon="0.10384">
        <ele>366.596</ele>
        <time>2021-07-21T14:41:55Z</time>
      </trkpt>
      <trkpt lat="41.05" lon="0.10378">
        <ele>368.0414</ele>
        <time>2021-07-21T14:42:06Z</time>
      </trkpt>
      <trkpt lat="41.05" lon="0.10372">
        <ele>369.133</ele>
        <time>2021-07-21T14:42:17Z</time>
      </trkpt>
      <trkpt lat="41.04997" lon="0.10344">
        <ele>366.5787</ele>
        <time>2021-07-21T14:42:28Z</time>
      </trkpt>
      <trkpt lat="41.04988" lon="0.10366">
        <ele>361.8523</ele>
        <time>2021-07-21T14:42:39Z</time>
      </trkpt>
      <trkpt lat="41.04958" lon="0.10423">
        <ele>356.6112</ele>
        <time>2021-07-21T14:42:50Z</time>
      </trkpt>
      <trkpt lat="41.04965" lon="0.10501">
        <ele>348.5304</ele>
        <time>2021-07-21T14:43:01Z</time>
      </trkpt>
      <trkpt lat="41.04959" lon="0.10564">
        <ele>348.857</ele>
        <time>2021-07-21T14:43:12Z</time>
      </trkpt>
      <trkpt lat="41.04974" lon="0.10611">
        <ele>341.8721</ele>
        <time>2021-07-21T14:43:23Z</time>
      </trkpt>
      <trkpt lat="41.05067" lon="0.10716">
        <ele>330.1686</ele>
        <time>2021-07-21T14:43:34Z</time>
      </trkpt>
      <trkpt lat="41.05136" lon="0.10809">
        <ele>329.2495</ele>
        <time>2021-07-21T14:43:45Z</time>
      </trkpt>
      <trkpt lat="41.05195" lon="0.10831">
        <ele>329.017</ele>
        <time>2021-07-21T14:43:56Z</time>
      </trkpt>
      <trkpt lat="41.05205" lon="0.10831">
        <ele>329.3557</ele>
        <time>2021-07-21T14:44:07Z</time>
      </trkpt>
      <trkpt lat="41.05205" lon="0.10831">
        <ele>329.3557</ele>
        <time>2021-07-21T14:45:07Z</time>
      </trkpt>
      <trkpt lat="41.05204" lon="0.10827">
        <ele>328.1684</ele>
        <time>2021-07-21T14:46:00Z</time>
      </trkpt>
      <trkpt lat="41.05207" lon="0.10829">
        <ele>331.1999</ele>
        <time>2021-07-21T14:54:28Z</time>
      </trkpt>
      <trkpt lat="41.05207" lon="0.10827">
        <ele>328.199</ele>
        <time>2021-07-21T14:55:01Z</time>
      </trkpt>
      <trkpt lat="41.05211" lon="0.10836">
        <ele>327.9793</ele>
        <time>2021-07-21T14:55:28Z</time>
      </trkpt>
      <trkpt lat="41.05205" lon="0.10828">
        <ele>329.4805</ele>
        <time>2021-07-21T14:55:39Z</time>
      </trkpt>
      <trkpt lat="41.05203" lon="0.10829">
        <ele>327.4827</ele>
        <time>2021-07-21T15:03:03Z</time>
      </trkpt>
      <trkpt lat="41.05207" lon="0.10828">
        <ele>328.3486</ele>
        <time>2021-07-21T15:03:14Z</time>
      </trkpt>
      <trkpt lat="41.05205" lon="0.10828">
        <ele>328.2686</ele>
        <time>2021-07-21T15:04:15Z</time>
      </trkpt>
      <trkpt lat="41.0521" lon="0.10802">
        <ele>328.5253</ele>
        <time>2021-07-21T15:04:26Z</time>
      </trkpt>
      <trkpt lat="41.05229" lon="0.10694">
        <ele>326.212</ele>
        <time>2021-07-21T15:04:37Z</time>
      </trkpt>
      <trkpt lat="41.05281" lon="0.10577">
        <ele>326.6375</ele>
        <time>2021-07-21T15:04:48Z</time>
      </trkpt>
      <trkpt lat="41.05374" lon="0.10469">
        <ele>326.3922</ele>
        <time>2021-07-21T15:04:59Z</time>
      </trkpt>
      <trkpt lat="41.05503" lon="0.10431">
        <ele>325.1456</ele>
        <time>2021-07-21T15:05:10Z</time>
      </trkpt>
      <trkpt lat="41.05621" lon="0.10502">
        <ele>324.3665</ele>
        <time>2021-07-21T15:05:21Z</time>
      </trkpt>
      <trkpt lat="41.05725" lon="0.10681">
        <ele>324.761</ele>
        <time>2021-07-21T15:05:32Z</time>
      </trkpt>
      <trkpt lat="41.05851" lon="0.10765">
        <ele>322.7718</ele>
        <time>2021-07-21T15:05:43Z</time>
      </trkpt>
      <trkpt lat="41.05979" lon="0.10886">
        <ele>320.6276</ele>
        <time>2021-07-21T15:05:54Z</time>
      </trkpt>
      <trkpt lat="41.0605" lon="0.10931">
        <ele>319.7099</ele>
        <time>2021-07-21T15:06:05Z</time>
      </trkpt>
      <trkpt lat="41.06112" lon="0.10956">
        <ele>320.8847</ele>
        <time>2021-07-21T15:06:16Z</time>
      </trkpt>
      <trkpt lat="41.0617" lon="0.11075">
        <ele>320.1254</ele>
        <time>2021-07-21T15:06:27Z</time>
      </trkpt>
      <trkpt lat="41.06219" lon="0.11234">
        <ele>319.6216</ele>
        <time>2021-07-21T15:06:38Z</time>
      </trkpt>
      <trkpt lat="41.06264" lon="0.11423">
        <ele>318.8427</ele>
        <time>2021-07-21T15:06:49Z</time>
      </trkpt>
      <trkpt lat="41.0631" lon="0.11586">
        <ele>318.0737</ele>
        <time>2021-07-21T15:07:00Z</time>
      </trkpt>
      <trkpt lat="41.06315" lon="0.11609">
        <ele>317.6856</ele>
        <time>2021-07-21T15:07:11Z</time>
      </trkpt>
      <trkpt lat="41.06313" lon="0.1161">
        <ele>316.6211</ele>
        <time>2021-07-21T15:08:10Z</time>
      </trkpt>
      <trkpt lat="41.06313" lon="0.11616">
        <ele>317.2425</ele>
        <time>2021-07-21T15:08:49Z</time>
      </trkpt>
      <trkpt lat="41.06323" lon="0.11692">
        <ele>316.0168</ele>
        <time>2021-07-21T15:09:00Z</time>
      </trkpt>
      <trkpt lat="41.0636" lon="0.11793">
        <ele>311.6656</ele>
        <time>2021-07-21T15:09:11Z</time>
      </trkpt>
      <trkpt lat="41.06411" lon="0.11854">
        <ele>311.7272</ele>
        <time>2021-07-21T15:09:22Z</time>
      </trkpt>
      <trkpt lat="41.06476" lon="0.11919">
        <ele>315.3758</ele>
        <time>2021-07-21T15:09:33Z</time>
      </trkpt>
      <trkpt lat="41.0653" lon="0.1199">
        <ele>318.6387</ele>
        <time>2021-07-21T15:09:44Z</time>
      </trkpt>
      <trkpt lat="41.06566" lon="0.12002">
        <ele>320.2523</ele>
        <time>2021-07-21T15:09:55Z</time>
      </trkpt>
      <trkpt lat="41.06569" lon="0.12007">
        <ele>319.8275</ele>
        <time>2021-07-21T15:10:06Z</time>
      </trkpt>
      <trkpt lat="41.06565" lon="0.12006">
        <ele>318.4435</ele>
        <time>2021-07-21T15:10:22Z</time>
      </trkpt>
      <trkpt lat="41.06557" lon="0.12004">
        <ele>315.9615</ele>
        <time>2021-07-21T15:10:33Z</time>
      </trkpt>
      <trkpt lat="41.06551" lon="0.12006">
        <ele>315.497</ele>
        <time>2021-07-21T15:10:44Z</time>
      </trkpt>
      <trkpt lat="41.06563" lon="0.12018">
        <ele>315.4436</ele>
        <time>2021-07-21T15:10:55Z</time>
      </trkpt>
      <trkpt lat="41.06568" lon="0.12024">
        <ele>315.5905</ele>
        <time>2021-07-21T15:11:06Z</time>
      </trkpt>
      <trkpt lat="41.06566" lon="0.12024">
        <ele>315.2382</ele>
        <time>2021-07-21T15:12:04Z</time>
      </trkpt>
      <trkpt lat="41.06559" lon="0.12018">
        <ele>315.2088</ele>
        <time>2021-07-21T15:12:15Z</time>
      </trkpt>
      <trkpt lat="41.0655" lon="0.12009">
        <ele>315.5088</ele>
        <time>2021-07-21T15:12:26Z</time>
      </trkpt>
      <trkpt lat="41.06555" lon="0.12006">
        <ele>317.0777</ele>
        <time>2021-07-21T15:12:41Z</time>
      </trkpt>
      <trkpt lat="41.06586" lon="0.11978">
        <ele>317.2538</ele>
        <time>2021-07-21T15:12:52Z</time>
      </trkpt>
      <trkpt lat="41.06604" lon="0.11984">
        <ele>318.9984</ele>
        <time>2021-07-21T15:13:03Z</time>
      </trkpt>
      <trkpt lat="41.06635" lon="0.12018">
        <ele>318.7554</ele>
        <time>2021-07-21T15:13:14Z</time>
      </trkpt>
      <trkpt lat="41.06634" lon="0.11989">
        <ele>321.6494</ele>
        <time>2021-07-21T15:13:25Z</time>
      </trkpt>
      <trkpt lat="41.06645" lon="0.11993">
        <ele>321.1333</ele>
        <time>2021-07-21T15:13:36Z</time>
      </trkpt>
      <trkpt lat="41.06658" lon="0.11991">
        <ele>319.9372</ele>
        <time>2021-07-21T15:13:47Z</time>
      </trkpt>
      <trkpt lat="41.06717" lon="0.11985">
        <ele>320.846</ele>
        <time>2021-07-21T15:13:58Z</time>
      </trkpt>
      <trkpt lat="41.06817" lon="0.11994">
        <ele>320.7834</ele>
        <time>2021-07-21T15:14:09Z</time>
      </trkpt>
      <trkpt lat="41.06901" lon="0.1194">
        <ele>321.1224</ele>
        <time>2021-07-21T15:14:20Z</time>
      </trkpt>
      <trkpt lat="41.06994" lon="0.11876">
        <ele>320.7042</ele>
        <time>2021-07-21T15:14:31Z</time>
      </trkpt>
      <trkpt lat="41.07088" lon="0.11764">
        <ele>320.3571</ele>
        <time>2021-07-21T15:14:42Z</time>
      </trkpt>
      <trkpt lat="41.07113" lon="0.11727">
        <ele>320.0285</ele>
        <time>2021-07-21T15:14:53Z</time>
      </trkpt>
      <trkpt lat="41.07163" lon="0.11716">
        <ele>319.2733</ele>
        <time>2021-07-21T15:15:04Z</time>
      </trkpt>
      <trkpt lat="41.07221" lon="0.11802">
        <ele>299.6726</ele>
        <time>2021-07-21T15:15:15Z</time>
      </trkpt>
      <trkpt lat="41.07248" lon="0.11851">
        <ele>306.9907</ele>
        <time>2021-07-21T15:15:26Z</time>
      </trkpt>
      <trkpt lat="41.07242" lon="0.11878">
        <ele>316.1268</ele>
        <time>2021-07-21T15:15:37Z</time>
      </trkpt>
      <trkpt lat="41.07269" lon="0.11905">
        <ele>310.1972</ele>
        <time>2021-07-21T15:15:48Z</time>
      </trkpt>
      <trkpt lat="41.07322" lon="0.11935">
        <ele>309.3519</ele>
        <time>2021-07-21T15:15:59Z</time>
      </trkpt>
      <trkpt lat="41.07356" lon="0.11919">
        <ele>308.6521</ele>
        <time>2021-07-21T15:16:10Z</time>
      </trkpt>
      <trkpt lat="41.07394" lon="0.11901">
        <ele>309.0173</ele>
        <time>2021-07-21T15:16:21Z</time>
      </trkpt>
      <trkpt lat="41.07422" lon="0.11883">
        <ele>309.1987</ele>
        <time>2021-07-21T15:16:32Z</time>
      </trkpt>
      <trkpt lat="41.07455" lon="0.11869">
        <ele>308.2893</ele>
        <time>2021-07-21T15:16:43Z</time>
      </trkpt>
      <trkpt lat="41.07495" lon="0.11861">
        <ele>307.7835</ele>
        <time>2021-07-21T15:16:54Z</time>
      </trkpt>
      <trkpt lat="41.07557" lon="0.11846">
        <ele>302.2823</ele>
        <time>2021-07-21T15:17:05Z</time>
      </trkpt>
      <trkpt lat="41.07605" lon="0.11847">
        <ele>302.6429</ele>
        <time>2021-07-21T15:17:16Z</time>
      </trkpt>
      <trkpt lat="41.0765" lon="0.11851">
        <ele>309.3767</ele>
        <time>2021-07-21T15:17:27Z</time>
      </trkpt>
      <trkpt lat="41.07696" lon="0.11866">
        <ele>310.4777</ele>
        <time>2021-07-21T15:17:38Z</time>
      </trkpt>
      <trkpt lat="41.07743" lon="0.11889">
        <ele>310.4373</ele>
        <time>2021-07-21T15:17:49Z</time>
      </trkpt>
      <trkpt lat="41.07813" lon="0.11928">
        <ele>305.6811</ele>
        <time>2021-07-21T15:18:00Z</time>
      </trkpt>
      <trkpt lat="41.07861" lon="0.11973">
        <ele>304.0267</ele>
        <time>2021-07-21T15:18:11Z</time>
      </trkpt>
      <trkpt lat="41.07901" lon="0.12033">
        <ele>303.4639</ele>
        <time>2021-07-21T15:18:22Z</time>
      </trkpt>
      <trkpt lat="41.07937" lon="0.12087">
        <ele>306.4415</ele>
        <time>2021-07-21T15:18:33Z</time>
      </trkpt>
      <trkpt lat="41.0796" lon="0.12155">
        <ele>305.3395</ele>
        <time>2021-07-21T15:18:44Z</time>
      </trkpt>
      <trkpt lat="41.07983" lon="0.12224">
        <ele>302.0323</ele>
        <time>2021-07-21T15:18:55Z</time>
      </trkpt>
      <trkpt lat="41.08002" lon="0.12292">
        <ele>300.5432</ele>
        <time>2021-07-21T15:19:06Z</time>
      </trkpt>
      <trkpt lat="41.08013" lon="0.1233">
        <ele>305.7144</ele>
        <time>2021-07-21T15:19:17Z</time>
      </trkpt>
      <trkpt lat="41.08004" lon="0.12349">
        <ele>313.7968</ele>
        <time>2021-07-21T15:19:28Z</time>
      </trkpt>
      <trkpt lat="41.07961" lon="0.12374">
        <ele>313.4877</ele>
        <time>2021-07-21T15:19:39Z</time>
      </trkpt>
      <trkpt lat="41.07924" lon="0.12361">
        <ele>314.8986</ele>
        <time>2021-07-21T15:19:50Z</time>
      </trkpt>
      <trkpt lat="41.07902" lon="0.12359">
        <ele>316.0731</ele>
        <time>2021-07-21T15:20:01Z</time>
      </trkpt>
      <trkpt lat="41.07902" lon="0.12358">
        <ele>315.8809</ele>
        <time>2021-07-21T15:21:01Z</time>
      </trkpt>
      <trkpt lat="41.07902" lon="0.1236">
        <ele>315.9362</ele>
        <time>2021-07-21T15:22:01Z</time>
      </trkpt>
      <trkpt lat="41.07893" lon="0.12352">
        <ele>317.0493</ele>
        <time>2021-07-21T15:35:01Z</time>
      </trkpt>
      <trkpt lat="41.07897" lon="0.12357">
        <ele>316.7098</ele>
        <time>2021-07-21T15:35:12Z</time>
      </trkpt>
      <trkpt lat="41.07901" lon="0.12355">
        <ele>316.36</ele>
        <time>2021-07-21T15:35:27Z</time>
      </trkpt>
      <trkpt lat="41.07901" lon="0.12356">
        <ele>315.9776</ele>
        <time>2021-07-21T15:36:26Z</time>
      </trkpt>
      <trkpt lat="41.07902" lon="0.12361">
        <ele>316.0073</ele>
        <time>2021-07-21T15:37:26Z</time>
      </trkpt>
      <trkpt lat="41.07901" lon="0.12363">
        <ele>315.6027</ele>
        <time>2021-07-21T15:38:26Z</time>
      </trkpt>
      <trkpt lat="41.07901" lon="0.12361">
        <ele>315.6523</ele>
        <time>2021-07-21T15:39:26Z</time>
      </trkpt>
      <trkpt lat="41.079" lon="0.12363">
        <ele>315.6257</ele>
        <time>2021-07-21T15:40:26Z</time>
      </trkpt>
      <trkpt lat="41.07901" lon="0.1236">
        <ele>315.6077</ele>
        <time>2021-07-21T15:41:26Z</time>
      </trkpt>
      <trkpt lat="41.079" lon="0.12365">
        <ele>315.5309</ele>
        <time>2021-07-21T15:42:26Z</time>
      </trkpt>
      <trkpt lat="41.07901" lon="0.1236">
        <ele>315.8357</ele>
        <time>2021-07-21T15:43:24Z</time>
      </trkpt>
      <trkpt lat="41.07902" lon="0.12362">
        <ele>315.4611</ele>
        <time>2021-07-21T15:44:24Z</time>
      </trkpt>
      <trkpt lat="41.07902" lon="0.12363">
        <ele>315.9199</ele>
        <time>2021-07-21T15:45:23Z</time>
      </trkpt>
      <trkpt lat="41.079" lon="0.12362">
        <ele>316.2309</ele>
        <time>2021-07-21T15:46:22Z</time>
      </trkpt>
      <trkpt lat="41.07897" lon="0.12368">
        <ele>316.5656</ele>
        <time>2021-07-21T15:47:00Z</time>
      </trkpt>
      <trkpt lat="41.07837" lon="0.1243">
        <ele>318.803</ele>
        <time>2021-07-21T15:47:11Z</time>
      </trkpt>
      <trkpt lat="41.07832" lon="0.12521">
        <ele>319.6225</ele>
        <time>2021-07-21T15:47:22Z</time>
      </trkpt>
      <trkpt lat="41.07865" lon="0.12584">
        <ele>319.6711</ele>
        <time>2021-07-21T15:47:33Z</time>
      </trkpt>
      <trkpt lat="41.07891" lon="0.12599">
        <ele>323.6469</ele>
        <time>2021-07-21T15:47:44Z</time>
      </trkpt>
      <trkpt lat="41.07897" lon="0.12601">
        <ele>323.1906</ele>
        <time>2021-07-21T15:48:13Z</time>
      </trkpt>
      <trkpt lat="41.07965" lon="0.12644">
        <ele>318.8554</ele>
        <time>2021-07-21T15:48:24Z</time>
      </trkpt>
      <trkpt lat="41.08024" lon="0.12725">
        <ele>322.0019</ele>
        <time>2021-07-21T15:48:35Z</time>
      </trkpt>
      <trkpt lat="41.08115" lon="0.12761">
        <ele>318.7146</ele>
        <time>2021-07-21T15:48:46Z</time>
      </trkpt>
      <trkpt lat="41.08143" lon="0.12879">
        <ele>312.9881</ele>
        <time>2021-07-21T15:48:57Z</time>
      </trkpt>
      <trkpt lat="41.08225" lon="0.1289">
        <ele>311.7518</ele>
        <time>2021-07-21T15:49:08Z</time>
      </trkpt>
      <trkpt lat="41.08318" lon="0.12811">
        <ele>312.0144</ele>
        <time>2021-07-21T15:49:19Z</time>
      </trkpt>
      <trkpt lat="41.08399" lon="0.12704">
        <ele>302.5982</ele>
        <time>2021-07-21T15:49:30Z</time>
      </trkpt>
      <trkpt lat="41.08495" lon="0.12638">
        <ele>308.902</ele>
        <time>2021-07-21T15:49:41Z</time>
      </trkpt>
      <trkpt lat="41.08578" lon="0.12563">
        <ele>312.1719</ele>
        <time>2021-07-21T15:49:52Z</time>
      </trkpt>
      <trkpt lat="41.08631" lon="0.12445">
        <ele>302.0437</ele>
        <time>2021-07-21T15:50:03Z</time>
      </trkpt>
      <trkpt lat="41.08699" lon="0.12312">
        <ele>301.1533</ele>
        <time>2021-07-21T15:50:14Z</time>
      </trkpt>
      <trkpt lat="41.08726" lon="0.12285">
        <ele>307.1114</ele>
        <time>2021-07-21T15:50:25Z</time>
      </trkpt>
      <trkpt lat="41.08819" lon="0.12244">
        <ele>312.6755</ele>
        <time>2021-07-21T15:50:36Z</time>
      </trkpt>
      <trkpt lat="41.08913" lon="0.1216">
        <ele>306.4477</ele>
        <time>2021-07-21T15:50:47Z</time>
      </trkpt>
      <trkpt lat="41.09021" lon="0.12118">
        <ele>306.6883</ele>
        <time>2021-07-21T15:50:58Z</time>
      </trkpt>
      <trkpt lat="41.09141" lon="0.12101">
        <ele>303.1696</ele>
        <time>2021-07-21T15:51:09Z</time>
      </trkpt>
      <trkpt lat="41.09271" lon="0.12112">
        <ele>300.4261</ele>
        <time>2021-07-21T15:51:20Z</time>
      </trkpt>
      <trkpt lat="41.09354" lon="0.12168">
        <ele>297.8466</ele>
        <time>2021-07-21T15:51:31Z</time>
      </trkpt>
      <trkpt lat="41.09418" lon="0.12173">
        <ele>295.4936</ele>
        <time>2021-07-21T15:51:42Z</time>
      </trkpt>
      <trkpt lat="41.095" lon="0.12098">
        <ele>292.1162</ele>
        <time>2021-07-21T15:51:53Z</time>
      </trkpt>
      <trkpt lat="41.09461" lon="0.12024">
        <ele>294.411</ele>
        <time>2021-07-21T15:52:04Z</time>
      </trkpt>
      <trkpt lat="41.09487" lon="0.11962">
        <ele>290.1222</ele>
        <time>2021-07-21T15:52:15Z</time>
      </trkpt>
      <trkpt lat="41.09538" lon="0.11915">
        <ele>294.7069</ele>
        <time>2021-07-21T15:52:26Z</time>
      </trkpt>
      <trkpt lat="41.09607" lon="0.11939">
        <ele>305.1159</ele>
        <time>2021-07-21T15:52:37Z</time>
      </trkpt>
      <trkpt lat="41.09691" lon="0.11959">
        <ele>307.5625</ele>
        <time>2021-07-21T15:52:48Z</time>
      </trkpt>
      <trkpt lat="41.09779" lon="0.1198">
        <ele>307.94</ele>
        <time>2021-07-21T15:52:59Z</time>
      </trkpt>
      <trkpt lat="41.09898" lon="0.12056">
        <ele>302.8264</ele>
        <time>2021-07-21T15:53:10Z</time>
      </trkpt>
      <trkpt lat="41.10059" lon="0.12156">
        <ele>303.9287</ele>
        <time>2021-07-21T15:53:21Z</time>
      </trkpt>
      <trkpt lat="41.10236" lon="0.1227">
        <ele>302.0094</ele>
        <time>2021-07-21T15:53:32Z</time>
      </trkpt>
      <trkpt lat="41.1041" lon="0.12403">
        <ele>300.8367</ele>
        <time>2021-07-21T15:53:43Z</time>
      </trkpt>
      <trkpt lat="41.10526" lon="0.12593">
        <ele>304.8451</ele>
        <time>2021-07-21T15:53:54Z</time>
      </trkpt>
      <trkpt lat="41.10728" lon="0.12781">
        <ele>294.6898</ele>
        <time>2021-07-21T15:54:05Z</time>
      </trkpt>
      <trkpt lat="41.1092" lon="0.12946">
        <ele>293.9578</ele>
        <time>2021-07-21T15:54:16Z</time>
      </trkpt>
      <trkpt lat="41.1111" lon="0.13051">
        <ele>296.6563</ele>
        <time>2021-07-21T15:54:27Z</time>
      </trkpt>
      <trkpt lat="41.11299" lon="0.13073">
        <ele>291.8035</ele>
        <time>2021-07-21T15:54:38Z</time>
      </trkpt>
      <trkpt lat="41.11501" lon="0.13142">
        <ele>287.7031</ele>
        <time>2021-07-21T15:54:49Z</time>
      </trkpt>
      <trkpt lat="41.11683" lon="0.13296">
        <ele>284.3141</ele>
        <time>2021-07-21T15:55:00Z</time>
      </trkpt>
      <trkpt lat="41.11831" lon="0.1349">
        <ele>283.2199</ele>
        <time>2021-07-21T15:55:11Z</time>
      </trkpt>
      <trkpt lat="41.11949" lon="0.13609">
        <ele>287.9269</ele>
        <time>2021-07-21T15:55:22Z</time>
      </trkpt>
      <trkpt lat="41.12017" lon="0.13676">
        <ele>292.58</ele>
        <time>2021-07-21T15:55:33Z</time>
      </trkpt>
      <trkpt lat="41.12021" lon="0.13685">
        <ele>292.8347</ele>
        <time>2021-07-21T15:55:45Z</time>
      </trkpt>
      <trkpt lat="41.12064" lon="0.13726">
        <ele>298.4115</ele>
        <time>2021-07-21T15:55:56Z</time>
      </trkpt>
      <trkpt lat="41.12071" lon="0.13733">
        <ele>302.8746</ele>
        <time>2021-07-21T15:56:07Z</time>
      </trkpt>
      <trkpt lat="41.1213" lon="0.13689">
        <ele>302.2688</ele>
        <time>2021-07-21T15:56:18Z</time>
      </trkpt>
      <trkpt lat="41.12226" lon="0.13698">
        <ele>300.2424</ele>
        <time>2021-07-21T15:56:29Z</time>
      </trkpt>
      <trkpt lat="41.12336" lon="0.1366">
        <ele>297.7201</ele>
        <time>2021-07-21T15:56:40Z</time>
      </trkpt>
      <trkpt lat="41.12448" lon="0.13611">
        <ele>298.0134</ele>
        <time>2021-07-21T15:56:51Z</time>
      </trkpt>
      <trkpt lat="41.12562" lon="0.13505">
        <ele>293.7086</ele>
        <time>2021-07-21T15:57:02Z</time>
      </trkpt>
      <trkpt lat="41.1269" lon="0.13358">
        <ele>287.7167</ele>
        <time>2021-07-21T15:57:13Z</time>
      </trkpt>
      <trkpt lat="41.12849" lon="0.13097">
        <ele>280.5721</ele>
        <time>2021-07-21T15:57:24Z</time>
      </trkpt>
      <trkpt lat="41.13029" lon="0.12979">
        <ele>277.4628</ele>
        <time>2021-07-21T15:57:35Z</time>
      </trkpt>
      <trkpt lat="41.13268" lon="0.13057">
        <ele>275.5598</ele>
        <time>2021-07-21T15:57:46Z</time>
      </trkpt>
      <trkpt lat="41.13494" lon="0.13168">
        <ele>274.3273</ele>
        <time>2021-07-21T15:57:57Z</time>
      </trkpt>
      <trkpt lat="41.13736" lon="0.13101">
        <ele>277.7247</ele>
        <time>2021-07-21T15:58:08Z</time>
      </trkpt>
      <trkpt lat="41.13968" lon="0.13039">
        <ele>287.2702</ele>
        <time>2021-07-21T15:58:19Z</time>
      </trkpt>
      <trkpt lat="41.14192" lon="0.1314">
        <ele>282.3025</ele>
        <time>2021-07-21T15:58:30Z</time>
      </trkpt>
      <trkpt lat="41.14435" lon="0.13185">
        <ele>273.184</ele>
        <time>2021-07-21T15:58:41Z</time>
      </trkpt>
      <trkpt lat="41.14672" lon="0.13235">
        <ele>269.1823</ele>
        <time>2021-07-21T15:58:52Z</time>
      </trkpt>
      <trkpt lat="41.14906" lon="0.13284">
        <ele>270.5274</ele>
        <time>2021-07-21T15:59:03Z</time>
      </trkpt>
      <trkpt lat="41.15148" lon="0.13257">
        <ele>267.966</ele>
        <time>2021-07-21T15:59:14Z</time>
      </trkpt>
      <trkpt lat="41.15391" lon="0.13249">
        <ele>262.6938</ele>
        <time>2021-07-21T15:59:25Z</time>
      </trkpt>
      <trkpt lat="41.15626" lon="0.13229">
        <ele>260.1311</ele>
        <time>2021-07-21T15:59:36Z</time>
      </trkpt>
      <trkpt lat="41.15867" lon="0.13206">
        <ele>257.9388</ele>
        <time>2021-07-21T15:59:47Z</time>
      </trkpt>
      <trkpt lat="41.16099" lon="0.13161">
        <ele>258.8167</ele>
        <time>2021-07-21T15:59:58Z</time>
      </trkpt>
      <trkpt lat="41.16326" lon="0.13147">
        <ele>256.6743</ele>
        <time>2021-07-21T16:00:09Z</time>
      </trkpt>
      <trkpt lat="41.16553" lon="0.1323">
        <ele>256.543</ele>
        <time>2021-07-21T16:00:20Z</time>
      </trkpt>
      <trkpt lat="41.16785" lon="0.13308">
        <ele>251.9523</ele>
        <time>2021-07-21T16:00:31Z</time>
      </trkpt>
      <trkpt lat="41.17021" lon="0.13381">
        <ele>250.8909</ele>
        <time>2021-07-21T16:00:42Z</time>
      </trkpt>
      <trkpt lat="41.17255" lon="0.13455">
        <ele>254.5064</ele>
        <time>2021-07-21T16:00:53Z</time>
      </trkpt>
      <trkpt lat="41.17453" lon="0.13611">
        <ele>255.9728</ele>
        <time>2021-07-21T16:01:04Z</time>
      </trkpt>
      <trkpt lat="41.17565" lon="0.13895">
        <ele>252.3808</ele>
        <time>2021-07-21T16:01:15Z</time>
      </trkpt>
      <trkpt lat="41.17663" lon="0.14175">
        <ele>257.633</ele>
        <time>2021-07-21T16:01:26Z</time>
      </trkpt>
      <trkpt lat="41.17733" lon="0.14471">
        <ele>265.5522</ele>
        <time>2021-07-21T16:01:37Z</time>
      </trkpt>
      <trkpt lat="41.17795" lon="0.14781">
        <ele>266.1747</ele>
        <time>2021-07-21T16:01:48Z</time>
      </trkpt>
      <trkpt lat="41.17939" lon="0.15016">
        <ele>257.703</ele>
        <time>2021-07-21T16:01:59Z</time>
      </trkpt>
      <trkpt lat="41.18189" lon="0.15065">
        <ele>250.5157</ele>
        <time>2021-07-21T16:02:10Z</time>
      </trkpt>
      <trkpt lat="41.18446" lon="0.15095">
        <ele>253.6376</ele>
        <time>2021-07-21T16:02:21Z</time>
      </trkpt>
      <trkpt lat="41.18702" lon="0.15124">
        <ele>246.9014</ele>
        <time>2021-07-21T16:02:32Z</time>
      </trkpt>
      <trkpt lat="41.18948" lon="0.15153">
        <ele>255.6327</ele>
        <time>2021-07-21T16:02:43Z</time>
      </trkpt>
      <trkpt lat="41.19187" lon="0.15178">
        <ele>259.7761</ele>
        <time>2021-07-21T16:02:54Z</time>
      </trkpt>
      <trkpt lat="41.19349" lon="0.15145">
        <ele>264.9073</ele>
        <time>2021-07-21T16:03:05Z</time>
      </trkpt>
      <trkpt lat="41.19518" lon="0.1507">
        <ele>266.318</ele>
        <time>2021-07-21T16:03:16Z</time>
      </trkpt>
      <trkpt lat="41.19645" lon="0.15144">
        <ele>277.1849</ele>
        <time>2021-07-21T16:03:27Z</time>
      </trkpt>
      <trkpt lat="41.19788" lon="0.15263">
        <ele>272.5892</ele>
        <time>2021-07-21T16:03:38Z</time>
      </trkpt>
      <trkpt lat="41.19891" lon="0.15351">
        <ele>271.1694</ele>
        <time>2021-07-21T16:03:49Z</time>
      </trkpt>
      <trkpt lat="41.20036" lon="0.15377">
        <ele>259.0041</ele>
        <time>2021-07-21T16:04:00Z</time>
      </trkpt>
      <trkpt lat="41.20162" lon="0.15339">
        <ele>249.8594</ele>
        <time>2021-07-21T16:04:11Z</time>
      </trkpt>
      <trkpt lat="41.20294" lon="0.15444">
        <ele>234.2118</ele>
        <time>2021-07-21T16:04:22Z</time>
      </trkpt>
      <trkpt lat="41.20526" lon="0.15456">
        <ele>222.7999</ele>
        <time>2021-07-21T16:04:33Z</time>
      </trkpt>
      <trkpt lat="41.20714" lon="0.15442">
        <ele>228.0452</ele>
        <time>2021-07-21T16:04:44Z</time>
      </trkpt>
      <trkpt lat="41.20852" lon="0.15256">
        <ele>237.7211</ele>
        <time>2021-07-21T16:04:55Z</time>
      </trkpt>
      <trkpt lat="41.20953" lon="0.15049">
        <ele>239.7806</ele>
        <time>2021-07-21T16:05:06Z</time>
      </trkpt>
      <trkpt lat="41.21044" lon="0.14859">
        <ele>241.9498</ele>
        <time>2021-07-21T16:05:17Z</time>
      </trkpt>
      <trkpt lat="41.21187" lon="0.14876">
        <ele>255.2707</ele>
        <time>2021-07-21T16:05:28Z</time>
      </trkpt>
      <trkpt lat="41.21349" lon="0.14943">
        <ele>266.0616</ele>
        <time>2021-07-21T16:05:39Z</time>
      </trkpt>
      <trkpt lat="41.21463" lon="0.15082">
        <ele>259.486</ele>
        <time>2021-07-21T16:05:50Z</time>
      </trkpt>
      <trkpt lat="41.21593" lon="0.15091">
        <ele>277.1766</ele>
        <time>2021-07-21T16:06:01Z</time>
      </trkpt>
      <trkpt lat="41.2174" lon="0.15087">
        <ele>295.5086</ele>
        <time>2021-07-21T16:06:12Z</time>
      </trkpt>
      <trkpt lat="41.21941" lon="0.15093">
        <ele>287.7203</ele>
        <time>2021-07-21T16:06:23Z</time>
      </trkpt>
      <trkpt lat="41.22138" lon="0.15078">
        <ele>283.6072</ele>
        <time>2021-07-21T16:06:34Z</time>
      </trkpt>
      <trkpt lat="41.22305" lon="0.15015">
        <ele>285.4176</ele>
        <time>2021-07-21T16:06:45Z</time>
      </trkpt>
      <trkpt lat="41.22443" lon="0.14826">
        <ele>284.6563</ele>
        <time>2021-07-21T16:06:56Z</time>
      </trkpt>
      <trkpt lat="41.22641" lon="0.14623">
        <ele>285.1686</ele>
        <time>2021-07-21T16:07:07Z</time>
      </trkpt>
      <trkpt lat="41.22816" lon="0.14417">
        <ele>284.811</ele>
        <time>2021-07-21T16:07:18Z</time>
      </trkpt>
      <trkpt lat="41.23023" lon="0.14416">
        <ele>283.3073</ele>
        <time>2021-07-21T16:07:29Z</time>
      </trkpt>
      <trkpt lat="41.23249" lon="0.14401">
        <ele>274.9184</ele>
        <time>2021-07-21T16:07:40Z</time>
      </trkpt>
      <trkpt lat="41.23382" lon="0.14365">
        <ele>262.8544</ele>
        <time>2021-07-21T16:07:51Z</time>
      </trkpt>
      <trkpt lat="41.23452" lon="0.14551">
        <ele>265.4132</ele>
        <time>2021-07-21T16:08:02Z</time>
      </trkpt>
      <trkpt lat="41.23515" lon="0.14858">
        <ele>272.0954</ele>
        <time>2021-07-21T16:08:13Z</time>
      </trkpt>
      <trkpt lat="41.2358" lon="0.15067">
        <ele>267.6933</ele>
        <time>2021-07-21T16:08:24Z</time>
      </trkpt>
      <trkpt lat="41.23775" lon="0.15213">
        <ele>264.6837</ele>
        <time>2021-07-21T16:08:35Z</time>
      </trkpt>
      <trkpt lat="41.23967" lon="0.15372">
        <ele>270.6611</ele>
        <time>2021-07-21T16:08:46Z</time>
      </trkpt>
      <trkpt lat="41.24107" lon="0.15519">
        <ele>280.1301</ele>
        <time>2021-07-21T16:08:57Z</time>
      </trkpt>
      <trkpt lat="41.24328" lon="0.15529">
        <ele>294.9382</ele>
        <time>2021-07-21T16:09:08Z</time>
      </trkpt>
      <trkpt lat="41.24495" lon="0.15622">
        <ele>296.5134</ele>
        <time>2021-07-21T16:09:19Z</time>
      </trkpt>
      <trkpt lat="41.24631" lon="0.15641">
        <ele>290.0669</ele>
        <time>2021-07-21T16:09:30Z</time>
      </trkpt>
      <trkpt lat="41.24851" lon="0.15821">
        <ele>290.0452</ele>
        <time>2021-07-21T16:09:41Z</time>
      </trkpt>
      <trkpt lat="41.25072" lon="0.1598">
        <ele>284.0152</ele>
        <time>2021-07-21T16:09:52Z</time>
      </trkpt>
      <trkpt lat="41.25281" lon="0.16082">
        <ele>278.9903</ele>
        <time>2021-07-21T16:10:03Z</time>
      </trkpt>
      <trkpt lat="41.2548" lon="0.16305">
        <ele>277.3224</ele>
        <time>2021-07-21T16:10:14Z</time>
      </trkpt>
      <trkpt lat="41.25651" lon="0.16404">
        <ele>274.1055</ele>
        <time>2021-07-21T16:10:25Z</time>
      </trkpt>
      <trkpt lat="41.2583" lon="0.16557">
        <ele>274.9616</ele>
        <time>2021-07-21T16:10:36Z</time>
      </trkpt>
      <trkpt lat="41.25966" lon="0.16713">
        <ele>270.9064</ele>
        <time>2021-07-21T16:10:47Z</time>
      </trkpt>
      <trkpt lat="41.26206" lon="0.16797">
        <ele>275.1438</ele>
        <time>2021-07-21T16:10:58Z</time>
      </trkpt>
      <trkpt lat="41.26361" lon="0.16955">
        <ele>276.2209</ele>
        <time>2021-07-21T16:11:09Z</time>
      </trkpt>
      <trkpt lat="41.26473" lon="0.17279">
        <ele>265.1579</ele>
        <time>2021-07-21T16:11:20Z</time>
      </trkpt>
      <trkpt lat="41.26567" lon="0.17514">
        <ele>253.5006</ele>
        <time>2021-07-21T16:11:31Z</time>
      </trkpt>
      <trkpt lat="41.26722" lon="0.17733">
        <ele>256.3</ele>
        <time>2021-07-21T16:11:42Z</time>
      </trkpt>
      <trkpt lat="41.26851" lon="0.17953">
        <ele>255.7284</ele>
        <time>2021-07-21T16:11:53Z</time>
      </trkpt>
      <trkpt lat="41.26995" lon="0.1824">
        <ele>249.2801</ele>
        <time>2021-07-21T16:12:04Z</time>
      </trkpt>
      <trkpt lat="41.27132" lon="0.18491">
        <ele>263.4249</ele>
        <time>2021-07-21T16:12:15Z</time>
      </trkpt>
      <trkpt lat="41.27295" lon="0.18595">
        <ele>265.456</ele>
        <time>2021-07-21T16:12:26Z</time>
      </trkpt>
      <trkpt lat="41.27449" lon="0.18635">
        <ele>262.8948</ele>
        <time>2021-07-21T16:12:37Z</time>
      </trkpt>
      <trkpt lat="41.27614" lon="0.18688">
        <ele>265.9052</ele>
        <time>2021-07-21T16:12:48Z</time>
      </trkpt>
      <trkpt lat="41.27782" lon="0.18784">
        <ele>269.3482</ele>
        <time>2021-07-21T16:12:59Z</time>
      </trkpt>
      <trkpt lat="41.27907" lon="0.18945">
        <ele>266.6658</ele>
        <time>2021-07-21T16:13:10Z</time>
      </trkpt>
      <trkpt lat="41.27969" lon="0.19232">
        <ele>264.8496</ele>
        <time>2021-07-21T16:13:21Z</time>
      </trkpt>
      <trkpt lat="41.28032" lon="0.19569">
        <ele>265.5989</ele>
        <time>2021-07-21T16:13:32Z</time>
      </trkpt>
      <trkpt lat="41.28095" lon="0.19912">
        <ele>267.2308</ele>
        <time>2021-07-21T16:13:43Z</time>
      </trkpt>
      <trkpt lat="41.28236" lon="0.20216">
        <ele>266.9415</ele>
        <time>2021-07-21T16:13:54Z</time>
      </trkpt>
      <trkpt lat="41.28392" lon="0.20515">
        <ele>249.2936</ele>
        <time>2021-07-21T16:14:05Z</time>
      </trkpt>
      <trkpt lat="41.28541" lon="0.20802">
        <ele>255.9048</ele>
        <time>2021-07-21T16:14:16Z</time>
      </trkpt>
      <trkpt lat="41.28678" lon="0.21092">
        <ele>265.3113</ele>
        <time>2021-07-21T16:14:27Z</time>
      </trkpt>
      <trkpt lat="41.28884" lon="0.21218">
        <ele>255.2896</ele>
        <time>2021-07-21T16:14:38Z</time>
      </trkpt>
      <trkpt lat="41.29048" lon="0.21439">
        <ele>257.619</ele>
        <time>2021-07-21T16:14:49Z</time>
      </trkpt>
      <trkpt lat="41.29207" lon="0.21583">
        <ele>255.5748</ele>
        <time>2021-07-21T16:15:00Z</time>
      </trkpt>
      <trkpt lat="41.29181" lon="0.21831">
        <ele>268.9533</ele>
        <time>2021-07-21T16:15:11Z</time>
      </trkpt>
      <trkpt lat="41.29348" lon="0.2204">
        <ele>275.4015</ele>
        <time>2021-07-21T16:15:22Z</time>
      </trkpt>
      <trkpt lat="41.29408" lon="0.22329">
        <ele>286.9621</ele>
        <time>2021-07-21T16:15:33Z</time>
      </trkpt>
      <trkpt lat="41.29559" lon="0.22496">
        <ele>302.1593</ele>
        <time>2021-07-21T16:15:44Z</time>
      </trkpt>
      <trkpt lat="41.29579" lon="0.22764">
        <ele>305.3394</ele>
        <time>2021-07-21T16:15:55Z</time>
      </trkpt>
      <trkpt lat="41.29522" lon="0.23065">
        <ele>306.5837</ele>
        <time>2021-07-21T16:16:06Z</time>
      </trkpt>
      <trkpt lat="41.29582" lon="0.23302">
        <ele>303.5145</ele>
        <time>2021-07-21T16:16:17Z</time>
      </trkpt>
      <trkpt lat="41.29616" lon="0.2362">
        <ele>300.5422</ele>
        <time>2021-07-21T16:16:28Z</time>
      </trkpt>
      <trkpt lat="41.29613" lon="0.23981">
        <ele>303.1974</ele>
        <time>2021-07-21T16:16:39Z</time>
      </trkpt>
      <trkpt lat="41.29668" lon="0.2432">
        <ele>311.3946</ele>
        <time>2021-07-21T16:16:50Z</time>
      </trkpt>
      <trkpt lat="41.29576" lon="0.2462">
        <ele>308.2966</ele>
        <time>2021-07-21T16:17:01Z</time>
      </trkpt>
      <trkpt lat="41.29516" lon="0.25035">
        <ele>308.4128</ele>
        <time>2021-07-21T16:17:12Z</time>
      </trkpt>
      <trkpt lat="41.29451" lon="0.25396">
        <ele>307.6672</ele>
        <time>2021-07-21T16:17:23Z</time>
      </trkpt>
      <trkpt lat="41.29433" lon="0.25708">
        <ele>313.4387</ele>
        <time>2021-07-21T16:17:34Z</time>
      </trkpt>
      <trkpt lat="41.29369" lon="0.26056">
        <ele>316.8662</ele>
        <time>2021-07-21T16:17:45Z</time>
      </trkpt>
      <trkpt lat="41.29327" lon="0.26431">
        <ele>312.6329</ele>
        <time>2021-07-21T16:17:56Z</time>
      </trkpt>
      <trkpt lat="41.29288" lon="0.26791">
        <ele>308.0269</ele>
        <time>2021-07-21T16:18:07Z</time>
      </trkpt>
      <trkpt lat="41.29316" lon="0.2716">
        <ele>297.8194</ele>
        <time>2021-07-21T16:18:18Z</time>
      </trkpt>
      <trkpt lat="41.29372" lon="0.27459">
        <ele>302.3542</ele>
        <time>2021-07-21T16:18:29Z</time>
      </trkpt>
      <trkpt lat="41.29487" lon="0.27815">
        <ele>301.3817</ele>
        <time>2021-07-21T16:18:40Z</time>
      </trkpt>
      <trkpt lat="41.29571" lon="0.28117">
        <ele>302.5024</ele>
        <time>2021-07-21T16:18:51Z</time>
      </trkpt>
      <trkpt lat="41.29729" lon="0.28286">
        <ele>301.8802</ele>
        <time>2021-07-21T16:19:02Z</time>
      </trkpt>
      <trkpt lat="41.29895" lon="0.28558">
        <ele>300.3908</ele>
        <time>2021-07-21T16:19:13Z</time>
      </trkpt>
      <trkpt lat="41.30104" lon="0.28692">
        <ele>299.8295</ele>
        <time>2021-07-21T16:19:25Z</time>
      </trkpt>
      <trkpt lat="41.30277" lon="0.28918">
        <ele>298.103</ele>
        <time>2021-07-21T16:19:36Z</time>
      </trkpt>
      <trkpt lat="41.30487" lon="0.29108">
        <ele>303.13</ele>
        <time>2021-07-21T16:19:47Z</time>
      </trkpt>
      <trkpt lat="41.30712" lon="0.29233">
        <ele>300.0071</ele>
        <time>2021-07-21T16:19:58Z</time>
      </trkpt>
      <trkpt lat="41.30851" lon="0.29464">
        <ele>306.5057</ele>
        <time>2021-07-21T16:20:09Z</time>
      </trkpt>
      <trkpt lat="41.30929" lon="0.29648">
        <ele>308.4091</ele>
        <time>2021-07-21T16:20:20Z</time>
      </trkpt>
      <trkpt lat="41.31002" lon="0.2983">
        <ele>311.7125</ele>
        <time>2021-07-21T16:20:31Z</time>
      </trkpt>
      <trkpt lat="41.3107" lon="0.30003">
        <ele>313.3076</ele>
        <time>2021-07-21T16:20:42Z</time>
      </trkpt>
      <trkpt lat="41.3114" lon="0.30179">
        <ele>317.3079</ele>
        <time>2021-07-21T16:20:53Z</time>
      </trkpt>
      <trkpt lat="41.31248" lon="0.30334">
        <ele>323.3974</ele>
        <time>2021-07-21T16:21:04Z</time>
      </trkpt>
      <trkpt lat="41.314" lon="0.30563">
        <ele>333.0054</ele>
        <time>2021-07-21T16:21:15Z</time>
      </trkpt>
      <trkpt lat="41.31568" lon="0.30872">
        <ele>334.6266</ele>
        <time>2021-07-21T16:21:26Z</time>
      </trkpt>
      <trkpt lat="41.31745" lon="0.31161">
        <ele>335.1525</ele>
        <time>2021-07-21T16:21:37Z</time>
      </trkpt>
      <trkpt lat="41.31918" lon="0.31334">
        <ele>340.8216</ele>
        <time>2021-07-21T16:21:48Z</time>
      </trkpt>
      <trkpt lat="41.32176" lon="0.31399">
        <ele>347.874</ele>
        <time>2021-07-21T16:21:59Z</time>
      </trkpt>
      <trkpt lat="41.32397" lon="0.31533">
        <ele>344.1106</ele>
        <time>2021-07-21T16:22:10Z</time>
      </trkpt>
      <trkpt lat="41.32599" lon="0.31525">
        <ele>339.6094</ele>
        <time>2021-07-21T16:22:21Z</time>
      </trkpt>
      <trkpt lat="41.32881" lon="0.31442">
        <ele>321.4093</ele>
        <time>2021-07-21T16:22:32Z</time>
      </trkpt>
      <trkpt lat="41.33124" lon="0.31369">
        <ele>310.2901</ele>
        <time>2021-07-21T16:22:43Z</time>
      </trkpt>
      <trkpt lat="41.33319" lon="0.31116">
        <ele>303.332</ele>
        <time>2021-07-21T16:22:54Z</time>
      </trkpt>
      <trkpt lat="41.33542" lon="0.30869">
        <ele>295.3258</ele>
        <time>2021-07-21T16:23:05Z</time>
      </trkpt>
      <trkpt lat="41.33781" lon="0.30677">
        <ele>287.9798</ele>
        <time>2021-07-21T16:23:16Z</time>
      </trkpt>
      <trkpt lat="41.3404" lon="0.30564">
        <ele>284.4299</ele>
        <time>2021-07-21T16:23:27Z</time>
      </trkpt>
      <trkpt lat="41.34246" lon="0.30381">
        <ele>278.7817</ele>
        <time>2021-07-21T16:23:38Z</time>
      </trkpt>
      <trkpt lat="41.34429" lon="0.301">
        <ele>267.8469</ele>
        <time>2021-07-21T16:23:49Z</time>
      </trkpt>
      <trkpt lat="41.34602" lon="0.30041">
        <ele>262.0242</ele>
        <time>2021-07-21T16:24:00Z</time>
      </trkpt>
      <trkpt lat="41.34711" lon="0.30105">
        <ele>250.5858</ele>
        <time>2021-07-21T16:24:11Z</time>
      </trkpt>
      <trkpt lat="41.34713" lon="0.30103">
        <ele>247.5794</ele>
        <time>2021-07-21T16:25:11Z</time>
      </trkpt>
      <trkpt lat="41.34713" lon="0.30103">
        <ele>247.5794</ele>
        <time>2021-07-21T16:26:11Z</time>
      </trkpt>
      <trkpt lat="41.34713" lon="0.30103">
        <ele>247.5794</ele>
        <time>2021-07-21T16:27:11Z</time>
      </trkpt>
      <trkpt lat="41.34714" lon="0.30107">
        <ele>248.9065</ele>
        <time>2021-07-21T16:28:11Z</time>
      </trkpt>
      <trkpt lat="41.34713" lon="0.30111">
        <ele>247.3534</ele>
        <time>2021-07-21T16:29:10Z</time>
      </trkpt>
      <trkpt lat="41.34713" lon="0.30112">
        <ele>246.8996</ele>
        <time>2021-07-21T16:30:09Z</time>
      </trkpt>
      <trkpt lat="41.34712" lon="0.3011">
        <ele>247.4083</ele>
        <time>2021-07-21T16:31:09Z</time>
      </trkpt>
      <trkpt lat="41.34712" lon="0.30112">
        <ele>246.5918</ele>
        <time>2021-07-21T16:32:09Z</time>
      </trkpt>
      <trkpt lat="41.34712" lon="0.30106">
        <ele>245.9542</ele>
        <time>2021-07-21T16:33:06Z</time>
      </trkpt>
      <trkpt lat="41.34714" lon="0.30108">
        <ele>247.6572</ele>
        <time>2021-07-21T16:34:06Z</time>
      </trkpt>
      <trkpt lat="41.34717" lon="0.30104">
        <ele>246.9834</ele>
        <time>2021-07-21T16:34:18Z</time>
      </trkpt>
      <trkpt lat="41.34737" lon="0.30024">
        <ele>247.1936</ele>
        <time>2021-07-21T16:34:29Z</time>
      </trkpt>
      <trkpt lat="41.34724" lon="0.29975">
        <ele>246.2701</ele>
        <time>2021-07-21T16:34:40Z</time>
      </trkpt>
      <trkpt lat="41.34741" lon="0.30075">
        <ele>238.1595</ele>
        <time>2021-07-21T16:34:51Z</time>
      </trkpt>
      <trkpt lat="41.34646" lon="0.30128">
        <ele>224.2943</ele>
        <time>2021-07-21T16:35:02Z</time>
      </trkpt>
      <trkpt lat="41.34499" lon="0.30198">
        <ele>212.7764</ele>
        <time>2021-07-21T16:35:13Z</time>
      </trkpt>
      <trkpt lat="41.34577" lon="0.304">
        <ele>198.8882</ele>
        <time>2021-07-21T16:35:24Z</time>
      </trkpt>
      <trkpt lat="41.34634" lon="0.30481">
        <ele>199.4095</ele>
        <time>2021-07-21T16:35:35Z</time>
      </trkpt>
      <trkpt lat="41.34678" lon="0.30326">
        <ele>187.1812</ele>
        <time>2021-07-21T16:35:46Z</time>
      </trkpt>
      <trkpt lat="41.34895" lon="0.3025">
        <ele>168.0248</ele>
        <time>2021-07-21T16:35:57Z</time>
      </trkpt>
      <trkpt lat="41.35066" lon="0.30139">
        <ele>149.4944</ele>
        <time>2021-07-21T16:36:08Z</time>
      </trkpt>
      <trkpt lat="41.35249" lon="0.30029">
        <ele>127.9028</ele>
        <time>2021-07-21T16:36:19Z</time>
      </trkpt>
      <trkpt lat="41.35385" lon="0.29949">
        <ele>113.7992</ele>
        <time>2021-07-21T16:36:30Z</time>
      </trkpt>
      <trkpt lat="41.35502" lon="0.29795">
        <ele>99.38284</ele>
        <time>2021-07-21T16:36:41Z</time>
      </trkpt>
      <trkpt lat="41.35686" lon="0.29704">
        <ele>79.51901</ele>
        <time>2021-07-21T16:36:52Z</time>
      </trkpt>
      <trkpt lat="41.35816" lon="0.29612">
        <ele>73.90652</ele>
        <time>2021-07-21T16:37:03Z</time>
      </trkpt>
      <trkpt lat="41.35828" lon="0.29423">
        <ele>74.04156</ele>
        <time>2021-07-21T16:37:14Z</time>
      </trkpt>
      <trkpt lat="41.35889" lon="0.29349">
        <ele>81.29569</ele>
        <time>2021-07-21T16:37:25Z</time>
      </trkpt>
      <trkpt lat="41.36037" lon="0.29313">
        <ele>84.98755</ele>
        <time>2021-07-21T16:37:36Z</time>
      </trkpt>
      <trkpt lat="41.36111" lon="0.2939">
        <ele>85.86182</ele>
        <time>2021-07-21T16:37:47Z</time>
      </trkpt>
      <trkpt lat="41.36119" lon="0.29722">
        <ele>81.82935</ele>
        <time>2021-07-21T16:37:58Z</time>
      </trkpt>
      <trkpt lat="41.36267" lon="0.29988">
        <ele>72.73277</ele>
        <time>2021-07-21T16:38:09Z</time>
      </trkpt>
      <trkpt lat="41.36506" lon="0.30027">
        <ele>69.82341</ele>
        <time>2021-07-21T16:38:20Z</time>
      </trkpt>
      <trkpt lat="41.3671" lon="0.29999">
        <ele>78.77156</ele>
        <time>2021-07-21T16:38:31Z</time>
      </trkpt>
      <trkpt lat="41.36745" lon="0.30107">
        <ele>79.73569</ele>
        <time>2021-07-21T16:38:42Z</time>
      </trkpt>
      <trkpt lat="41.36715" lon="0.30339">
        <ele>79.38035</ele>
        <time>2021-07-21T16:38:53Z</time>
      </trkpt>
      <trkpt lat="41.36683" lon="0.30596">
        <ele>76.05421</ele>
        <time>2021-07-21T16:39:04Z</time>
      </trkpt>
      <trkpt lat="41.36659" lon="0.30744">
        <ele>73.11506</ele>
        <time>2021-07-21T16:39:15Z</time>
      </trkpt>
      <trkpt lat="41.36797" lon="0.30764">
        <ele>73.95603</ele>
        <time>2021-07-21T16:39:26Z</time>
      </trkpt>
      <trkpt lat="41.36966" lon="0.30904">
        <ele>73.71179</ele>
        <time>2021-07-21T16:39:37Z</time>
      </trkpt>
      <trkpt lat="41.37108" lon="0.31023">
        <ele>77.95614</ele>
        <time>2021-07-21T16:39:48Z</time>
      </trkpt>
      <trkpt lat="41.37307" lon="0.31128">
        <ele>82.41481</ele>
        <time>2021-07-21T16:39:59Z</time>
      </trkpt>
      <trkpt lat="41.3756" lon="0.31288">
        <ele>86.17504</ele>
        <time>2021-07-21T16:40:10Z</time>
      </trkpt>
      <trkpt lat="41.37781" lon="0.31432">
        <ele>84.82701</ele>
        <time>2021-07-21T16:40:21Z</time>
      </trkpt>
      <trkpt lat="41.38006" lon="0.31573">
        <ele>85.77351</ele>
        <time>2021-07-21T16:40:32Z</time>
      </trkpt>
      <trkpt lat="41.38207" lon="0.31772">
        <ele>82.07024</ele>
        <time>2021-07-21T16:40:43Z</time>
      </trkpt>
      <trkpt lat="41.38454" lon="0.31859">
        <ele>80.42773</ele>
        <time>2021-07-21T16:40:54Z</time>
      </trkpt>
      <trkpt lat="41.38691" lon="0.31865">
        <ele>77.80316</ele>
        <time>2021-07-21T16:41:05Z</time>
      </trkpt>
      <trkpt lat="41.3888" lon="0.32043">
        <ele>75.25695</ele>
        <time>2021-07-21T16:41:16Z</time>
      </trkpt>
      <trkpt lat="41.39102" lon="0.32193">
        <ele>72.66375</ele>
        <time>2021-07-21T16:41:27Z</time>
      </trkpt>
      <trkpt lat="41.39333" lon="0.32283">
        <ele>71.66834</ele>
        <time>2021-07-21T16:41:38Z</time>
      </trkpt>
      <trkpt lat="41.3956" lon="0.32419">
        <ele>72.19309</ele>
        <time>2021-07-21T16:41:49Z</time>
      </trkpt>
      <trkpt lat="41.39746" lon="0.32656">
        <ele>79.27765</ele>
        <time>2021-07-21T16:42:00Z</time>
      </trkpt>
      <trkpt lat="41.39905" lon="0.32899">
        <ele>77.59012</ele>
        <time>2021-07-21T16:42:11Z</time>
      </trkpt>
      <trkpt lat="41.40073" lon="0.33102">
        <ele>78.26421</ele>
        <time>2021-07-21T16:42:22Z</time>
      </trkpt>
      <trkpt lat="41.40286" lon="0.33326">
        <ele>82.75411</ele>
        <time>2021-07-21T16:42:33Z</time>
      </trkpt>
      <trkpt lat="41.40496" lon="0.33556">
        <ele>77.33585</ele>
        <time>2021-07-21T16:42:44Z</time>
      </trkpt>
      <trkpt lat="41.4063" lon="0.33857">
        <ele>71.54673</ele>
        <time>2021-07-21T16:42:55Z</time>
      </trkpt>
      <trkpt lat="41.40749" lon="0.34157">
        <ele>72.39841</ele>
        <time>2021-07-21T16:43:06Z</time>
      </trkpt>
      <trkpt lat="41.40968" lon="0.34322">
        <ele>71.19569</ele>
        <time>2021-07-21T16:43:17Z</time>
      </trkpt>
      <trkpt lat="41.41161" lon="0.34503">
        <ele>71.9779</ele>
        <time>2021-07-21T16:43:28Z</time>
      </trkpt>
      <trkpt lat="41.41375" lon="0.34444">
        <ele>72.32007</ele>
        <time>2021-07-21T16:43:39Z</time>
      </trkpt>
      <trkpt lat="41.4161" lon="0.34538">
        <ele>74.48911</ele>
        <time>2021-07-21T16:43:50Z</time>
      </trkpt>
      <trkpt lat="41.41778" lon="0.34672">
        <ele>71.52426</ele>
        <time>2021-07-21T16:44:01Z</time>
      </trkpt>
      <trkpt lat="41.41945" lon="0.34815">
        <ele>71.13246</ele>
        <time>2021-07-21T16:44:12Z</time>
      </trkpt>
      <trkpt lat="41.42087" lon="0.34967">
        <ele>72.43447</ele>
        <time>2021-07-21T16:44:23Z</time>
      </trkpt>
      <trkpt lat="41.42276" lon="0.35118">
        <ele>72.18935</ele>
        <time>2021-07-21T16:44:34Z</time>
      </trkpt>
      <trkpt lat="41.42361" lon="0.35226">
        <ele>73.68508</ele>
        <time>2021-07-21T16:44:45Z</time>
      </trkpt>
      <trkpt lat="41.42546" lon="0.35398">
        <ele>72.58372</ele>
        <time>2021-07-21T16:44:56Z</time>
      </trkpt>
      <trkpt lat="41.4278" lon="0.35585">
        <ele>72.21095</ele>
        <time>2021-07-21T16:45:07Z</time>
      </trkpt>
      <trkpt lat="41.43015" lon="0.35772">
        <ele>78.62161</ele>
        <time>2021-07-21T16:45:18Z</time>
      </trkpt>
      <trkpt lat="41.43242" lon="0.35967">
        <ele>85.38532</ele>
        <time>2021-07-21T16:45:29Z</time>
      </trkpt>
      <trkpt lat="41.43411" lon="0.3626">
        <ele>87.15019</ele>
        <time>2021-07-21T16:45:40Z</time>
      </trkpt>
      <trkpt lat="41.43559" lon="0.36558">
        <ele>89.42884</ele>
        <time>2021-07-21T16:45:51Z</time>
      </trkpt>
      <trkpt lat="41.43711" lon="0.3686">
        <ele>90.17938</ele>
        <time>2021-07-21T16:46:02Z</time>
      </trkpt>
      <trkpt lat="41.43863" lon="0.37164">
        <ele>91.66228</ele>
        <time>2021-07-21T16:46:13Z</time>
      </trkpt>
      <trkpt lat="41.44014" lon="0.37459">
        <ele>91.14486</ele>
        <time>2021-07-21T16:46:24Z</time>
      </trkpt>
      <trkpt lat="41.44149" lon="0.37734">
        <ele>92.75876</ele>
        <time>2021-07-21T16:46:35Z</time>
      </trkpt>
      <trkpt lat="41.44312" lon="0.37945">
        <ele>92.11252</ele>
        <time>2021-07-21T16:46:46Z</time>
      </trkpt>
      <trkpt lat="41.44437" lon="0.38182">
        <ele>94.69386</ele>
        <time>2021-07-21T16:46:57Z</time>
      </trkpt>
      <trkpt lat="41.44593" lon="0.38393">
        <ele>95.59926</ele>
        <time>2021-07-21T16:47:08Z</time>
      </trkpt>
      <trkpt lat="41.44745" lon="0.38599">
        <ele>98.2682</ele>
        <time>2021-07-21T16:47:19Z</time>
      </trkpt>
      <trkpt lat="41.44919" lon="0.38781">
        <ele>96.49278</ele>
        <time>2021-07-21T16:47:30Z</time>
      </trkpt>
      <trkpt lat="41.45061" lon="0.39018">
        <ele>96.82235</ele>
        <time>2021-07-21T16:47:41Z</time>
      </trkpt>
      <trkpt lat="41.45181" lon="0.39246">
        <ele>96.28875</ele>
        <time>2021-07-21T16:47:52Z</time>
      </trkpt>
      <trkpt lat="41.45323" lon="0.39507">
        <ele>93.72948</ele>
        <time>2021-07-21T16:48:03Z</time>
      </trkpt>
      <trkpt lat="41.45475" lon="0.39774">
        <ele>94.03815</ele>
        <time>2021-07-21T16:48:14Z</time>
      </trkpt>
      <trkpt lat="41.45644" lon="0.40033">
        <ele>96.55489</ele>
        <time>2021-07-21T16:48:25Z</time>
      </trkpt>
      <trkpt lat="41.45832" lon="0.40297">
        <ele>99.14796</ele>
        <time>2021-07-21T16:48:36Z</time>
      </trkpt>
      <trkpt lat="41.45995" lon="0.40568">
        <ele>99.73489</ele>
        <time>2021-07-21T16:48:47Z</time>
      </trkpt>
      <trkpt lat="41.46047" lon="0.4075">
        <ele>95.06202</ele>
        <time>2021-07-21T16:48:58Z</time>
      </trkpt>
      <trkpt lat="41.46058" lon="0.4077">
        <ele>93.7322</ele>
        <time>2021-07-21T16:49:09Z</time>
      </trkpt>
      <trkpt lat="41.46079" lon="0.40808">
        <ele>94.30227</ele>
        <time>2021-07-21T16:49:20Z</time>
      </trkpt>
      <trkpt lat="41.46175" lon="0.40913">
        <ele>101.0291</ele>
        <time>2021-07-21T16:49:31Z</time>
      </trkpt>
      <trkpt lat="41.46235" lon="0.41006">
        <ele>99.2437</ele>
        <time>2021-07-21T16:49:42Z</time>
      </trkpt>
      <trkpt lat="41.46269" lon="0.41067">
        <ele>98.42758</ele>
        <time>2021-07-21T16:49:53Z</time>
      </trkpt>
      <trkpt lat="41.46323" lon="0.41118">
        <ele>99.57334</ele>
        <time>2021-07-21T16:50:04Z</time>
      </trkpt>
      <trkpt lat="41.46387" lon="0.41191">
        <ele>103.5376</ele>
        <time>2021-07-21T16:50:15Z</time>
      </trkpt>
      <trkpt lat="41.46473" lon="0.4128">
        <ele>100.9682</ele>
        <time>2021-07-21T16:50:26Z</time>
      </trkpt>
      <trkpt lat="41.46536" lon="0.41373">
        <ele>105.7873</ele>
        <time>2021-07-21T16:50:37Z</time>
      </trkpt>
      <trkpt lat="41.46592" lon="0.41455">
        <ele>107.095</ele>
        <time>2021-07-21T16:50:48Z</time>
      </trkpt>
      <trkpt lat="41.46661" lon="0.41559">
        <ele>99.61412</ele>
        <time>2021-07-21T16:50:59Z</time>
      </trkpt>
      <trkpt lat="41.46716" lon="0.41649">
        <ele>104.532</ele>
        <time>2021-07-21T16:51:10Z</time>
      </trkpt>
      <trkpt lat="41.46788" lon="0.41833">
        <ele>104.6116</ele>
        <time>2021-07-21T16:51:21Z</time>
      </trkpt>
      <trkpt lat="41.46855" lon="0.42018">
        <ele>103.3224</ele>
        <time>2021-07-21T16:51:32Z</time>
      </trkpt>
      <trkpt lat="41.46879" lon="0.42111">
        <ele>102.1158</ele>
        <time>2021-07-21T16:51:43Z</time>
      </trkpt>
      <trkpt lat="41.46881" lon="0.42115">
        <ele>100.0032</ele>
        <time>2021-07-21T16:51:54Z</time>
      </trkpt>
      <trkpt lat="41.46887" lon="0.4211">
        <ele>97.96077</ele>
        <time>2021-07-21T16:52:05Z</time>
      </trkpt>
      <trkpt lat="41.46886" lon="0.42107">
        <ele>95.99732</ele>
        <time>2021-07-21T16:53:04Z</time>
      </trkpt>
      <trkpt lat="41.46887" lon="0.42112">
        <ele>96.34698</ele>
        <time>2021-07-21T16:53:20Z</time>
      </trkpt>
      <trkpt lat="41.46889" lon="0.42116">
        <ele>93.7417</ele>
        <time>2021-07-21T16:53:34Z</time>
      </trkpt>
      <trkpt lat="41.46889" lon="0.42116">
        <ele>93.70048</ele>
        <time>2021-07-21T16:54:33Z</time>
      </trkpt>
      <trkpt lat="41.4689" lon="0.42118">
        <ele>90.9148</ele>
        <time>2021-07-21T16:55:32Z</time>
      </trkpt>
      <trkpt lat="41.4689" lon="0.42117">
        <ele>90.75254</ele>
        <time>2021-07-21T16:56:31Z</time>
      </trkpt>
      <trkpt lat="41.46892" lon="0.42122">
        <ele>89.9853</ele>
        <time>2021-07-21T16:57:08Z</time>
      </trkpt>
      <trkpt lat="41.46894" lon="0.42128">
        <ele>96.48275</ele>
        <time>2021-07-21T16:57:19Z</time>
      </trkpt>
      <trkpt lat="41.46897" lon="0.42131">
        <ele>103.5534</ele>
        <time>2021-07-21T16:57:46Z</time>
      </trkpt>
      <trkpt lat="41.46899" lon="0.42136">
        <ele>105.7697</ele>
        <time>2021-07-21T16:58:09Z</time>
      </trkpt>
      <trkpt lat="41.46896" lon="0.42132">
        <ele>111.3778</ele>
        <time>2021-07-21T16:59:04Z</time>
      </trkpt>
      <trkpt lat="41.46895" lon="0.42129">
        <ele>113.5967</ele>
        <time>2021-07-21T17:00:03Z</time>
      </trkpt>
      <trkpt lat="41.46917" lon="0.42163">
        <ele>111.2952</ele>
        <time>2021-07-21T17:00:14Z</time>
      </trkpt>
      <trkpt lat="41.47026" lon="0.42319">
        <ele>106.1097</ele>
        <time>2021-07-21T17:00:25Z</time>
      </trkpt>
      <trkpt lat="41.47153" lon="0.42423">
        <ele>104.9775</ele>
        <time>2021-07-21T17:00:36Z</time>
      </trkpt>
      <trkpt lat="41.47296" lon="0.42603">
        <ele>102.5582</ele>
        <time>2021-07-21T17:00:47Z</time>
      </trkpt>
      <trkpt lat="41.47388" lon="0.42768">
        <ele>104.2815</ele>
        <time>2021-07-21T17:00:58Z</time>
      </trkpt>
      <trkpt lat="41.47568" lon="0.43033">
        <ele>100.8662</ele>
        <time>2021-07-21T17:01:09Z</time>
      </trkpt>
      <trkpt lat="41.47736" lon="0.43307">
        <ele>101.0421</ele>
        <time>2021-07-21T17:01:20Z</time>
      </trkpt>
      <trkpt lat="41.47877" lon="0.43581">
        <ele>102.089</ele>
        <time>2021-07-21T17:01:31Z</time>
      </trkpt>
      <trkpt lat="41.48024" lon="0.4387">
        <ele>105.51</ele>
        <time>2021-07-21T17:01:42Z</time>
      </trkpt>
      <trkpt lat="41.48185" lon="0.44146">
        <ele>113.8711</ele>
        <time>2021-07-21T17:01:53Z</time>
      </trkpt>
      <trkpt lat="41.48334" lon="0.44438">
        <ele>107.052</ele>
        <time>2021-07-21T17:02:04Z</time>
      </trkpt>
      <trkpt lat="41.48489" lon="0.44705">
        <ele>104.7447</ele>
        <time>2021-07-21T17:02:15Z</time>
      </trkpt>
      <trkpt lat="41.48655" lon="0.44985">
        <ele>105.4775</ele>
        <time>2021-07-21T17:02:26Z</time>
      </trkpt>
      <trkpt lat="41.48814" lon="0.45238">
        <ele>106.6924</ele>
        <time>2021-07-21T17:02:37Z</time>
      </trkpt>
      <trkpt lat="41.48997" lon="0.45414">
        <ele>104.1545</ele>
        <time>2021-07-21T17:02:48Z</time>
      </trkpt>
      <trkpt lat="41.49058" lon="0.45546">
        <ele>107.401</ele>
        <time>2021-07-21T17:02:59Z</time>
      </trkpt>
      <trkpt lat="41.49109" lon="0.45717">
        <ele>107.4585</ele>
        <time>2021-07-21T17:03:10Z</time>
      </trkpt>
      <trkpt lat="41.49187" lon="0.45842">
        <ele>107.4567</ele>
        <time>2021-07-21T17:03:21Z</time>
      </trkpt>
      <trkpt lat="41.49265" lon="0.45911">
        <ele>111.3984</ele>
        <time>2021-07-21T17:03:32Z</time>
      </trkpt>
      <trkpt lat="41.49347" lon="0.4596">
        <ele>111.1145</ele>
        <time>2021-07-21T17:03:43Z</time>
      </trkpt>
      <trkpt lat="41.49381" lon="0.45977">
        <ele>118.0901</ele>
        <time>2021-07-21T17:03:54Z</time>
      </trkpt>
      <trkpt lat="41.49432" lon="0.46011">
        <ele>118.2634</ele>
        <time>2021-07-21T17:04:05Z</time>
      </trkpt>
      <trkpt lat="41.49517" lon="0.46064">
        <ele>117.0918</ele>
        <time>2021-07-21T17:04:16Z</time>
      </trkpt>
      <trkpt lat="41.49611" lon="0.46125">
        <ele>119.4818</ele>
        <time>2021-07-21T17:04:27Z</time>
      </trkpt>
      <trkpt lat="41.49706" lon="0.4618">
        <ele>119.3765</ele>
        <time>2021-07-21T17:04:38Z</time>
      </trkpt>
      <trkpt lat="41.49793" lon="0.4624">
        <ele>121.6755</ele>
        <time>2021-07-21T17:04:49Z</time>
      </trkpt>
      <trkpt lat="41.49827" lon="0.4633">
        <ele>116.1234</ele>
        <time>2021-07-21T17:05:00Z</time>
      </trkpt>
      <trkpt lat="41.4986" lon="0.46422">
        <ele>113.4999</ele>
        <time>2021-07-21T17:05:11Z</time>
      </trkpt>
      <trkpt lat="41.49914" lon="0.46587">
        <ele>116.1304</ele>
        <time>2021-07-21T17:05:22Z</time>
      </trkpt>
      <trkpt lat="41.50013" lon="0.46792">
        <ele>114.767</ele>
        <time>2021-07-21T17:05:33Z</time>
      </trkpt>
      <trkpt lat="41.50104" lon="0.47013">
        <ele>114.8695</ele>
        <time>2021-07-21T17:05:44Z</time>
      </trkpt>
      <trkpt lat="41.50239" lon="0.47159">
        <ele>112.7756</ele>
        <time>2021-07-21T17:05:55Z</time>
      </trkpt>
      <trkpt lat="41.50443" lon="0.4722">
        <ele>111.3894</ele>
        <time>2021-07-21T17:06:06Z</time>
      </trkpt>
      <trkpt lat="41.50601" lon="0.47412">
        <ele>111.657</ele>
        <time>2021-07-21T17:06:17Z</time>
      </trkpt>
      <trkpt lat="41.50796" lon="0.47496">
        <ele>110.963</ele>
        <time>2021-07-21T17:06:28Z</time>
      </trkpt>
      <trkpt lat="41.51" lon="0.47607">
        <ele>113.5457</ele>
        <time>2021-07-21T17:06:39Z</time>
      </trkpt>
      <trkpt lat="41.51196" lon="0.47715">
        <ele>112.6034</ele>
        <time>2021-07-21T17:06:50Z</time>
      </trkpt>
      <trkpt lat="41.51418" lon="0.478">
        <ele>111.8696</ele>
        <time>2021-07-21T17:07:01Z</time>
      </trkpt>
      <trkpt lat="41.51638" lon="0.47829">
        <ele>114.409</ele>
        <time>2021-07-21T17:07:12Z</time>
      </trkpt>
      <trkpt lat="41.51857" lon="0.47929">
        <ele>116.3768</ele>
        <time>2021-07-21T17:07:23Z</time>
      </trkpt>
      <trkpt lat="41.52101" lon="0.48027">
        <ele>117.5006</ele>
        <time>2021-07-21T17:07:34Z</time>
      </trkpt>
      <trkpt lat="41.52334" lon="0.48099">
        <ele>117.3782</ele>
        <time>2021-07-21T17:07:45Z</time>
      </trkpt>
      <trkpt lat="41.5254" lon="0.48243">
        <ele>117.9987</ele>
        <time>2021-07-21T17:07:56Z</time>
      </trkpt>
      <trkpt lat="41.52735" lon="0.48292">
        <ele>116.5893</ele>
        <time>2021-07-21T17:08:07Z</time>
      </trkpt>
      <trkpt lat="41.52884" lon="0.48396">
        <ele>116.5334</ele>
        <time>2021-07-21T17:08:18Z</time>
      </trkpt>
      <trkpt lat="41.52959" lon="0.48411">
        <ele>119.2144</ele>
        <time>2021-07-21T17:08:29Z</time>
      </trkpt>
      <trkpt lat="41.52994" lon="0.48438">
        <ele>118.3945</ele>
        <time>2021-07-21T17:08:40Z</time>
      </trkpt>
      <trkpt lat="41.53032" lon="0.4839">
        <ele>118.5248</ele>
        <time>2021-07-21T17:08:51Z</time>
      </trkpt>
      <trkpt lat="41.5314" lon="0.4837">
        <ele>118.4823</ele>
        <time>2021-07-21T17:09:02Z</time>
      </trkpt>
      <trkpt lat="41.53255" lon="0.48354">
        <ele>124.6525</ele>
        <time>2021-07-21T17:09:13Z</time>
      </trkpt>
      <trkpt lat="41.53342" lon="0.48364">
        <ele>131.5453</ele>
        <time>2021-07-21T17:09:24Z</time>
      </trkpt>
      <trkpt lat="41.53463" lon="0.48395">
        <ele>138.189</ele>
        <time>2021-07-21T17:09:35Z</time>
      </trkpt>
      <trkpt lat="41.53577" lon="0.48426">
        <ele>138.8644</ele>
        <time>2021-07-21T17:09:46Z</time>
      </trkpt>
      <trkpt lat="41.53616" lon="0.48437">
        <ele>139.2045</ele>
        <time>2021-07-21T17:09:57Z</time>
      </trkpt>
      <trkpt lat="41.53636" lon="0.48449">
        <ele>141.8323</ele>
        <time>2021-07-21T17:10:08Z</time>
      </trkpt>
      <trkpt lat="41.537" lon="0.48491">
        <ele>142.8224</ele>
        <time>2021-07-21T17:10:19Z</time>
      </trkpt>
      <trkpt lat="41.53791" lon="0.4867">
        <ele>137.685</ele>
        <time>2021-07-21T17:10:30Z</time>
      </trkpt>
      <trkpt lat="41.53855" lon="0.48797">
        <ele>126.4446</ele>
        <time>2021-07-21T17:10:41Z</time>
      </trkpt>
      <trkpt lat="41.5388" lon="0.48847">
        <ele>124.4574</ele>
        <time>2021-07-21T17:10:52Z</time>
      </trkpt>
      <trkpt lat="41.53977" lon="0.48907">
        <ele>125.8687</ele>
        <time>2021-07-21T17:11:03Z</time>
      </trkpt>
      <trkpt lat="41.54114" lon="0.48996">
        <ele>128.5374</ele>
        <time>2021-07-21T17:11:14Z</time>
      </trkpt>
      <trkpt lat="41.54237" lon="0.49111">
        <ele>131.7768</ele>
        <time>2021-07-21T17:11:25Z</time>
      </trkpt>
      <trkpt lat="41.54379" lon="0.4923">
        <ele>135.2</ele>
        <time>2021-07-21T17:11:36Z</time>
      </trkpt>
      <trkpt lat="41.54566" lon="0.49344">
        <ele>127.083</ele>
        <time>2021-07-21T17:11:47Z</time>
      </trkpt>
      <trkpt lat="41.54759" lon="0.4946">
        <ele>126.7831</ele>
        <time>2021-07-21T17:11:58Z</time>
      </trkpt>
      <trkpt lat="41.54938" lon="0.49566">
        <ele>126.3569</ele>
        <time>2021-07-21T17:12:09Z</time>
      </trkpt>
      <trkpt lat="41.55096" lon="0.49662">
        <ele>129.1402</ele>
        <time>2021-07-21T17:12:20Z</time>
      </trkpt>
      <trkpt lat="41.55202" lon="0.4973">
        <ele>130.3432</ele>
        <time>2021-07-21T17:12:31Z</time>
      </trkpt>
      <trkpt lat="41.5523" lon="0.49746">
        <ele>127.7867</ele>
        <time>2021-07-21T17:12:42Z</time>
      </trkpt>
      <trkpt lat="41.55282" lon="0.49782">
        <ele>126.1472</ele>
        <time>2021-07-21T17:12:53Z</time>
      </trkpt>
      <trkpt lat="41.55345" lon="0.50041">
        <ele>126.5388</ele>
        <time>2021-07-21T17:13:04Z</time>
      </trkpt>
      <trkpt lat="41.55434" lon="0.50329">
        <ele>127.8658</ele>
        <time>2021-07-21T17:13:15Z</time>
      </trkpt>
      <trkpt lat="41.55521" lon="0.50504">
        <ele>126.7125</ele>
        <time>2021-07-21T17:13:26Z</time>
      </trkpt>
      <trkpt lat="41.55595" lon="0.50628">
        <ele>127.2332</ele>
        <time>2021-07-21T17:13:37Z</time>
      </trkpt>
      <trkpt lat="41.55697" lon="0.50809">
        <ele>128.3428</ele>
        <time>2021-07-21T17:13:48Z</time>
      </trkpt>
      <trkpt lat="41.55813" lon="0.51045">
        <ele>131.1665</ele>
        <time>2021-07-21T17:13:59Z</time>
      </trkpt>
      <trkpt lat="41.5596" lon="0.51266">
        <ele>129.5824</ele>
        <time>2021-07-21T17:14:10Z</time>
      </trkpt>
      <trkpt lat="41.5605" lon="0.51397">
        <ele>133.8135</ele>
        <time>2021-07-21T17:14:21Z</time>
      </trkpt>
      <trkpt lat="41.56082" lon="0.51452">
        <ele>135.6455</ele>
        <time>2021-07-21T17:14:32Z</time>
      </trkpt>
      <trkpt lat="41.56196" lon="0.51571">
        <ele>132.1479</ele>
        <time>2021-07-21T17:14:43Z</time>
      </trkpt>
      <trkpt lat="41.56283" lon="0.51743">
        <ele>128.8594</ele>
        <time>2021-07-21T17:14:54Z</time>
      </trkpt>
      <trkpt lat="41.56281" lon="0.51913">
        <ele>126.921</ele>
        <time>2021-07-21T17:15:05Z</time>
      </trkpt>
      <trkpt lat="41.56244" lon="0.5205">
        <ele>131.5569</ele>
        <time>2021-07-21T17:15:16Z</time>
      </trkpt>
      <trkpt lat="41.56181" lon="0.52181">
        <ele>130.2596</ele>
        <time>2021-07-21T17:15:27Z</time>
      </trkpt>
      <trkpt lat="41.56112" lon="0.5231">
        <ele>131.875</ele>
        <time>2021-07-21T17:15:38Z</time>
      </trkpt>
      <trkpt lat="41.56099" lon="0.52481">
        <ele>129.903</ele>
        <time>2021-07-21T17:15:49Z</time>
      </trkpt>
      <trkpt lat="41.56129" lon="0.52555">
        <ele>128.3746</ele>
        <time>2021-07-21T17:16:00Z</time>
      </trkpt>
      <trkpt lat="41.56139" lon="0.52567">
        <ele>128.0286</ele>
        <time>2021-07-21T17:16:11Z</time>
      </trkpt>
      <trkpt lat="41.56195" lon="0.52643">
        <ele>130.7414</ele>
        <time>2021-07-21T17:16:22Z</time>
      </trkpt>
      <trkpt lat="41.56249" lon="0.52718">
        <ele>136.6213</ele>
        <time>2021-07-21T17:16:33Z</time>
      </trkpt>
      <trkpt lat="41.56272" lon="0.5275">
        <ele>142.1294</ele>
        <time>2021-07-21T17:16:44Z</time>
      </trkpt>
      <trkpt lat="41.56276" lon="0.52755">
        <ele>145.6124</ele>
        <time>2021-07-21T17:17:04Z</time>
      </trkpt>
      <trkpt lat="41.56339" lon="0.52836">
        <ele>142.6704</ele>
        <time>2021-07-21T17:17:15Z</time>
      </trkpt>
      <trkpt lat="41.56459" lon="0.52934">
        <ele>142.9847</ele>
        <time>2021-07-21T17:17:26Z</time>
      </trkpt>
      <trkpt lat="41.56557" lon="0.5299">
        <ele>142.1893</ele>
        <time>2021-07-21T17:17:37Z</time>
      </trkpt>
      <trkpt lat="41.56565" lon="0.52993">
        <ele>142.8948</ele>
        <time>2021-07-21T17:17:48Z</time>
      </trkpt>
      <trkpt lat="41.5657" lon="0.52994">
        <ele>142.3605</ele>
        <time>2021-07-21T17:17:59Z</time>
      </trkpt>
      <trkpt lat="41.56613" lon="0.5303">
        <ele>140.9252</ele>
        <time>2021-07-21T17:18:10Z</time>
      </trkpt>
      <trkpt lat="41.56709" lon="0.53204">
        <ele>138.9469</ele>
        <time>2021-07-21T17:18:21Z</time>
      </trkpt>
      <trkpt lat="41.56828" lon="0.53461">
        <ele>135.5339</ele>
        <time>2021-07-21T17:18:32Z</time>
      </trkpt>
      <trkpt lat="41.56941" lon="0.53727">
        <ele>136.4654</ele>
        <time>2021-07-21T17:18:43Z</time>
      </trkpt>
      <trkpt lat="41.5707" lon="0.53978">
        <ele>139.1915</ele>
        <time>2021-07-21T17:18:54Z</time>
      </trkpt>
      <trkpt lat="41.57181" lon="0.54243">
        <ele>141.3388</ele>
        <time>2021-07-21T17:19:05Z</time>
      </trkpt>
      <trkpt lat="41.57249" lon="0.54465">
        <ele>140.2516</ele>
        <time>2021-07-21T17:19:16Z</time>
      </trkpt>
      <trkpt lat="41.57296" lon="0.54686">
        <ele>139.2338</ele>
        <time>2021-07-21T17:19:27Z</time>
      </trkpt>
      <trkpt lat="41.57384" lon="0.54942">
        <ele>140.3572</ele>
        <time>2021-07-21T17:19:38Z</time>
      </trkpt>
      <trkpt lat="41.57498" lon="0.55227">
        <ele>143.2271</ele>
        <time>2021-07-21T17:19:49Z</time>
      </trkpt>
      <trkpt lat="41.57648" lon="0.55508">
        <ele>146.0378</ele>
        <time>2021-07-21T17:20:00Z</time>
      </trkpt>
      <trkpt lat="41.57807" lon="0.55785">
        <ele>147.2466</ele>
        <time>2021-07-21T17:20:11Z</time>
      </trkpt>
      <trkpt lat="41.5797" lon="0.56066">
        <ele>149.7903</ele>
        <time>2021-07-21T17:20:22Z</time>
      </trkpt>
      <trkpt lat="41.58133" lon="0.56349">
        <ele>146.0073</ele>
        <time>2021-07-21T17:20:33Z</time>
      </trkpt>
      <trkpt lat="41.58299" lon="0.56617">
        <ele>152.1541</ele>
        <time>2021-07-21T17:20:44Z</time>
      </trkpt>
      <trkpt lat="41.58452" lon="0.56857">
        <ele>157.4031</ele>
        <time>2021-07-21T17:20:55Z</time>
      </trkpt>
      <trkpt lat="41.58608" lon="0.57103">
        <ele>161.5373</ele>
        <time>2021-07-21T17:21:06Z</time>
      </trkpt>
      <trkpt lat="41.58747" lon="0.57363">
        <ele>165.1853</ele>
        <time>2021-07-21T17:21:17Z</time>
      </trkpt>
      <trkpt lat="41.5892" lon="0.57591">
        <ele>166.0695</ele>
        <time>2021-07-21T17:21:28Z</time>
      </trkpt>
      <trkpt lat="41.59055" lon="0.57859">
        <ele>164.3283</ele>
        <time>2021-07-21T17:21:39Z</time>
      </trkpt>
      <trkpt lat="41.5908" lon="0.58169">
        <ele>159.3262</ele>
        <time>2021-07-21T17:21:50Z</time>
      </trkpt>
      <trkpt lat="41.59169" lon="0.58463">
        <ele>156.5239</ele>
        <time>2021-07-21T17:22:01Z</time>
      </trkpt>
      <trkpt lat="41.59291" lon="0.58753">
        <ele>159.1752</ele>
        <time>2021-07-21T17:22:12Z</time>
      </trkpt>
      <trkpt lat="41.59366" lon="0.58995">
        <ele>159.9191</ele>
        <time>2021-07-21T17:22:23Z</time>
      </trkpt>
      <trkpt lat="41.59491" lon="0.59191">
        <ele>160.3246</ele>
        <time>2021-07-21T17:22:34Z</time>
      </trkpt>
      <trkpt lat="41.59622" lon="0.59421">
        <ele>159.9081</ele>
        <time>2021-07-21T17:22:45Z</time>
      </trkpt>
      <trkpt lat="41.5975" lon="0.59627">
        <ele>162.4656</ele>
        <time>2021-07-21T17:22:56Z</time>
      </trkpt>
      <trkpt lat="41.59887" lon="0.59802">
        <ele>163.6158</ele>
        <time>2021-07-21T17:23:07Z</time>
      </trkpt>
      <trkpt lat="41.59993" lon="0.59984">
        <ele>161.6368</ele>
        <time>2021-07-21T17:23:18Z</time>
      </trkpt>
      <trkpt lat="41.6008" lon="0.60239">
        <ele>165.418</ele>
        <time>2021-07-21T17:23:29Z</time>
      </trkpt>
      <trkpt lat="41.60197" lon="0.60455">
        <ele>167.8998</ele>
        <time>2021-07-21T17:23:40Z</time>
      </trkpt>
      <trkpt lat="41.6028" lon="0.60608">
        <ele>164.4499</ele>
        <time>2021-07-21T17:23:51Z</time>
      </trkpt>
      <trkpt lat="41.60362" lon="0.60816">
        <ele>159.7521</ele>
        <time>2021-07-21T17:24:03Z</time>
      </trkpt>
      <trkpt lat="41.60457" lon="0.60993">
        <ele>161.857</ele>
        <time>2021-07-21T17:24:14Z</time>
      </trkpt>
      <trkpt lat="41.60548" lon="0.61186">
        <ele>161.9252</ele>
        <time>2021-07-21T17:24:25Z</time>
      </trkpt>
      <trkpt lat="41.60583" lon="0.61333">
        <ele>161.5595</ele>
        <time>2021-07-21T17:24:36Z</time>
      </trkpt>
      <trkpt lat="41.60644" lon="0.61429">
        <ele>161.2406</ele>
        <time>2021-07-21T17:24:47Z</time>
      </trkpt>
      <trkpt lat="41.60729" lon="0.61582">
        <ele>160.3118</ele>
        <time>2021-07-21T17:24:58Z</time>
      </trkpt>
      <trkpt lat="41.60804" lon="0.61679">
        <ele>154.44</ele>
        <time>2021-07-21T17:25:09Z</time>
      </trkpt>
      <trkpt lat="41.60805" lon="0.61683">
        <ele>158.5185</ele>
        <time>2021-07-21T17:25:24Z</time>
      </trkpt>
      <trkpt lat="41.60829" lon="0.61743">
        <ele>156.8703</ele>
        <time>2021-07-21T17:25:35Z</time>
      </trkpt>
      <trkpt lat="41.6085" lon="0.61733">
        <ele>156.6664</ele>
        <time>2021-07-21T17:25:46Z</time>
      </trkpt>
      <trkpt lat="41.60868" lon="0.61718">
        <ele>155.9214</ele>
        <time>2021-07-21T17:25:57Z</time>
      </trkpt>
      <trkpt lat="41.60917" lon="0.61677">
        <ele>160.3836</ele>
        <time>2021-07-21T17:26:08Z</time>
      </trkpt>
      <trkpt lat="41.60938" lon="0.61663">
        <ele>160.6779</ele>
        <time>2021-07-21T17:26:19Z</time>
      </trkpt>
      <trkpt lat="41.60961" lon="0.61645">
        <ele>162.1824</ele>
        <time>2021-07-21T17:26:30Z</time>
      </trkpt>
      <trkpt lat="41.6103" lon="0.61578">
        <ele>163.3811</ele>
        <time>2021-07-21T17:26:41Z</time>
      </trkpt>
      <trkpt lat="41.61108" lon="0.61499">
        <ele>165.6912</ele>
        <time>2021-07-21T17:26:52Z</time>
      </trkpt>
      <trkpt lat="41.61203" lon="0.61426">
        <ele>170.2643</ele>
        <time>2021-07-21T17:27:03Z</time>
      </trkpt>
      <trkpt lat="41.61296" lon="0.61376">
        <ele>175.9775</ele>
        <time>2021-07-21T17:27:14Z</time>
      </trkpt>
      <trkpt lat="41.61401" lon="0.61337">
        <ele>177.3957</ele>
        <time>2021-07-21T17:27:25Z</time>
      </trkpt>
      <trkpt lat="41.61513" lon="0.61326">
        <ele>181.8944</ele>
        <time>2021-07-21T17:27:36Z</time>
      </trkpt>
      <trkpt lat="41.61606" lon="0.61333">
        <ele>184.441</ele>
        <time>2021-07-21T17:27:47Z</time>
      </trkpt>
      <trkpt lat="41.61698" lon="0.61354">
        <ele>188.3252</ele>
        <time>2021-07-21T17:27:58Z</time>
      </trkpt>
      <trkpt lat="41.61806" lon="0.6141">
        <ele>198.7436</ele>
        <time>2021-07-21T17:28:09Z</time>
      </trkpt>
      <trkpt lat="41.61913" lon="0.61487">
        <ele>200.1652</ele>
        <time>2021-07-21T17:28:20Z</time>
      </trkpt>
      <trkpt lat="41.62011" lon="0.61585">
        <ele>193.2807</ele>
        <time>2021-07-21T17:28:31Z</time>
      </trkpt>
      <trkpt lat="41.62099" lon="0.61707">
        <ele>185.3981</ele>
        <time>2021-07-21T17:28:42Z</time>
      </trkpt>
      <trkpt lat="41.62196" lon="0.61837">
        <ele>181.953</ele>
        <time>2021-07-21T17:28:53Z</time>
      </trkpt>
      <trkpt lat="41.62289" lon="0.6196">
        <ele>181.7036</ele>
        <time>2021-07-21T17:29:04Z</time>
      </trkpt>
      <trkpt lat="41.62381" lon="0.62078">
        <ele>178.7978</ele>
        <time>2021-07-21T17:29:15Z</time>
      </trkpt>
      <trkpt lat="41.62449" lon="0.6217">
        <ele>179.9516</ele>
        <time>2021-07-21T17:29:26Z</time>
      </trkpt>
      <trkpt lat="41.62465" lon="0.62189">
        <ele>187.9918</ele>
        <time>2021-07-21T17:29:37Z</time>
      </trkpt>
      <trkpt lat="41.62499" lon="0.62234">
        <ele>188.3138</ele>
        <time>2021-07-21T17:29:48Z</time>
      </trkpt>
      <trkpt lat="41.62509" lon="0.62245">
        <ele>182.4784</ele>
        <time>2021-07-21T17:29:59Z</time>
      </trkpt>
      <trkpt lat="41.62512" lon="0.62248">
        <ele>177.0796</ele>
        <time>2021-07-21T17:30:35Z</time>
      </trkpt>
      <trkpt lat="41.62514" lon="0.62251">
        <ele>176.1013</ele>
        <time>2021-07-21T17:31:11Z</time>
      </trkpt>
      <trkpt lat="41.62536" lon="0.62305">
        <ele>175.4801</ele>
        <time>2021-07-21T17:31:22Z</time>
      </trkpt>
      <trkpt lat="41.62535" lon="0.62404">
        <ele>172.1558</ele>
        <time>2021-07-21T17:31:33Z</time>
      </trkpt>
      <trkpt lat="41.62514" lon="0.62501">
        <ele>173.6798</ele>
        <time>2021-07-21T17:31:44Z</time>
      </trkpt>
      <trkpt lat="41.62499" lon="0.62549">
        <ele>171.1806</ele>
        <time>2021-07-21T17:31:55Z</time>
      </trkpt>
      <trkpt lat="41.62482" lon="0.62601">
        <ele>170.7584</ele>
        <time>2021-07-21T17:32:06Z</time>
      </trkpt>
      <trkpt lat="41.6245" lon="0.62694">
        <ele>167.8754</ele>
        <time>2021-07-21T17:32:17Z</time>
      </trkpt>
      <trkpt lat="41.62409" lon="0.62755">
        <ele>167.0921</ele>
        <time>2021-07-21T17:32:28Z</time>
      </trkpt>
      <trkpt lat="41.62469" lon="0.62822">
        <ele>169.1467</ele>
        <time>2021-07-21T17:32:39Z</time>
      </trkpt>
      <trkpt lat="41.62558" lon="0.62931">
        <ele>165.2597</ele>
        <time>2021-07-21T17:32:50Z</time>
      </trkpt>
      <trkpt lat="41.62606" lon="0.63005">
        <ele>165.8809</ele>
        <time>2021-07-21T17:33:01Z</time>
      </trkpt>
      <trkpt lat="41.62606" lon="0.63006">
        <ele>170.974</ele>
        <time>2021-07-21T17:34:00Z</time>
      </trkpt>
      <trkpt lat="41.62609" lon="0.63009">
        <ele>171.1078</ele>
        <time>2021-07-21T17:34:13Z</time>
      </trkpt>
      <trkpt lat="41.62566" lon="0.63091">
        <ele>173.4187</ele>
        <time>2021-07-21T17:34:24Z</time>
      </trkpt>
      <trkpt lat="41.62498" lon="0.6314">
        <ele>172.015</ele>
        <time>2021-07-21T17:34:35Z</time>
      </trkpt>
      <trkpt lat="41.6259" lon="0.63261">
        <ele>166.3215</ele>
        <time>2021-07-21T17:34:46Z</time>
      </trkpt>
      <trkpt lat="41.62695" lon="0.63384">
        <ele>171.3193</ele>
        <time>2021-07-21T17:34:57Z</time>
      </trkpt>
      <trkpt lat="41.62706" lon="0.63394">
        <ele>179.5741</ele>
        <time>2021-07-21T17:35:28Z</time>
      </trkpt>
      <trkpt lat="41.62824" lon="0.63539">
        <ele>183.9345</ele>
        <time>2021-07-21T17:35:39Z</time>
      </trkpt>
      <trkpt lat="41.62955" lon="0.63693">
        <ele>174.1603</ele>
        <time>2021-07-21T17:35:50Z</time>
      </trkpt>
      <trkpt lat="41.63147" lon="0.63922">
        <ele>166.7576</ele>
        <time>2021-07-21T17:36:01Z</time>
      </trkpt>
      <trkpt lat="41.63309" lon="0.64129">
        <ele>162.6322</ele>
        <time>2021-07-21T17:36:12Z</time>
      </trkpt>
      <trkpt lat="41.63371" lon="0.64227">
        <ele>161.5241</ele>
        <time>2021-07-21T17:36:23Z</time>
      </trkpt>
      <trkpt lat="41.6353" lon="0.64316">
        <ele>159.005</ele>
        <time>2021-07-21T17:36:34Z</time>
      </trkpt>
      <trkpt lat="41.63701" lon="0.64504">
        <ele>160.8255</ele>
        <time>2021-07-21T17:36:45Z</time>
      </trkpt>
      <trkpt lat="41.63846" lon="0.64768">
        <ele>160.7315</ele>
        <time>2021-07-21T17:36:56Z</time>
      </trkpt>
      <trkpt lat="41.64037" lon="0.64962">
        <ele>162.1822</ele>
        <time>2021-07-21T17:37:07Z</time>
      </trkpt>
      <trkpt lat="41.64285" lon="0.65117">
        <ele>161.6452</ele>
        <time>2021-07-21T17:37:18Z</time>
      </trkpt>
      <trkpt lat="41.64534" lon="0.65254">
        <ele>162.0626</ele>
        <time>2021-07-21T17:37:29Z</time>
      </trkpt>
      <trkpt lat="41.64762" lon="0.65383">
        <ele>165.0979</ele>
        <time>2021-07-21T17:37:40Z</time>
      </trkpt>
      <trkpt lat="41.65006" lon="0.65518">
        <ele>164.9302</ele>
        <time>2021-07-21T17:37:51Z</time>
      </trkpt>
      <trkpt lat="41.65223" lon="0.65635">
        <ele>166.2189</ele>
        <time>2021-07-21T17:38:02Z</time>
      </trkpt>
      <trkpt lat="41.65416" lon="0.65707">
        <ele>167.4764</ele>
        <time>2021-07-21T17:38:13Z</time>
      </trkpt>
      <trkpt lat="41.6559" lon="0.65782">
        <ele>173.2886</ele>
        <time>2021-07-21T17:38:24Z</time>
      </trkpt>
      <trkpt lat="41.6575" lon="0.65903">
        <ele>173.5935</ele>
        <time>2021-07-21T17:38:35Z</time>
      </trkpt>
      <trkpt lat="41.65887" lon="0.66062">
        <ele>171.8702</ele>
        <time>2021-07-21T17:38:46Z</time>
      </trkpt>
      <trkpt lat="41.66045" lon="0.66226">
        <ele>176.9704</ele>
        <time>2021-07-21T17:38:57Z</time>
      </trkpt>
      <trkpt lat="41.66275" lon="0.66356">
        <ele>181.0945</ele>
        <time>2021-07-21T17:39:08Z</time>
      </trkpt>
      <trkpt lat="41.66523" lon="0.66527">
        <ele>181.6354</ele>
        <time>2021-07-21T17:39:19Z</time>
      </trkpt>
      <trkpt lat="41.66752" lon="0.66731">
        <ele>185.2196</ele>
        <time>2021-07-21T17:39:30Z</time>
      </trkpt>
      <trkpt lat="41.67011" lon="0.66867">
        <ele>193.5973</ele>
        <time>2021-07-21T17:39:41Z</time>
      </trkpt>
      <trkpt lat="41.6725" lon="0.67066">
        <ele>203.5241</ele>
        <time>2021-07-21T17:39:52Z</time>
      </trkpt>
      <trkpt lat="41.67471" lon="0.67305">
        <ele>205.4473</ele>
        <time>2021-07-21T17:40:03Z</time>
      </trkpt>
      <trkpt lat="41.67677" lon="0.67529">
        <ele>206.8751</ele>
        <time>2021-07-21T17:40:14Z</time>
      </trkpt>
      <trkpt lat="41.67863" lon="0.67774">
        <ele>208.2164</ele>
        <time>2021-07-21T17:40:25Z</time>
      </trkpt>
      <trkpt lat="41.68038" lon="0.68028">
        <ele>209.287</ele>
        <time>2021-07-21T17:40:36Z</time>
      </trkpt>
      <trkpt lat="41.68173" lon="0.68322">
        <ele>207.0539</ele>
        <time>2021-07-21T17:40:47Z</time>
      </trkpt>
      <trkpt lat="41.68205" lon="0.68672">
        <ele>197.7396</ele>
        <time>2021-07-21T17:40:58Z</time>
      </trkpt>
      <trkpt lat="41.68231" lon="0.69028">
        <ele>188.7374</ele>
        <time>2021-07-21T17:41:09Z</time>
      </trkpt>
      <trkpt lat="41.68295" lon="0.69374">
        <ele>183.9534</ele>
        <time>2021-07-21T17:41:20Z</time>
      </trkpt>
      <trkpt lat="41.68404" lon="0.69686">
        <ele>179.5745</ele>
        <time>2021-07-21T17:41:31Z</time>
      </trkpt>
      <trkpt lat="41.68553" lon="0.69961">
        <ele>178.8502</ele>
        <time>2021-07-21T17:41:42Z</time>
      </trkpt>
      <trkpt lat="41.68729" lon="0.70192">
        <ele>181.1393</ele>
        <time>2021-07-21T17:41:53Z</time>
      </trkpt>
      <trkpt lat="41.68909" lon="0.70421">
        <ele>183.3046</ele>
        <time>2021-07-21T17:42:04Z</time>
      </trkpt>
      <trkpt lat="41.6912" lon="0.70636">
        <ele>183.4022</ele>
        <time>2021-07-21T17:42:15Z</time>
      </trkpt>
      <trkpt lat="41.69368" lon="0.70769">
        <ele>189.5859</ele>
        <time>2021-07-21T17:42:26Z</time>
      </trkpt>
      <trkpt lat="41.69638" lon="0.70799">
        <ele>198.8183</ele>
        <time>2021-07-21T17:42:37Z</time>
      </trkpt>
      <trkpt lat="41.69908" lon="0.70823">
        <ele>200.3737</ele>
        <time>2021-07-21T17:42:48Z</time>
      </trkpt>
      <trkpt lat="41.70165" lon="0.70913">
        <ele>202.6311</ele>
        <time>2021-07-21T17:42:59Z</time>
      </trkpt>
      <trkpt lat="41.70399" lon="0.71068">
        <ele>207.4309</ele>
        <time>2021-07-21T17:43:10Z</time>
      </trkpt>
      <trkpt lat="41.70621" lon="0.71275">
        <ele>218.9633</ele>
        <time>2021-07-21T17:43:21Z</time>
      </trkpt>
      <trkpt lat="41.70829" lon="0.71509">
        <ele>215.9297</ele>
        <time>2021-07-21T17:43:32Z</time>
      </trkpt>
      <trkpt lat="41.71034" lon="0.71739">
        <ele>214.6884</ele>
        <time>2021-07-21T17:43:43Z</time>
      </trkpt>
      <trkpt lat="41.71238" lon="0.7197">
        <ele>214.648</ele>
        <time>2021-07-21T17:43:54Z</time>
      </trkpt>
      <trkpt lat="41.71441" lon="0.722">
        <ele>213.6154</ele>
        <time>2021-07-21T17:44:05Z</time>
      </trkpt>
      <trkpt lat="41.71644" lon="0.72431">
        <ele>213.8809</ele>
        <time>2021-07-21T17:44:16Z</time>
      </trkpt>
      <trkpt lat="41.71848" lon="0.72663">
        <ele>219.9872</ele>
        <time>2021-07-21T17:44:27Z</time>
      </trkpt>
      <trkpt lat="41.72094" lon="0.72828">
        <ele>225.5078</ele>
        <time>2021-07-21T17:44:38Z</time>
      </trkpt>
      <trkpt lat="41.72352" lon="0.7295">
        <ele>229.7202</ele>
        <time>2021-07-21T17:44:49Z</time>
      </trkpt>
      <trkpt lat="41.72578" lon="0.73157">
        <ele>227.5788</ele>
        <time>2021-07-21T17:45:00Z</time>
      </trkpt>
      <trkpt lat="41.72802" lon="0.73366">
        <ele>220.967</ele>
        <time>2021-07-21T17:45:11Z</time>
      </trkpt>
      <trkpt lat="41.73051" lon="0.7348">
        <ele>222.1754</ele>
        <time>2021-07-21T17:45:22Z</time>
      </trkpt>
      <trkpt lat="41.73303" lon="0.73578">
        <ele>232.776</ele>
        <time>2021-07-21T17:45:33Z</time>
      </trkpt>
      <trkpt lat="41.73485" lon="0.73807">
        <ele>235.84</ele>
        <time>2021-07-21T17:45:44Z</time>
      </trkpt>
      <trkpt lat="41.73582" lon="0.74136">
        <ele>236.659</ele>
        <time>2021-07-21T17:45:55Z</time>
      </trkpt>
      <trkpt lat="41.73672" lon="0.74472">
        <ele>238.6466</ele>
        <time>2021-07-21T17:46:06Z</time>
      </trkpt>
      <trkpt lat="41.73713" lon="0.7483">
        <ele>223.8745</ele>
        <time>2021-07-21T17:46:17Z</time>
      </trkpt>
      <trkpt lat="41.73818" lon="0.75159">
        <ele>211.2996</ele>
        <time>2021-07-21T17:46:28Z</time>
      </trkpt>
      <trkpt lat="41.73974" lon="0.75453">
        <ele>216.3725</ele>
        <time>2021-07-21T17:46:39Z</time>
      </trkpt>
      <trkpt lat="41.74165" lon="0.75719">
        <ele>221.265</ele>
        <time>2021-07-21T17:46:50Z</time>
      </trkpt>
      <trkpt lat="41.74359" lon="0.75979">
        <ele>221.7678</ele>
        <time>2021-07-21T17:47:01Z</time>
      </trkpt>
      <trkpt lat="41.74574" lon="0.76208">
        <ele>221.3833</ele>
        <time>2021-07-21T17:47:12Z</time>
      </trkpt>
      <trkpt lat="41.74813" lon="0.76376">
        <ele>219.9193</ele>
        <time>2021-07-21T17:47:23Z</time>
      </trkpt>
      <trkpt lat="41.7506" lon="0.76517">
        <ele>220.4219</ele>
        <time>2021-07-21T17:47:34Z</time>
      </trkpt>
      <trkpt lat="41.75249" lon="0.76775">
        <ele>221.1445</ele>
        <time>2021-07-21T17:47:45Z</time>
      </trkpt>
      <trkpt lat="41.75478" lon="0.76968">
        <ele>221.5055</ele>
        <time>2021-07-21T17:47:56Z</time>
      </trkpt>
      <trkpt lat="41.7571" lon="0.77163">
        <ele>219.6839</ele>
        <time>2021-07-21T17:48:07Z</time>
      </trkpt>
      <trkpt lat="41.7591" lon="0.77409">
        <ele>220.5886</ele>
        <time>2021-07-21T17:48:18Z</time>
      </trkpt>
      <trkpt lat="41.76132" lon="0.77609">
        <ele>221.1997</ele>
        <time>2021-07-21T17:48:29Z</time>
      </trkpt>
      <trkpt lat="41.7632" lon="0.77848">
        <ele>220.9267</ele>
        <time>2021-07-21T17:48:40Z</time>
      </trkpt>
      <trkpt lat="41.76457" lon="0.78129">
        <ele>219.7191</ele>
        <time>2021-07-21T17:48:51Z</time>
      </trkpt>
      <trkpt lat="41.76599" lon="0.78417">
        <ele>220.5688</ele>
        <time>2021-07-21T17:49:02Z</time>
      </trkpt>
      <trkpt lat="41.76769" lon="0.78678">
        <ele>224.1654</ele>
        <time>2021-07-21T17:49:13Z</time>
      </trkpt>
      <trkpt lat="41.76979" lon="0.78871">
        <ele>225.7625</ele>
        <time>2021-07-21T17:49:24Z</time>
      </trkpt>
      <trkpt lat="41.77189" lon="0.79063">
        <ele>231.3159</ele>
        <time>2021-07-21T17:49:35Z</time>
      </trkpt>
      <trkpt lat="41.77408" lon="0.79246">
        <ele>236.9365</ele>
        <time>2021-07-21T17:49:46Z</time>
      </trkpt>
      <trkpt lat="41.77655" lon="0.79288">
        <ele>243.6633</ele>
        <time>2021-07-21T17:49:57Z</time>
      </trkpt>
      <trkpt lat="41.779" lon="0.79185">
        <ele>250.8902</ele>
        <time>2021-07-21T17:50:08Z</time>
      </trkpt>
      <trkpt lat="41.78104" lon="0.79079">
        <ele>257.176</ele>
        <time>2021-07-21T17:50:19Z</time>
      </trkpt>
      <trkpt lat="41.7833" lon="0.79006">
        <ele>262.3586</ele>
        <time>2021-07-21T17:50:30Z</time>
      </trkpt>
      <trkpt lat="41.78487" lon="0.79116">
        <ele>265.3181</ele>
        <time>2021-07-21T17:50:41Z</time>
      </trkpt>
      <trkpt lat="41.7854" lon="0.79232">
        <ele>267.9928</ele>
        <time>2021-07-21T17:50:52Z</time>
      </trkpt>
      <trkpt lat="41.78638" lon="0.79296">
        <ele>273.0718</ele>
        <time>2021-07-21T17:51:03Z</time>
      </trkpt>
      <trkpt lat="41.78778" lon="0.79477">
        <ele>285.6691</ele>
        <time>2021-07-21T17:51:14Z</time>
      </trkpt>
      <trkpt lat="41.79024" lon="0.7953">
        <ele>286.9124</ele>
        <time>2021-07-21T17:51:25Z</time>
      </trkpt>
      <trkpt lat="41.79263" lon="0.79499">
        <ele>293.9575</ele>
        <time>2021-07-21T17:51:36Z</time>
      </trkpt>
      <trkpt lat="41.79501" lon="0.79427">
        <ele>292.0962</ele>
        <time>2021-07-21T17:51:47Z</time>
      </trkpt>
      <trkpt lat="41.79741" lon="0.79335">
        <ele>286.9265</ele>
        <time>2021-07-21T17:51:58Z</time>
      </trkpt>
      <trkpt lat="41.80007" lon="0.79313">
        <ele>286.2222</ele>
        <time>2021-07-21T17:52:09Z</time>
      </trkpt>
      <trkpt lat="41.80203" lon="0.79324">
        <ele>288.4835</ele>
        <time>2021-07-21T17:52:20Z</time>
      </trkpt>
      <trkpt lat="41.8023" lon="0.79452">
        <ele>285.9093</ele>
        <time>2021-07-21T17:52:31Z</time>
      </trkpt>
      <trkpt lat="41.80189" lon="0.79759">
        <ele>281.5577</ele>
        <time>2021-07-21T17:52:42Z</time>
      </trkpt>
      <trkpt lat="41.80143" lon="0.80108">
        <ele>277.5805</ele>
        <time>2021-07-21T17:52:53Z</time>
      </trkpt>
      <trkpt lat="41.801" lon="0.80444">
        <ele>263.6974</ele>
        <time>2021-07-21T17:53:04Z</time>
      </trkpt>
      <trkpt lat="41.80039" lon="0.80661">
        <ele>249.1717</ele>
        <time>2021-07-21T17:53:15Z</time>
      </trkpt>
      <trkpt lat="41.79871" lon="0.80717">
        <ele>235.8797</ele>
        <time>2021-07-21T17:53:26Z</time>
      </trkpt>
      <trkpt lat="41.79777" lon="0.80737">
        <ele>234.4137</ele>
        <time>2021-07-21T17:53:37Z</time>
      </trkpt>
      <trkpt lat="41.79913" lon="0.80765">
        <ele>234.3209</ele>
        <time>2021-07-21T17:53:48Z</time>
      </trkpt>
      <trkpt lat="41.80127" lon="0.8081">
        <ele>236.1423</ele>
        <time>2021-07-21T17:53:59Z</time>
      </trkpt>
      <trkpt lat="41.80303" lon="0.80871">
        <ele>236.5006</ele>
        <time>2021-07-21T17:54:10Z</time>
      </trkpt>
      <trkpt lat="41.80513" lon="0.80793">
        <ele>239.4851</ele>
        <time>2021-07-21T17:54:21Z</time>
      </trkpt>
      <trkpt lat="41.80735" lon="0.80743">
        <ele>233.8438</ele>
        <time>2021-07-21T17:54:32Z</time>
      </trkpt>
      <trkpt lat="41.80921" lon="0.80558">
        <ele>235.5183</ele>
        <time>2021-07-21T17:54:43Z</time>
      </trkpt>
      <trkpt lat="41.81097" lon="0.80475">
        <ele>231.5009</ele>
        <time>2021-07-21T17:54:54Z</time>
      </trkpt>
      <trkpt lat="41.81329" lon="0.80409">
        <ele>241.4697</ele>
        <time>2021-07-21T17:55:05Z</time>
      </trkpt>
      <trkpt lat="41.81593" lon="0.80413">
        <ele>246.4329</ele>
        <time>2021-07-21T17:55:16Z</time>
      </trkpt>
      <trkpt lat="41.81826" lon="0.80405">
        <ele>244.4694</ele>
        <time>2021-07-21T17:55:27Z</time>
      </trkpt>
      <trkpt lat="41.81963" lon="0.80367">
        <ele>248.254</ele>
        <time>2021-07-21T17:55:38Z</time>
      </trkpt>
      <trkpt lat="41.8207" lon="0.80323">
        <ele>249.6903</ele>
        <time>2021-07-21T17:55:49Z</time>
      </trkpt>
      <trkpt lat="41.82186" lon="0.80328">
        <ele>251.609</ele>
        <time>2021-07-21T17:56:00Z</time>
      </trkpt>
      <trkpt lat="41.8228" lon="0.80384">
        <ele>254.6993</ele>
        <time>2021-07-21T17:56:11Z</time>
      </trkpt>
      <trkpt lat="41.82375" lon="0.80487">
        <ele>254.3491</ele>
        <time>2021-07-21T17:56:22Z</time>
      </trkpt>
      <trkpt lat="41.8251" lon="0.80626">
        <ele>243.1223</ele>
        <time>2021-07-21T17:56:33Z</time>
      </trkpt>
      <trkpt lat="41.82625" lon="0.80955">
        <ele>240.4283</ele>
        <time>2021-07-21T17:56:44Z</time>
      </trkpt>
      <trkpt lat="41.82865" lon="0.81162">
        <ele>242.2037</ele>
        <time>2021-07-21T17:56:55Z</time>
      </trkpt>
      <trkpt lat="41.83094" lon="0.81286">
        <ele>244.7887</ele>
        <time>2021-07-21T17:57:06Z</time>
      </trkpt>
      <trkpt lat="41.83275" lon="0.81488">
        <ele>242.4236</ele>
        <time>2021-07-21T17:57:17Z</time>
      </trkpt>
      <trkpt lat="41.83482" lon="0.8172">
        <ele>242.1282</ele>
        <time>2021-07-21T17:57:28Z</time>
      </trkpt>
      <trkpt lat="41.83706" lon="0.81911">
        <ele>243.7154</ele>
        <time>2021-07-21T17:57:39Z</time>
      </trkpt>
      <trkpt lat="41.83942" lon="0.82052">
        <ele>242.6889</ele>
        <time>2021-07-21T17:57:50Z</time>
      </trkpt>
      <trkpt lat="41.84149" lon="0.82175">
        <ele>242.8519</ele>
        <time>2021-07-21T17:58:01Z</time>
      </trkpt>
      <trkpt lat="41.84366" lon="0.82344">
        <ele>242.7799</ele>
        <time>2021-07-21T17:58:12Z</time>
      </trkpt>
      <trkpt lat="41.84601" lon="0.82481">
        <ele>242.8727</ele>
        <time>2021-07-21T17:58:23Z</time>
      </trkpt>
      <trkpt lat="41.84847" lon="0.82586">
        <ele>241.0786</ele>
        <time>2021-07-21T17:58:34Z</time>
      </trkpt>
      <trkpt lat="41.85077" lon="0.82751">
        <ele>243.9337</ele>
        <time>2021-07-21T17:58:45Z</time>
      </trkpt>
      <trkpt lat="41.85311" lon="0.82969">
        <ele>244.1905</ele>
        <time>2021-07-21T17:58:56Z</time>
      </trkpt>
      <trkpt lat="41.85521" lon="0.83166">
        <ele>247.9589</ele>
        <time>2021-07-21T17:59:07Z</time>
      </trkpt>
      <trkpt lat="41.85772" lon="0.83263">
        <ele>249.0298</ele>
        <time>2021-07-21T17:59:18Z</time>
      </trkpt>
      <trkpt lat="41.85993" lon="0.83305">
        <ele>247.476</ele>
        <time>2021-07-21T17:59:29Z</time>
      </trkpt>
      <trkpt lat="41.8605" lon="0.83308">
        <ele>248.0577</ele>
        <time>2021-07-21T17:59:40Z</time>
      </trkpt>
      <trkpt lat="41.86037" lon="0.8326">
        <ele>249.6759</ele>
        <time>2021-07-21T17:59:51Z</time>
      </trkpt>
      <trkpt lat="41.86046" lon="0.83253">
        <ele>250.7704</ele>
        <time>2021-07-21T18:00:03Z</time>
      </trkpt>
      <trkpt lat="41.86071" lon="0.83227">
        <ele>251.4731</ele>
        <time>2021-07-21T18:00:14Z</time>
      </trkpt>
      <trkpt lat="41.86092" lon="0.83239">
        <ele>250.141</ele>
        <time>2021-07-21T18:00:25Z</time>
      </trkpt>
      <trkpt lat="41.86093" lon="0.83244">
        <ele>251.8664</ele>
        <time>2021-07-21T18:00:36Z</time>
      </trkpt>
      <trkpt lat="41.86094" lon="0.83247">
        <ele>252.6671</ele>
        <time>2021-07-21T18:01:35Z</time>
      </trkpt>
      <trkpt lat="41.86093" lon="0.83242">
        <ele>255.9362</ele>
        <time>2021-07-21T18:02:00Z</time>
      </trkpt>
      <trkpt lat="41.86088" lon="0.83225">
        <ele>254.2059</ele>
        <time>2021-07-21T18:02:11Z</time>
      </trkpt>
      <trkpt lat="41.86085" lon="0.83222">
        <ele>247.1798</ele>
        <time>2021-07-21T18:02:25Z</time>
      </trkpt>
      <trkpt lat="41.86084" lon="0.83217">
        <ele>247.5797</ele>
        <time>2021-07-21T18:02:36Z</time>
      </trkpt>
      <trkpt lat="41.86085" lon="0.83222">
        <ele>247.4521</ele>
        <time>2021-07-21T18:03:20Z</time>
      </trkpt>
      <trkpt lat="41.86082" lon="0.83219">
        <ele>247.1509</ele>
        <time>2021-07-21T18:03:57Z</time>
      </trkpt>
      <trkpt lat="41.86081" lon="0.83226">
        <ele>246.8694</ele>
        <time>2021-07-21T18:04:08Z</time>
      </trkpt>
      <trkpt lat="41.86078" lon="0.83225">
        <ele>246.9783</ele>
        <time>2021-07-21T18:04:37Z</time>
      </trkpt>
      <trkpt lat="41.86077" lon="0.83213">
        <ele>247.2038</ele>
        <time>2021-07-21T18:04:48Z</time>
      </trkpt>
      <trkpt lat="41.86082" lon="0.83211">
        <ele>246.7171</ele>
        <time>2021-07-21T18:05:07Z</time>
      </trkpt>
      <trkpt lat="41.86084" lon="0.83207">
        <ele>246.8465</ele>
        <time>2021-07-21T18:05:18Z</time>
      </trkpt>
      <trkpt lat="41.86089" lon="0.83214">
        <ele>247.1792</ele>
        <time>2021-07-21T18:05:29Z</time>
      </trkpt>
      <trkpt lat="41.86082" lon="0.83209">
        <ele>247.1291</ele>
        <time>2021-07-21T18:05:40Z</time>
      </trkpt>
      <trkpt lat="41.86086" lon="0.83221">
        <ele>246.5918</ele>
        <time>2021-07-21T18:05:51Z</time>
      </trkpt>
      <trkpt lat="41.86085" lon="0.83216">
        <ele>246.8741</ele>
        <time>2021-07-21T18:06:03Z</time>
      </trkpt>
      <trkpt lat="41.86082" lon="0.8322">
        <ele>246.5098</ele>
        <time>2021-07-21T18:06:14Z</time>
      </trkpt>
      <trkpt lat="41.86086" lon="0.83218">
        <ele>246.1094</ele>
        <time>2021-07-21T18:06:27Z</time>
      </trkpt>
    </trkseg>
  </trk>
</gpx>